[[{"header":{"parameterUnit":"m.s-1","parameterCategory":1,"la1":30.6,"la2":28.766,"lo1":-90.7593,"lo2":-88.6598,"dy":0.0162,"dx":0.0183,"nx":116,"ny":114,"refTime":"2023-11-08T06:00:00:Z","depth":0,"parameterNumber":2,"parameterNumberName":"U-component_of_WINDS"},"data":[0.0,0.0,0.0,0.0,0.0,0.0,0.0,0.0,0.0,0.0,0.0,0.0,0.0,0.0,0.0,0.0,0.0,0.0,0.0,0.0,0.0,0.0,0.0,0.0,0.0,0.0,0.0,0.0,0.0,0.0,0.0,0.0,0.0,0.0,0.0,0.0,0.0,0.0,0.0,0.0,0.0,0.0,0.0,0.0,0.0,0.0,0.0,0.0,0.0,0.0,0.0,0.0,0.0,0.0,0.0,0.0,0.0,0.0,0.0,0.0,0.0,0.0,0.0,0.0,0.0,0.0,0.0,0.0,0.0,0.0,0.0,0.0,0.0,0.0,0.0,0.0,0.0,0.0,0.0,0.0,0.0,0.0,0.0,0.0,0.0,0.0,0.0,0.0,0.0,0.0,0.0,0.0,0.0,0.0,0.0,0.0,0.0,0.0,0.0,0.0,0.0,0.0,0.0,0.0,0.0,0.0,0.0,0.0,0.0,0.0,0.0,0.0,0.0,0.0,0.0,0.0,0.0,0.0,0.0,0.0,0.0,0.0,0.0,0.0,0.0,0.0,0.0,0.0,0.0,0.0,0.0,0.0,0.0,0.0,0.0,0.0,0.0,0.0,0.0,0.0,0.0,0.0,0.0,0.0,0.0,0.0,0.0,0.0,0.0,0.0,0.0,0.0,0.0,0.0,0.0,0.0,0.0,0.0,0.0,0.0,0.0,0.0,0.0,0.0,0.0,0.0,0.0,0.0,0.0,0.0,0.0,0.0,0.0,0.0,0.0,0.0,0.0,0.0,0.0,0.0,0.0,0.0,0.0,0.0,0.0,0.0,0.0,0.0,0.0,0.0,0.0,0.0,0.0,0.0,0.0,0.0,0.0,0.0,0.0,0.0,0.0,0.0,0.0,0.0,0.0,0.0,0.0,0.0,0.0,0.0,0.0,0.0,0.0,0.0,0.0,0.0,0.0,0.0,0.0,0.0,0.0,0.0,0.0,0.0,0.0,0.0,0.0,0.0,0.0,0.0,0.0,0.0,0.0,0.0,0.0,0.0,0.0,0.0,0.0,0.0,0.0,0.0,0.0,0.0,0.0,0.0,0.0,0.0,0.0,0.0,0.0,0.0,0.0,0.0,0.0,0.0,0.0,0.0,0.0,0.0,0.0,0.0,0.0,0.0,0.0,0.0,0.0,0.0,0.0,0.0,0.0,0.0,0.0,0.0,0.0,0.0,0.0,0.0,0.0,0.0,0.0,0.0,0.0,0.0,0.0,0.0,0.0,0.0,0.0,0.0,0.0,0.0,0.0,0.0,0.0,0.0,0.0,0.0,0.0,0.0,0.0,0.0,0.0,0.0,0.0,0.0,0.0,0.0,0.0,0.0,0.0,0.0,0.0,0.0,0.0,0.0,0.0,0.0,0.0,0.0,0.0,0.0,0.0,0.0,0.0,0.0,0.0,0.0,0.0,0.0,0.0,0.0,0.0,0.0,0.0,0.0,0.0,0.0,0.0,0.0,0.0,0.0,0.0,0.0,0.0,0.0,0.0,0.0,0.0,0.0,0.0,0.0,0.0,0.0,0.0,0.0,0.0,0.0,0.0,0.0,0.0,0.0,0.0,0.0,0.0,0.0,0.0,0.0,0.0,0.0,0.0,0.0,0.0,0.0,0.0,0.0,0.0,0.0,0.0,0.0,0.0,0.0,0.0,0.0,0.0,0.0,0.0,0.0,0.0,0.0,0.0,0.0,0.0,0.0,0.0,0.0,0.0,0.0,0.0,0.0,0.0,0.0,0.0,0.0,0.0,0.0,0.0,0.0,0.0,0.0,0.0,0.0,0.0,0.0,0.0,0.0,0.0,0.0,0.0,0.0,0.0,0.0,0.0,0.0,0.0,0.0,0.0,0.0,0.0,0.0,0.0,0.0,0.0,0.0,0.0,0.0,0.0,0.0,0.0,0.0,0.0,0.0,0.0,0.0,0.0,0.0,0.0,0.0,0.0,0.0,0.0,0.0,0.0,0.0,0.0,0.0,0.0,0.0,0.0,0.0,0.0,0.0,0.0,0.0,0.0,0.0,0.0,0.0,0.0,0.0,0.0,0.0,0.0,0.0,0.0,0.0,0.0,0.0,0.0,0.0,0.0,0.0,0.0,0.0,0.0,0.0,0.0,0.0,0.0,0.0,0.0,0.0,0.0,0.0,0.0,0.0,0.0,0.0,0.0,0.0,0.0,0.0,0.0,0.0,0.0,0.0,0.0,0.0,0.0,0.0,0.0,0.0,0.0,0.0,0.0,0.0,0.0,0.0,0.0,0.0,0.0,0.0,0.0,0.0,0.0,0.0,0.0,0.0,0.0,0.0,0.0,0.0,0.0,0.0,0.0,0.0,0.0,0.0,0.0,0.0,0.0,0.0,0.0,0.0,0.0,0.0,0.0,0.0,0.0,0.0,0.0,0.0,0.0,0.0,0.0,0.0,0.0,0.0,0.0,0.0,0.0,0.0,0.0,0.0,0.0,0.0,0.0,0.0,0.0,0.0,0.0,0.0,0.0,0.0,0.0,0.0,0.0,0.0,0.0,0.0,0.0,0.0,0.0,0.0,0.0,0.0,0.0,0.0,0.0,0.0,0.0,0.0,0.0,0.0,0.0,0.0,0.0,0.0,0.0,0.0,0.0,0.0,0.0,0.0,0.0,0.0,0.0,0.0,0.0,0.0,0.0,0.0,0.0,0.0,0.0,0.0,0.0,0.0,0.0,0.0,0.0,0.0,0.0,0.0,0.0,0.0,0.0,0.0,0.0,0.0,0.0,0.0,0.0,0.0,0.0,0.0,0.0,0.0,0.0,0.0,0.0,0.0,0.0,0.0,0.0,0.0,0.0,0.0,0.0,0.0,0.0,0.0,0.0,0.0,0.0,0.0,0.0,0.0,0.0,0.0,0.0,0.0,0.0,0.0,0.0,0.0,0.0,0.0,0.0,0.0,0.0,0.0,0.0,0.0,0.0,0.0,0.0,0.0,0.0,0.0,0.0,0.0,0.0,0.0,0.0,0.0,0.0,0.0,0.0,0.0,0.0,0.0,0.0,0.0,0.0,0.0,0.0,0.0,0.0,0.0,0.0,0.0,0.0,0.0,0.0,0.0,0.0,0.0,0.0,0.0,0.0,0.0,0.0,0.0,0.0,0.0,0.0,0.0,0.0,0.0,0.0,0.0,0.0,0.0,0.0,0.0,0.0,0.0,0.0,0.0,0.0,0.0,0.0,0.0,0.0,0.0,0.0,0.0,0.0,0.0,0.0,0.0,0.0,0.0,0.0,0.0,0.0,0.0,0.0,0.0,0.0,0.0,0.0,0.0,0.0,0.0,0.0,0.0,0.0,0.0,0.0,0.0,0.0,0.0,0.0,0.0,0.0,0.0,0.0,0.0,0.0,0.0,0.0,0.0,0.0,0.0,0.0,0.0,0.0,0.0,0.0,0.0,0.0,0.0,0.0,0.0,0.0,0.0,0.0,0.0,0.0,0.0,0.0,0.0,0.0,0.0,0.0,0.0,0.0,0.0,0.0,0.0,0.0,0.0,0.0,0.0,0.0,0.0,0.0,0.0,0.0,0.0,0.0,0.0,0.0,0.0,0.0,0.0,0.0,0.0,0.0,0.0,0.0,0.0,0.0,0.0,0.0,0.0,0.0,0.0,0.0,0.0,0.0,0.0,0.0,0.0,0.0,0.0,0.0,0.0,0.0,0.0,0.0,0.0,0.0,0.0,0.0,0.0,0.0,0.0,0.0,0.0,0.0,0.0,0.0,0.0,0.0,0.0,0.0,0.0,0.0,0.0,0.0,0.0,0.0,0.0,0.0,0.0,0.0,0.0,0.0,0.0,0.0,0.0,0.0,0.0,0.0,0.0,0.0,0.0,0.0,0.0,0.0,0.0,0.0,0.0,0.0,0.0,0.0,0.0,0.0,0.0,0.0,0.0,0.0,0.0,0.0,0.0,0.0,0.0,0.0,0.0,0.0,0.0,0.0,0.0,0.0,0.0,0.0,0.0,0.0,0.0,0.0,0.0,0.0,0.0,0.0,0.0,0.0,0.0,0.0,0.0,0.0,0.0,0.0,0.0,0.0,0.0,0.0,0.0,0.0,0.0,0.0,0.0,0.0,0.0,0.0,0.0,0.0,0.0,0.0,0.0,0.0,0.0,0.0,0.0,0.0,0.0,0.0,0.0,0.0,0.0,0.0,0.0,0.0,0.0,0.0,0.0,0.0,0.0,0.0,0.0,0.0,0.0,0.0,0.0,0.0,0.0,0.0,0.0,0.0,0.0,0.0,0.0,0.0,0.0,0.0,0.0,0.0,0.0,0.0,0.0,0.0,0.0,0.0,0.0,0.0,0.0,0.0,0.0,0.0,0.0,0.0,0.0,0.0,0.0,0.0,0.0,0.0,0.0,0.0,0.0,0.0,0.0,0.0,0.0,0.0,0.0,0.0,0.0,0.0,0.0,0.0,0.0,0.0,0.0,0.0,0.0,0.0,0.0,0.0,0.0,0.0,0.0,0.0,0.0,0.0,0.0,0.0,0.0,0.0,0.0,0.0,0.0,0.0,0.0,0.0,0.0,0.0,0.0,0.0,0.0,0.0,0.0,0.0,0.0,0.0,0.0,0.0,0.0,0.0,0.0,0.0,0.0,0.0,0.0,0.0,0.0,0.0,0.0,0.0,0.0,0.0,0.0,0.0,0.0,0.0,0.0,0.0,0.0,0.0,0.0,0.0,0.0,0.0,0.0,0.0,0.0,0.0,0.0,0.0,0.0,0.0,0.0,0.0,0.0,0.0,0.0,0.0,0.0,0.0,0.0,0.0,0.0,0.0,0.0,0.0,0.0,0.0,0.0,0.0,0.0,0.0,0.0,0.0,0.0,0.0,0.0,0.0,0.0,0.0,0.0,0.0,0.0,0.0,0.0,0.0,0.0,0.0,0.0,0.0,0.0,0.0,0.0,0.0,0.0,0.0,0.0,0.0,0.0,0.0,0.0,0.0,0.0,0.0,0.0,0.0,0.0,0.0,0.0,0.0,0.0,0.0,0.0,0.0,0.0,0.0,0.0,0.0,0.0,0.0,0.0,0.0,0.0,0.0,0.0,0.0,0.0,0.0,0.0,0.0,0.0,0.0,0.0,0.0,0.0,0.0,0.0,0.0,0.0,0.0,0.0,0.0,0.0,0.0,0.0,0.0,0.0,0.0,0.0,0.0,0.0,0.0,0.0,0.0,0.0,0.0,0.0,0.0,0.0,0.0,0.0,0.0,0.0,0.0,0.0,0.0,0.0,0.0,0.0,0.0,0.0,0.0,0.0,0.0,0.0,0.0,0.0,0.0,0.0,0.0,0.0,0.0,0.0,0.0,0.0,0.0,0.0,0.0,0.0,0.0,0.0,0.0,0.0,0.0,0.0,0.0,0.0,0.0,0.0,0.0,0.0,0.0,0.0,0.0,0.0,0.0,0.0,0.0,0.0,0.0,0.0,0.0,0.0,0.0,0.0,0.0,0.0,0.0,0.0,0.0,0.0,0.0,0.0,0.0,0.0,0.0,0.0,0.0,0.0,0.0,0.0,0.0,0.0,0.0,0.0,0.0,0.0,0.0,0.0,0.0,0.0,0.0,0.0,0.0,0.0,0.0,0.0,0.0,0.0,0.0,0.0,0.0,0.0,0.0,0.0,0.0,0.0,0.0,0.0,0.0,0.0,0.0,0.0,0.0,0.0,0.0,0.0,0.0,0.0,0.0,0.0,0.0,0.0,0.0,0.0,0.0,0.0,0.0,0.0,0.0,0.0,0.0,0.0,0.0,0.0,0.0,0.0,0.0,0.0,0.0,0.0,0.0,0.0,0.0,0.0,0.0,0.0,0.0,0.0,0.0,0.0,0.0,0.0,0.0,0.0,0.0,0.0,0.0,0.0,0.0,0.0,0.0,0.0,0.0,0.0,0.0,0.0,0.0,0.0,0.0,0.0,0.0,0.0,0.0,0.0,0.0,0.0,0.0,0.0,0.0,0.0,0.0,0.0,0.0,0.0,0.0,0.0,0.0,0.0,0.0,0.0,0.0,0.0,0.0,0.0,0.0,0.0,0.0,0.0,4.8485,0.0,0.0,0.0,0.0,0.0,0.0,0.0,0.0,0.0,0.0,0.0,0.0,0.0,0.0,0.0,0.0,0.0,0.0,0.0,0.0,0.0,0.0,0.0,0.0,0.0,0.0,0.0,0.0,0.0,0.0,0.0,0.0,0.0,0.0,0.0,0.0,0.0,0.0,0.0,4.6112,4.6431,4.6779,4.6411,4.6262,4.6262,0.0,0.0,0.0,0.0,0.0,0.0,0.0,0.0,0.0,0.0,0.0,0.0,0.0,0.0,0.0,0.0,0.0,0.0,0.0,0.0,0.0,0.0,0.0,0.0,0.0,0.0,0.0,0.0,0.0,0.0,0.0,0.0,0.0,0.0,0.0,0.0,0.0,0.0,0.0,0.0,0.0,0.0,0.0,0.0,0.0,0.0,0.0,0.0,0.0,0.0,0.0,0.0,0.0,0.0,0.0,0.0,0.0,0.0,0.0,0.0,0.0,0.0,0.0,0.0,0.0,0.0,0.0,0.0,0.0,0.0,0.0,4.9013,0.0,0.0,0.0,0.0,0.0,0.0,0.0,0.0,0.0,0.0,0.0,0.0,0.0,0.0,0.0,0.0,0.0,0.0,0.0,0.0,0.0,0.0,0.0,0.0,0.0,0.0,0.0,0.0,0.0,0.0,0.0,0.0,0.0,0.0,0.0,4.6121,4.648,4.648,4.7029,4.7309,4.7309,4.7309,4.7309,4.7309,4.7309,0.0,0.0,0.0,0.0,0.0,0.0,0.0,0.0,0.0,0.0,0.0,0.0,0.0,0.0,0.0,0.0,0.0,0.0,0.0,0.0,0.0,0.0,0.0,0.0,0.0,0.0,0.0,0.0,0.0,0.0,0.0,0.0,0.0,0.0,0.0,0.0,0.0,0.0,0.0,0.0,0.0,0.0,0.0,0.0,0.0,0.0,0.0,0.0,0.0,0.0,0.0,0.0,0.0,0.0,0.0,0.0,0.0,0.0,0.0,0.0,0.0,0.0,0.0,4.9636,4.9636,4.9636,4.9636,4.9636,4.9727,5.1095,5.0788,4.9344,0.0,0.0,0.0,0.0,0.0,0.0,0.0,0.0,0.0,0.0,0.0,0.0,0.0,0.0,0.0,0.0,0.0,0.0,0.0,0.0,0.0,0.0,0.0,4.33,4.33,4.3838,4.4187,0.0,0.0,0.0,0.0,0.0,0.0,4.6181,4.682,4.7189,4.7189,4.7268,4.7309,4.7309,4.7309,4.7309,4.7309,4.7309,4.7309,4.7298,0.0,0.0,0.0,0.0,0.0,0.0,0.0,0.0,0.0,0.0,0.0,0.0,0.0,0.0,0.0,0.0,0.0,0.0,0.0,0.0,0.0,0.0,0.0,0.0,0.0,0.0,0.0,0.0,0.0,0.0,0.0,0.0,0.0,0.0,0.0,0.0,0.0,0.0,0.0,0.0,0.0,4.7309,4.7309,0.0,0.0,0.0,0.0,0.0,0.0,0.0,0.0,0.0,0.0,0.0,0.0,0.0,0.0,5.0099,5.0649,5.0948,5.0948,5.0948,5.0948,5.0948,5.0948,5.0948,5.096,5.1162,0.0,4.9299,4.9412,0.0,0.0,0.0,0.0,0.0,0.0,0.0,0.0,0.0,0.0,0.0,0.0,0.0,0.0,0.0,0.0,0.0,0.0,0.0,0.0,0.0,4.3628,4.3878,4.3878,4.4486,4.4855,4.4855,0.0,0.0,0.0,0.0,4.685,4.685,4.7149,4.7309,4.7309,4.7309,4.7309,4.7309,4.7309,4.7309,4.7309,4.7309,4.7309,4.7309,4.7309,0.0,0.0,0.0,0.0,0.0,0.0,0.0,0.0,0.0,0.0,0.0,0.0,0.0,0.0,0.0,0.0,0.0,0.0,0.0,0.0,0.0,0.0,0.0,0.0,0.0,0.0,0.0,0.0,0.0,0.0,0.0,0.0,0.0,0.0,0.0,0.0,0.0,0.0,0.0,4.7608,4.7848,4.7848,4.8468,4.8858,0.0,0.0,0.0,0.0,0.0,0.0,0.0,0.0,0.0,5.0361,5.0619,5.0936,5.1325,5.1606,5.1947,5.2306,5.2306,5.2306,5.2306,5.2306,5.2306,5.2306,5.2306,5.2019,5.1432,5.0672,5.0361,5.0361,0.0,0.0,0.0,0.0,0.0,5.0361,0.0,0.0,0.0,0.0,0.0,0.0,0.0,0.0,0.0,0.0,0.0,0.0,4.3579,4.4147,4.4556,4.4556,4.5185,4.5574,4.5574,4.6191,0.0,0.0,4.7029,4.7309,4.7309,4.7309,4.7309,4.7309,4.7309,4.7309,4.7309,4.7309,4.7309,4.7309,4.7309,4.7309,4.7309,4.7309,4.7309,4.7309,0.0,0.0,0.0,0.0,0.0,0.0,0.0,0.0,0.0,0.0,0.0,0.0,0.0,0.0,0.0,0.0,0.0,0.0,0.0,0.0,0.0,0.0,0.0,0.0,0.0,0.0,0.0,0.0,0.0,0.0,0.0,0.0,0.0,0.0,0.0,0.0,0.0,4.8248,4.8558,4.8558,4.9127,4.9535,0.0,0.0,0.0,0.0,0.0,0.0,5.0697,5.1176,5.1546,5.1696,5.1696,5.1947,5.2456,5.2468,5.2707,5.3198,5.3198,5.3198,5.3198,5.3198,5.3198,5.3198,5.3198,5.3198,5.3126,5.2127,5.1696,5.1696,5.1696,5.1696,5.1696,5.1696,5.1696,5.1696,0.0,0.0,0.0,0.0,0.0,0.0,0.0,0.0,0.0,0.0,0.0,4.4247,4.4247,4.4855,4.5244,4.5244,4.5862,4.6241,4.6241,4.6879,4.7238,4.7238,4.7268,4.7309,4.7309,4.7309,4.7309,4.7309,4.7309,4.7309,4.7309,4.7309,4.7309,4.7309,4.7309,4.7309,4.7309,4.7309,4.7309,4.7309,4.7309,0.0,0.0,0.0,0.0,0.0,0.0,0.0,0.0,0.0,0.0,0.0,0.0,0.0,0.0,0.0,0.0,0.0,0.0,0.0,0.0,0.0,0.0,0.0,0.0,0.0,0.0,0.0,0.0,0.0,0.0,0.0,0.0,0.0,0.0,0.0,0.0,0.0,0.0,4.9258,4.9793,0.0,0.0,0.0,0.0,5.1098,5.1116,5.1427,5.2067,5.2127,5.2438,5.3079,5.3097,5.3109,5.3169,5.3169,5.3169,5.3198,5.3198,5.3198,5.3198,5.3198,5.3198,5.3198,5.3198,5.3198,5.3186,5.3139,5.3097,5.3097,5.3097,5.3097,5.3097,5.3097,5.3097,5.3097,0.0,0.0,0.0,0.0,0.0,0.0,0.0,0.0,0.0,4.3878,4.4147,4.4456,4.4915,4.5533,4.5952,4.5952,4.655,4.6939,4.6939,4.7189,4.7309,4.7309,4.7309,4.7309,4.7309,4.7309,4.7309,4.7309,4.7309,4.7309,4.7309,4.7309,4.7309,4.7309,4.7309,4.7309,4.7309,4.7309,4.7309,4.7309,4.7309,4.7309,0.0,0.0,0.0,0.0,0.0,0.0,0.0,0.0,0.0,0.0,0.0,0.0,0.0,0.0,0.0,0.0,0.0,0.0,0.0,0.0,0.0,0.0,0.0,0.0,0.0,0.0,0.0,0.0,0.0,0.0,0.0,0.0,0.0,0.0,0.0,0.0,0.0,4.9871,5.0458,0.0,5.0847,5.1457,5.1858,5.1858,5.2247,5.2588,5.2827,5.2827,5.2947,5.3198,5.3198,5.3396,5.3832,5.3832,5.4042,5.4473,5.4473,5.4473,5.4473,5.4473,5.4473,5.4473,5.4473,5.4473,5.4473,5.4473,5.3964,5.3198,5.3198,5.3198,5.3198,5.3198,5.3198,5.3198,0.0,0.0,0.0,0.0,0.0,0.0,0.0,0.0,0.0,4.4546,4.4835,4.5134,4.5603,4.6251,4.6629,4.6629,4.7029,4.7309,4.7309,4.7309,4.7309,4.7309,4.7309,4.7309,4.7309,4.7309,4.7309,4.7309,4.7309,4.7309,4.7309,4.7309,4.7309,4.7309,4.7309,4.7309,4.7309,4.7309,4.7309,4.7309,4.7309,4.7309,4.7309,0.0,0.0,0.0,0.0,0.0,0.0,0.0,0.0,0.0,0.0,0.0,0.0,0.0,0.0,0.0,0.0,0.0,0.0,0.0,0.0,0.0,0.0,0.0,0.0,0.0,0.0,0.0,0.0,0.0,0.0,0.0,0.0,0.0,0.0,0.0,5.0626,5.0847,5.1277,5.1636,5.1846,5.2276,5.2558,5.2558,5.2947,5.3306,5.3516,5.3545,5.3635,5.3875,5.3875,5.4084,5.4538,5.476,5.5102,5.5551,5.573,5.585,5.585,5.585,5.585,5.585,5.585,5.585,5.585,5.585,5.5311,5.4473,5.4024,5.3875,5.3875,5.3875,5.3875,5.3875,0.0,0.0,0.0,0.0,0.0,0.0,0.0,4.4337,4.4576,4.5244,4.5892,4.63,4.633,4.6909,4.7309,4.7309,4.7309,4.7309,4.7309,4.7309,4.7309,4.7309,4.7309,4.7309,4.7309,4.7309,4.7309,4.7309,4.7309,4.7309,4.7309,4.7309,4.7309,4.7309,4.7309,4.7309,4.7309,4.7309,4.7309,4.7309,4.7309,4.7309,4.7309,0.0,0.0,0.0,0.0,0.0,0.0,0.0,0.0,0.0,0.0,0.0,0.0,0.0,0.0,0.0,0.0,0.0,0.0,0.0,0.0,0.0,0.0,0.0,0.0,0.0,0.0,0.0,0.0,0.0,0.0,0.0,0.0,0.0,5.1236,5.1247,5.1487,5.2157,5.2217,5.2498,5.3139,5.3216,5.3216,5.3216,5.3258,5.3545,5.4192,5.4239,5.4551,5.5222,5.5251,5.5251,5.5251,5.591,5.6222,5.6222,5.6808,5.7094,5.7094,5.7094,5.7094,5.7094,5.7094,5.7094,5.7094,5.7094,5.7094,5.6974,5.5748,5.5251,5.5251,5.5251,5.5281,5.5281,0.0,0.0,0.0,0.0,0.0,0.0,0.0,4.5035,4.5274,4.5952,4.6181,4.648,4.6969,4.7179,4.7309,4.7309,4.7309,4.7309,4.7309,4.7309,4.7309,4.7309,4.7309,4.7309,4.7309,4.7309,4.7309,4.7309,4.7309,4.7309,4.7309,4.7309,4.7309,4.7309,4.7309,4.7309,4.7309,4.7309,4.7309,4.7309,4.7309,4.7309,4.7309,0.0,0.0,0.0,0.0,0.0,0.0,0.0,0.0,0.0,0.0,0.0,0.0,0.0,0.0,0.0,0.0,0.0,0.0,0.0,0.0,0.0,0.0,0.0,0.0,0.0,0.0,0.0,0.0,0.0,0.0,0.0,0.0,5.2498,5.2007,5.1947,5.2187,5.2857,5.2917,5.3007,5.3186,5.3623,5.3922,5.3922,5.4384,5.4743,5.4922,5.5401,5.573,5.5923,5.6359,5.6598,5.6598,5.6778,5.6838,5.6838,5.7017,5.7094,5.7094,5.7094,5.7094,5.7094,5.7094,5.7094,5.7094,5.7094,5.7094,5.7077,5.6705,5.6598,5.6598,5.6598,5.6885,5.729,0.0,0.0,0.0,0.0,0.0,0.0,0.0,4.5713,4.5952,4.6629,4.6719,4.6879,4.7268,4.7309,4.7309,4.7309,4.7309,4.7309,4.7309,4.7309,4.7309,4.7309,4.7309,4.7309,4.7309,4.7309,4.7309,4.7309,4.7309,4.7309,4.7309,4.7309,4.7309,4.7309,4.7309,4.7309,4.7309,4.7309,4.7309,4.7309,4.7309,4.7309,4.7309,4.7309,4.7309,4.7309,4.7309,4.7309,4.7309,4.7309,0.0,0.0,0.0,0.0,0.0,0.0,0.0,0.0,0.0,0.0,0.0,0.0,0.0,0.0,0.0,0.0,0.0,0.0,0.0,0.0,0.0,0.0,0.0,0.0,5.2947,5.3156,5.3054,5.2797,5.2857,5.3545,5.3635,5.3725,5.3994,5.4371,5.473,5.5012,5.5401,5.573,5.5987,5.6359,5.6568,5.6568,5.6928,5.7244,5.7513,5.7812,5.8095,5.8364,5.865,5.877,5.877,5.877,5.877,0.0,5.877,5.877,5.877,5.877,5.877,0.0,0.0,0.0,0.0,0.0,5.7363,5.7679,0.0,0.0,0.0,0.0,0.0,0.0,0.0,4.642,4.6629,4.7209,4.7309,4.7309,4.7309,4.7309,4.7309,4.7309,4.7309,4.7309,4.7309,4.7309,4.7309,4.7309,4.7309,4.7309,4.7309,4.7309,4.7309,4.7309,4.7309,4.7339,4.7429,4.7429,4.7459,4.7519,4.7519,4.7519,4.7519,4.7519,4.7519,4.7519,4.7519,4.7418,4.7309,4.7309,4.7369,4.7429,4.7429,4.7459,4.7519,4.7519,0.0,0.0,0.0,0.0,0.0,0.0,0.0,0.0,0.0,0.0,0.0,0.0,0.0,0.0,0.0,0.0,0.0,0.0,0.0,0.0,0.0,0.0,0.0,0.0,5.3378,5.3635,5.4221,5.3875,5.3725,5.4251,5.4371,5.467,5.5251,5.5371,5.5671,5.6252,5.6312,5.6551,5.7077,0.0,0.0,0.0,0.0,5.7842,5.8414,5.9026,5.9608,6.022,6.0835,6.109,6.109,6.109,6.109,6.109,6.109,6.109,6.109,6.109,6.109,6.0851,5.8411,5.7436,5.7436,5.7334,5.7363,0.0,0.0,0.0,0.0,0.0,0.0,0.0,0.0,4.7119,4.7149,4.7268,4.7309,4.7309,4.7309,4.7309,4.7309,4.7309,4.7309,4.7309,4.7309,4.7309,4.7309,4.7309,4.7309,4.7309,4.7309,4.7309,4.7309,4.7309,4.7309,4.7578,4.8098,4.8098,4.8397,4.8917,4.8917,4.8917,4.8917,4.8917,4.8917,4.8917,4.8917,4.8278,4.7309,4.7309,4.7638,4.8098,4.8098,4.8468,4.8917,4.8917,4.8917,4.8947,4.9078,4.9108,0.0,0.0,0.0,0.0,0.0,0.0,0.0,0.0,0.0,0.0,0.0,0.0,0.0,0.0,0.0,0.0,0.0,0.0,0.0,5.4012,5.4461,5.4862,5.497,5.5371,5.5474,5.5072,5.5491,5.5863,5.5983,5.6449,5.6778,5.6928,5.6928,5.6987,5.7107,5.8141,0.0,5.871,5.9744,6.0402,6.0521,6.0641,6.0761,6.091,0.0,0.0,6.109,6.109,6.109,6.109,6.109,6.109,6.109,6.109,6.109,6.1,5.9937,5.9532,5.9442,5.8919,5.9069,5.9532,0.0,0.0,0.0,0.0,0.0,0.0,0.0,4.7309,4.7309,4.7309,4.7309,4.7309,4.7309,4.7309,4.7309,4.7309,4.7309,4.7309,4.7309,4.7309,4.7309,4.7309,4.7309,4.7309,4.7309,4.7309,4.7309,4.7309,4.7638,4.7978,4.8308,4.8648,4.8989,4.9288,4.9288,4.9288,4.9288,4.9288,4.9288,4.9288,4.9288,4.8887,4.8308,4.8308,4.8528,4.8798,4.8798,4.9018,4.9288,4.9288,4.9288,4.9348,4.9643,4.9763,4.9823,0.0,0.0,0.0,0.0,0.0,0.0,0.0,0.0,0.0,0.0,0.0,0.0,0.0,0.0,5.3683,5.3683,0.0,5.47,5.47,5.5251,5.57,5.57,5.6252,5.6419,5.5773,5.6239,5.6658,5.6658,5.6928,5.7363,5.8052,5.8112,5.8381,5.9069,5.9757,6.0103,6.0103,6.0761,6.1269,6.1613,6.1613,6.1762,6.2091,6.2091,6.2091,6.2091,6.2091,6.2091,6.2091,6.2091,6.2091,6.2091,6.2091,6.2091,6.2032,6.1357,6.0894,6.0565,6.0222,6.0326,6.0595,0.0,0.0,0.0,0.0,0.0,0.0,0.0,0.0,4.7309,4.7309,4.7309,4.7309,4.7309,4.7309,4.7309,4.7309,4.7309,4.7309,4.7309,4.7309,4.7309,4.7309,4.7309,4.7309,4.7309,4.7309,4.7369,4.7478,4.8038,4.8427,4.8686,4.9206,4.9546,4.9666,4.9666,4.9666,4.9666,4.9666,4.9666,4.9666,4.9666,4.9666,4.9666,4.9666,4.9606,4.9486,4.9486,4.9546,4.9666,4.9666,4.9666,4.9744,5.0249,5.0387,5.0506,5.1026,5.1206,0.0,0.0,0.0,0.0,0.0,0.0,0.0,0.0,5.3306,5.3396,5.3396,5.3935,5.4389,5.4389,5.494,5.5401,5.5401,5.594,5.6372,5.6372,5.6898,5.7154,5.6821,5.7077,5.7363,5.7483,5.7616,5.8171,5.9398,5.9488,5.9953,6.103,6.121,6.1299,6.1299,6.1419,6.1762,6.2285,6.2301,6.2555,6.3108,6.3108,6.3108,6.3108,6.3108,6.3108,6.3108,6.3108,6.3108,6.3108,6.3108,6.3108,6.3048,6.2495,6.1972,6.1449,6.121,6.109,6.109,0.0,0.0,0.0,0.0,0.0,0.0,0.0,0.0,0.0,4.7309,4.7309,4.7309,4.7309,4.7309,4.7309,4.7309,4.7309,4.7309,4.7309,4.7309,4.7309,4.7309,4.7309,4.7309,4.7309,4.7309,4.7578,4.8188,4.8248,4.8895,4.9998,5.0058,5.0428,5.0978,5.0978,5.0978,5.0978,5.0978,5.0978,5.0978,5.0978,5.0978,5.0978,5.0978,5.0619,5.0088,5.0088,5.0488,5.0978,5.0978,5.0978,5.1008,5.1056,5.1086,5.1086,5.1187,5.1206,5.1337,5.1947,5.2516,5.2977,5.3067,5.3109,5.3097,0.0,5.3665,5.4089,5.4089,5.461,5.5102,5.5102,5.5641,5.6102,5.6102,5.6598,5.7017,5.7017,5.7573,5.8188,5.871,5.8308,5.8218,5.883,5.9398,6.0057,6.0821,6.088,6.094,6.109,6.1672,6.2002,6.2002,6.2555,6.2914,6.2988,6.2988,6.3048,6.3108,6.3108,6.3108,6.3108,6.3108,6.3108,6.3108,6.3108,6.3108,6.3108,6.3108,6.3108,6.3108,6.3018,6.2944,6.2734,6.1553,6.109,6.109,0.0,0.0,0.0,0.0,0.0,0.0,0.0,0.0,0.0,0.0,4.7309,4.7309,4.7309,4.7309,4.7309,4.7309,4.7309,4.7309,4.7309,4.7309,4.7309,4.7309,4.7309,4.7309,4.7309,4.7668,4.8038,4.8308,4.9045,4.968,5.0207,5.0596,5.0936,5.1206,5.1206,5.1206,5.1206,5.1206,5.1206,5.1206,5.1206,5.1206,5.1194,5.1023,5.0897,5.0775,5.0775,5.0966,0.0,5.1206,5.1206,5.1206,5.1206,5.1206,5.1277,5.1666,5.1786,5.1947,5.2618,5.2977,5.3276,5.3683,5.3773,5.3892,5.4264,5.4593,5.479,5.479,5.5311,5.588,5.6239,5.6539,5.6838,5.7244,5.75,5.7679,5.7679,5.859,5.9368,5.9638,5.9774,5.9953,6.0222,6.0535,6.0954,6.1642,6.1658,6.1852,6.2255,6.2525,6.2674,6.2674,6.2944,6.3108,6.3108,6.3108,6.3108,6.3108,6.3108,6.3108,6.3108,6.3108,6.3108,6.3108,6.3108,6.3108,6.3108,6.3108,6.3108,6.3108,6.3108,6.3108,6.3033,6.2465,6.2241,6.2241,0.0,0.0,0.0,0.0,0.0,0.0,0.0,0.0,0.0,0.0,0.0,4.7309,4.7309,4.7309,4.7309,4.7309,4.7309,4.7309,4.7309,4.7309,4.7309,4.7309,4.7309,4.7309,4.7309,4.7978,4.8409,4.8588,4.9662,5.0297,5.0476,5.0966,5.1206,5.1206,5.1206,5.1206,5.1206,5.1105,5.1082,5.1082,5.1082,5.1082,5.107,5.0964,5.0976,5.1082,5.1082,5.1129,5.1206,5.1206,5.1206,5.1206,5.1206,5.1337,5.1576,5.2067,5.2456,5.2845,5.3336,5.3605,5.3875,5.4341,5.4491,5.461,5.5102,5.5192,5.5311,5.5641,5.6119,5.6628,5.7274,5.7543,5.7752,5.8068,5.8278,5.8457,5.8637,5.9488,6.025,6.0609,6.1074,6.1449,6.1628,6.1479,6.1642,6.2345,6.2375,6.2584,6.3063,6.3108,6.3108,6.3108,6.3108,6.3108,6.3108,6.3108,6.3108,6.3108,6.3108,6.3108,6.3108,6.3108,6.3108,6.3108,6.3108,6.3108,6.3108,6.3108,6.3108,6.3108,6.3108,6.3108,6.3108,6.3108,6.3108,6.3108,0.0,0.0,0.0,0.0,0.0,0.0,0.0,0.0,0.0,0.0,0.0,0.0,0.0,4.7309,4.7309,4.7309,4.7309,4.7309,4.7309,4.7309,4.7309,4.7309,4.7309,4.7309,4.7309,4.7978,4.8618,4.9258,4.989,5.0536,5.1176,5.1176,5.1206,5.1206,5.1206,5.1206,5.1194,5.0929,5.0793,5.0793,5.0793,5.0793,5.0858,5.1082,5.1023,5.0793,5.0793,5.0976,5.1206,5.1206,5.1206,5.1206,5.1206,5.1636,5.2187,5.2187,5.3114,5.4149,5.4149,5.464,5.5132,5.5162,5.5162,5.5162,5.5192,5.5192,5.5538,5.6795,5.7077,5.7274,5.7949,5.8607,5.8816,5.8205,5.8637,5.9308,5.9951,6.007,6.0579,6.1882,6.2076,6.2345,0.0,6.2465,6.2345,6.3003,6.3063,6.3078,6.3108,6.3108,6.3108,6.3108,6.3108,6.3108,6.3108,6.3108,6.3108,6.3108,6.3108,6.3108,6.3108,6.3108,6.3108,6.3108,6.3108,6.3108,6.3108,6.3108,6.3108,6.3108,6.3108,6.3108,6.3108,6.3108,6.3108,6.3108,0.0,0.0,0.0,0.0,0.0,0.0,0.0,0.0,0.0,0.0,0.0,0.0,0.0,0.0,0.0,0.0,4.7309,4.7309,4.7309,4.7309,4.7309,4.7309,4.7309,4.7519,4.7948,4.8618,4.9265,4.9901,5.0548,5.0966,5.1206,5.1206,5.1206,5.1206,5.1011,5.0941,5.0917,5.071,5.0602,5.0602,5.0602,5.0602,5.0591,5.0507,5.0519,5.0602,0.0,5.065,5.0769,5.11,5.107,5.1024,5.1679,5.2007,5.2366,5.3264,5.4162,5.485,5.485,5.5042,5.5192,5.5192,5.5192,5.5192,5.5192,5.585,5.6598,5.7004,5.7812,5.862,5.9308,5.9249,5.9189,5.9398,5.9621,5.9749,5.9767,6.0739,6.1512,6.1731,6.2366,0.0,0.0,0.0,0.0,6.3063,6.3108,6.3108,6.3108,6.3108,6.3108,6.3108,6.3108,6.3108,6.3108,6.3108,6.3108,6.3108,6.3512,6.3917,6.4351,6.4351,6.4351,6.4351,6.4351,6.4126,6.3692,6.3692,6.3452,6.3108,6.3108,6.3108,6.3108,6.3108,6.3108,6.3108,0.0,0.0,0.0,0.0,0.0,0.0,0.0,0.0,0.0,0.0,0.0,0.0,0.0,0.0,0.0,0.0,0.0,4.7309,4.7309,4.7309,4.7309,4.7309,4.7519,4.7815,4.8156,4.9131,4.9777,5.0092,5.0842,5.1206,5.1206,5.1206,5.1141,5.1047,5.0893,5.0781,5.0799,5.0483,5.0417,5.0489,5.0405,5.0369,5.0357,5.0255,5.0279,0.0,5.0543,5.0435,5.0315,5.0982,5.119,5.1274,5.1983,5.2546,5.3108,5.3985,5.4636,5.507,5.507,5.4964,5.4938,5.5141,5.5385,5.5641,5.5829,5.6627,5.7484,5.8038,5.865,5.9308,5.998,5.9741,5.9608,6.004,6.01,6.0139,6.0282,6.1226,6.188,6.1801,6.2332,6.273,0.0,0.0,0.0,6.292,6.3036,6.305,6.2934,6.292,6.2978,6.3108,6.3231,6.3248,6.3248,6.3487,6.3548,6.343,6.3935,6.4397,6.4845,6.4949,6.4994,6.4994,6.4994,6.477,6.4351,6.4351,6.4126,6.3767,6.3767,6.3767,6.3767,6.3767,6.3767,6.3707,0.0,0.0,0.0,0.0,0.0,0.0,0.0,0.0,0.0,0.0,0.0,0.0,0.0,0.0,0.0,0.0,0.0,0.0,4.7309,4.7309,4.7309,4.7309,4.7927,4.8186,4.7952,4.9424,5.0122,4.9943,5.0801,5.1206,5.1206,5.1206,5.1035,5.0781,5.0757,5.0775,5.0722,5.0262,5.0219,5.0441,5.0171,5.0074,5.011,5.0369,5.0309,5.0147,5.0597,5.0322,4.9863,5.0894,5.1536,5.1946,5.2222,5.3204,5.4259,5.4319,5.4564,5.4828,5.4803,5.4581,5.4487,5.5057,5.5773,5.6428,5.6924,5.7441,5.8213,5.9719,5.955,5.9298,5.998,6.0073,6.0059,6.0086,6.0133,6.0486,6.1455,6.159,6.1728,6.2028,6.2101,6.2101,0.0,0.0,0.0,6.2616,0.0,6.2934,6.2645,6.263,6.2776,6.314,6.343,6.3595,6.3535,6.4144,6.432,6.4061,6.4365,6.4545,6.459,6.4905,6.5039,6.5039,6.5039,6.5039,6.5009,6.5009,6.4979,6.4949,6.4949,6.4949,6.4949,6.4964,6.4964,6.48,0.0,0.0,0.0,0.0,0.0,0.0,0.0,0.0,0.0,0.0,0.0,0.0,0.0,0.0,0.0,0.0,0.0,0.0,4.7309,4.7309,4.7309,4.7309,4.7743,4.8216,4.8643,4.9514,5.0168,5.0585,5.0999,5.1206,5.1206,5.0999,5.0881,5.0769,5.043,5.0291,5.0267,4.9953,4.9827,4.9917,4.9815,4.979,4.9803,4.9892,4.9868,4.9827,5.0171,5.0171,5.0157,5.1272,5.2386,5.335,5.3597,5.4281,5.4944,5.4968,5.5027,5.504,5.4866,5.4751,5.4776,5.5173,5.5798,5.6351,5.6468,5.7683,5.8847,5.903,5.9128,5.9367,5.9988,5.9727,5.9575,6.0031,6.0532,6.0932,6.1185,6.1658,6.191,6.1747,6.1939,6.2101,6.2101,6.2175,0.0,0.0,6.2676,6.2793,6.2972,6.2987,6.3223,6.3741,6.3844,6.3902,6.3858,6.4035,6.4329,6.474,6.4816,6.5128,6.5615,6.5692,6.5739,6.5739,6.5739,6.5443,6.5014,6.5014,6.4703,6.4244,6.4244,6.4244,6.429,6.4531,6.4636,6.4636,0.0,0.0,0.0,0.0,0.0,0.0,0.0,0.0,0.0,0.0,0.0,0.0,0.0,0.0,0.0,0.0,0.0,0.0,0.0,4.7309,4.7309,4.7309,4.7817,4.8321,4.888,4.9637,5.0245,5.0686,5.0905,5.0964,5.0888,5.0745,5.0597,5.0477,5.0231,5.0098,5.0074,4.9803,4.9754,0.0,0.0,4.9693,4.9693,4.9693,4.9693,4.973,5.0002,5.054,5.1226,5.1983,5.3005,5.404,5.4363,5.4809,5.5116,5.476,5.4824,5.4913,5.4517,5.4414,5.4608,5.5529,5.6035,5.6559,5.7376,5.8306,5.8983,5.892,5.8835,5.8955,5.9585,5.9421,5.9488,6.0402,6.0858,6.1144,6.1307,6.163,6.1762,6.1464,6.1583,6.1702,6.1702,6.2085,6.2333,0.0,6.266,6.2957,6.329,6.3334,6.3542,6.4002,6.413,6.4347,6.4656,6.4501,6.4615,6.5011,6.5138,6.5422,6.5804,6.5929,6.5992,6.5992,0.0,6.5785,6.5447,6.5447,6.5225,6.4886,6.4886,6.4886,6.4887,6.5087,6.5148,6.5179,0.0,0.0,0.0,0.0,0.0,0.0,0.0,0.0,0.0,0.0,0.0,0.0,0.0,0.0,0.0,0.0,0.0,0.0,0.0,0.0,4.7309,4.7309,4.7883,4.8417,4.888,4.966,5.0199,5.0501,5.0656,5.0686,5.0501,5.0465,5.0333,5.0098,5.0062,5.005,5.0038,4.979,4.9815,5.0038,4.9778,4.9693,4.9693,0.0,4.9693,4.973,5.0002,5.1053,5.2392,5.2665,5.3441,5.4361,5.4739,5.5006,5.4989,5.4243,5.4375,5.4607,5.4049,5.4023,5.4485,5.5827,5.6412,5.7052,5.8592,5.8787,5.8731,5.8952,5.8583,5.8422,5.9081,5.926,5.9732,6.0923,6.113,6.1234,6.1555,6.1569,6.1449,6.1223,6.1193,6.1222,6.1309,6.206,6.2485,6.2356,6.2886,6.3347,6.3658,6.3656,6.3795,6.413,6.4396,6.487,6.5544,6.5272,6.5141,6.5244,6.5548,6.5691,6.5707,6.5976,6.6131,6.6131,0.0,0.0,6.6131,6.6131,6.6131,6.6131,6.6131,6.6131,6.6131,6.6178,6.6194,6.6194,0.0,0.0,0.0,0.0,0.0,0.0,0.0,0.0,0.0,0.0,0.0,0.0,0.0,0.0,0.0,0.0,0.0,0.0,0.0,0.0,0.0,4.7309,4.7529,4.8035,4.8869,4.9156,4.9687,5.0501,5.0548,5.0548,5.0501,5.0255,5.0135,5.0086,4.988,4.9754,4.9754,4.9717,4.9717,4.9754,4.9717,4.9693,4.9693,4.9693,0.0,0.0,5.0002,5.0942,5.2117,5.238,5.3452,5.4756,5.5023,5.5019,5.4841,5.47,5.4513,5.4304,5.3997,5.4666,5.5461,5.5535,5.6763,5.7898,5.7692,5.8027,5.8316,5.8072,5.8165,5.8473,5.9085,5.9653,6.0268,6.0983,6.116,6.1272,6.1554,6.1419,6.1253,6.1208,6.1193,6.1396,6.189,6.2096,0.0,0.0,6.3797,6.3857,6.3927,6.394,6.422,6.4822,6.4891,6.5192,6.5815,6.5751,6.6025,6.658,6.6616,6.6678,6.6678,6.6727,6.6759,6.6759,0.0,0.0,6.6759,6.6759,6.6759,6.6759,6.6759,6.6759,6.6792,6.7052,6.7178,6.721,0.0,0.0,0.0,0.0,0.0,0.0,0.0,0.0,0.0,0.0,4.7309,4.7309,0.0,0.0,0.0,0.0,0.0,0.0,0.0,0.0,0.0,0.0,4.7368,4.7692,4.8387,4.877,4.9233,4.978,0.0,5.0207,5.0074,4.9953,4.9905,4.9905,4.9754,4.9693,4.9693,4.9693,4.9693,4.9693,4.9693,4.9693,4.9693,0.0,0.0,0.0,5.0002,5.0918,5.2026,5.2305,5.3347,5.4551,5.4692,5.4773,5.4751,5.4427,5.432,5.4302,5.4223,5.4765,5.5506,5.6211,5.6868,5.739,5.7739,5.7797,5.7723,5.7587,5.7954,5.8492,5.9128,5.9757,6.0411,6.1056,6.1184,6.1253,6.1374,6.1298,6.1193,6.1193,6.1483,6.1774,6.2064,6.2703,6.3339,6.3933,6.4313,6.4516,6.4516,6.4835,6.5154,6.5444,6.5809,6.6144,6.6418,6.6418,6.6593,6.6899,6.6899,6.6899,6.6899,6.6899,6.6899,6.6899,6.6899,0.0,6.7422,6.7422,6.7625,6.7899,6.7899,6.7899,6.7857,6.7704,6.7653,6.764,0.0,0.0,0.0,0.0,0.0,0.0,0.0,4.7309,4.7309,4.7309,4.7309,4.7309,4.7309,4.7309,0.0,0.0,0.0,0.0,0.0,0.0,0.0,0.0,0.0,0.0,4.7971,0.0,0.0,4.9198,4.9594,0.0,0.0,0.0,0.0,0.0,4.9693,4.9693,4.9693,4.9693,4.9693,0.0,0.0,4.9693,0.0,0.0,0.0,0.0,0.0,5.0832,5.1967,5.2155,5.312,5.42,5.4149,5.4346,5.4504,5.4049,5.4006,5.4166,5.442,5.4838,5.5513,5.6807,5.6955,5.7042,5.7884,5.7681,5.7332,5.7463,5.8058,5.8726,5.9364,6.0003,6.0584,6.1106,6.1193,6.1193,6.1193,6.1193,6.1193,6.1193,6.1716,6.2166,6.2296,6.3355,6.4123,6.4384,6.5025,0.0,6.5199,6.5764,6.617,6.6315,6.6709,6.7015,6.7306,6.719,6.719,6.7289,6.7289,6.7289,6.7289,6.7289,6.7289,6.7289,6.7289,0.0,0.0,6.809,6.8363,6.8794,6.8794,6.8794,6.8753,6.8276,6.809,6.8015,0.0,0.0,0.0,0.0,0.0,0.0,0.0,4.7309,4.7309,4.7309,4.7309,4.7309,4.7309,4.7309,0.0,0.0,0.0,0.0,0.0,0.0,0.0,0.0,0.0,0.0,0.0,0.0,0.0,4.9445,4.9049,0.0,0.0,0.0,0.0,0.0,0.0,4.9693,4.9693,4.9693,0.0,0.0,0.0,0.0,0.0,0.0,0.0,0.0,0.0,5.056,5.1639,5.1664,5.2687,5.3906,5.3645,5.3762,5.3984,5.3932,5.3749,5.3698,5.4342,5.5372,5.6315,5.6461,5.7303,5.8,5.7507,5.7332,5.7477,5.8087,5.8755,5.9393,6.0003,6.0642,6.1135,6.1193,6.1193,6.1193,6.1193,6.1193,6.1193,6.1193,6.1716,6.2325,6.295,6.3616,6.4471,6.5631,6.636,0.0,6.5851,6.6447,6.7103,6.7712,6.719,6.7463,6.8608,6.8073,6.8073,6.8637,6.8637,6.8637,6.8637,6.8637,6.8637,6.8637,0.0,0.0,0.0,6.8724,6.8753,6.8794,6.8794,6.8794,6.8794,6.8753,6.8724,6.8724,0.0,0.0,0.0,0.0,0.0,0.0,0.0,4.7309,4.7309,4.7309,4.7309,4.7309,4.7309,4.7309,4.7309,0.0,0.0,0.0,0.0,0.0,0.0,0.0,0.0,0.0,0.0,0.0,4.7584,4.787,4.8599,0.0,0.0,0.0,0.0,0.0,0.0,4.9693,4.9693,4.9693,0.0,0.0,0.0,0.0,0.0,0.0,0.0,0.0,0.0,0.0,5.1588,5.1588,5.252,5.3645,5.3514,5.3566,5.3658,5.3658,5.3566,5.372,5.4764,5.5403,5.5983,5.6752,5.7332,5.7623,5.7361,5.7303,5.7507,5.8174,5.8842,5.948,6.009,6.0758,6.1193,6.1193,6.1193,6.1193,6.1193,6.1193,6.1193,6.1193,6.2108,6.279,6.308,6.4009,6.4951,6.5834,6.6883,0.0,6.7115,6.7364,6.7799,6.8421,6.8172,6.8289,6.8794,6.855,6.855,6.8794,6.8794,6.8794,6.8794,6.8794,6.8794,6.8794,6.8794,0.0,0.0,6.9408,6.9641,6.9943,6.9943,6.9943,6.9914,6.9554,6.9408,6.935,0.0,0.0,0.0,0.0,0.0,0.0,4.7309,4.7309,4.7309,4.7309,4.7309,4.7309,4.7309,4.7309,4.7309,4.7309,0.0,0.0,0.0,0.0,0.0,0.0,0.0,0.0,0.0,0.0,4.7267,4.7007,4.8045,4.8623,0.0,0.0,4.9579,4.9693,0.0,0.0,0.0,0.0,0.0,0.0,0.0,0.0,0.0,0.0,0.0,0.0,0.0,0.0,0.0,0.0,0.0,5.3487,5.3487,5.3487,5.3487,5.3487,5.3632,5.4039,5.5113,5.5548,5.5954,5.7042,5.7303,5.7303,5.7303,5.7303,5.7565,5.8406,5.8958,5.9539,6.0351,6.0874,6.1193,6.1193,6.1193,6.1193,6.1193,6.1193,6.128,6.1425,6.2412,6.3167,6.3341,6.4722,6.5809,6.6431,6.7522,0.0,6.8438,6.8264,6.845,6.9072,6.8898,6.8898,6.9101,6.8898,6.8794,6.8794,6.8794,6.8794,6.8794,6.8794,6.8794,6.8794,0.0,0.0,0.0,6.9513,6.9757,7.0146,7.0146,6.9858,6.939,6.8976,6.8544,6.8094,0.0,0.0,0.0,0.0,0.0,0.0,0.0,4.7309,4.7309,4.7309,4.7309,4.7309,4.7309,4.7309,4.7309,4.7309,0.0,0.0,0.0,0.0,0.0,0.0,0.0,0.0,0.0,0.0,0.0,4.7485,4.731,4.7869,4.9085,4.9085,4.9316,4.9705,0.0,0.0,0.0,0.0,0.0,0.0,0.0,0.0,0.0,0.0,0.0,0.0,0.0,0.0,0.0,0.0,0.0,0.0,0.0,5.3487,5.3487,5.3487,5.3981,5.4619,5.5229,5.5867,5.6549,5.7158,5.7303,5.7303,5.7303,5.7303,5.7681,5.9016,5.9306,5.9684,6.0961,6.1193,6.1193,6.1193,6.1193,6.1193,6.1193,6.1193,6.1425,6.2006,6.2689,6.3341,6.392,6.5751,6.7161,6.7828,6.8434,0.0,6.9745,6.9147,6.9101,6.9774,6.9147,6.9118,6.9774,6.913,6.8794,6.8794,6.8794,6.8794,6.8794,6.8794,6.8794,0.0,0.0,0.0,0.0,6.8794,6.8794,6.8823,6.8823,6.7885,6.6546,6.6546,6.5583,6.4265,0.0,0.0,0.0,0.0,0.0,0.0,0.0,4.7309,4.7309,4.7309,4.7309,4.7309,4.7309,4.7309,4.7309,4.7309,0.0,0.0,0.0,0.0,0.0,0.0,0.0,0.0,0.0,0.0,0.0,0.0,0.0,4.755,4.781,4.8676,4.9167,4.9311,4.9857,4.9953,0.0,0.0,0.0,0.0,0.0,0.0,0.0,0.0,0.0,0.0,0.0,0.0,0.0,0.0,0.0,0.0,0.0,0.0,0.0,5.3487,5.3981,5.4619,5.5242,5.5896,5.6535,5.7158,5.7303,5.7303,5.7303,5.7303,5.7681,5.9016,5.9306,5.9684,6.0961,6.1193,6.1193,6.1193,6.1193,6.1193,6.1193,6.1193,6.1425,6.2035,6.3065,6.4123,6.5196,6.6273,6.719,6.7857,6.8463,0.0,6.9118,6.8927,6.9101,6.9774,6.9147,6.8898,6.9101,6.8898,6.8794,6.8794,6.8794,6.8256,6.7225,6.7225,0.0,0.0,0.0,0.0,0.0,6.5644,6.5644,6.5644,6.5644,6.536,6.4931,6.4931,6.4626,6.4183,0.0,0.0,0.0,0.0,0.0,0.0,0.0,4.7309,4.7309,4.7309,4.7309,4.7309,4.7309,4.7309,4.7309,4.7309,0.0,0.0,0.0,0.0,0.0,0.0,0.0,0.0,0.0,0.0,0.0,0.0,0.0,0.0,0.0,0.0,4.8863,4.9126,4.9902,5.005,0.0,0.0,0.0,0.0,0.0,0.0,4.988,0.0,0.0,0.0,0.0,0.0,0.0,0.0,0.0,0.0,0.0,0.0,0.0,0.0,5.4126,5.4909,5.5287,5.6055,5.6839,5.7216,5.7303,5.7303,5.7303,5.7507,5.8,5.9074,5.948,5.9974,6.1019,6.1193,6.1193,6.1193,6.1193,6.1193,6.1193,6.1193,6.1513,6.2399,6.379,6.5138,6.617,6.6883,6.7538,6.8189,0.0,0.0,6.8794,6.8256,6.8125,6.8544,6.8713,6.8794,6.8794,6.821,6.7936,6.7936,6.7357,6.6553,6.5627,6.5627,0.0,0.0,0.0,0.0,0.0,6.4183,6.4183,6.4183,6.4183,6.3847,6.3272,6.3272,6.2931,6.2431,0.0,0.0,0.0,0.0,0.0,0.0,0.0,0.0,0.0,0.0,4.7309,4.7309,4.7309,4.7309,4.7309,0.0,0.0,0.0,0.0,0.0,0.0,0.0,0.0,0.0,0.0,0.0,0.0,4.6613,4.6613,4.6915,4.746,0.0,0.0,4.9103,5.0069,5.0219,0.0,0.0,0.0,0.0,0.0,0.0,0.0,0.0,0.0,0.0,0.0,0.0,0.0,0.0,0.0,0.0,0.0,0.0,0.0,0.0,0.0,0.0,0.0,5.6345,5.7303,5.7303,5.7303,5.7303,5.7303,5.7826,0.0,5.9161,5.9771,6.0409,6.1077,6.1193,6.1193,6.1193,6.1193,6.1193,6.1193,6.128,6.1803,6.308,6.4806,6.617,6.6899,6.7538,6.8131,6.8753,0.0,0.0,6.8659,6.7155,6.6342,6.6342,6.7747,6.8477,6.8477,6.7051,6.6342,6.6325,6.4895,6.4129,6.402,6.402,0.0,0.0,0.0,0.0,0.0,6.3857,6.3857,6.3857,6.3857,6.2949,6.1636,6.1636,6.0736,5.9483,0.0,0.0,0.0,0.0,0.0,0.0,0.0,0.0,0.0,0.0,0.0,4.7309,4.7309,4.7309,0.0,0.0,0.0,0.0,0.0,0.0,0.0,0.0,0.0,0.0,0.0,0.0,0.0,4.6833,4.6833,4.6911,4.7048,4.7965,0.0,0.0,0.0,0.0,0.0,0.0,0.0,0.0,0.0,0.0,0.0,0.0,0.0,0.0,5.1748,5.218,0.0,0.0,0.0,0.0,0.0,0.0,0.0,0.0,5.4387,5.5403,5.5403,0.0,5.7303,5.7303,5.7303,5.7303,0.0,5.7826,5.8493,5.9161,5.9771,6.0409,6.1077,6.1193,6.1193,6.1193,6.1193,6.1193,6.1193,6.2035,6.3125,6.4402,6.5357,6.6373,6.7538,6.7799,6.8131,6.8753,0.0,6.7034,6.7034,6.5573,6.4752,6.4752,6.5092,6.5271,6.5271,6.4931,6.4752,6.4752,6.4364,6.3574,6.2357,6.2357,0.0,0.0,0.0,0.0,6.0603,6.0603,6.0603,6.0603,6.0603,6.038,6.0035,6.0035,5.9811,5.9483,0.0,0.0,0.0,0.0,0.0,0.0,0.0,0.0,0.0,0.0,0.0,0.0,0.0,0.0,0.0,0.0,0.0,0.0,0.0,0.0,0.0,0.0,0.0,0.0,0.0,0.0,0.0,0.0,0.0,4.7058,0.0,0.0,0.0,0.0,0.0,0.0,0.0,0.0,0.0,0.0,5.0519,0.0,0.0,0.0,0.0,0.0,5.2019,5.2504,0.0,5.3708,5.42,5.4226,0.0,0.0,0.0,0.0,5.4648,5.5461,5.578,5.6578,5.7303,5.7303,5.7303,5.7303,5.7303,5.8058,5.8871,5.9219,6.0032,6.0758,6.1135,6.1193,6.1193,6.1193,6.1193,6.1309,6.1571,6.247,6.3589,6.4838,6.5809,6.6475,0.0,6.7716,6.7864,6.678,0.0,6.6184,6.5484,6.3929,6.3115,6.3115,6.2413,6.2746,6.4183,6.3455,6.3115,6.3097,6.2376,6.1598,6.0736,6.0736,6.0304,0.0,0.0,0.0,5.9483,5.9483,5.9483,5.9483,5.9483,5.9483,5.9483,5.9483,5.9483,5.9483,0.0,0.0,0.0,0.0,0.0,0.0,0.0,0.0,0.0,0.0,0.0,0.0,0.0,0.0,0.0,0.0,0.0,0.0,0.0,0.0,0.0,0.0,0.0,0.0,0.0,0.0,0.0,0.0,0.0,0.0,0.0,0.0,4.8846,0.0,0.0,0.0,0.0,0.0,0.0,0.0,5.0483,0.0,0.0,0.0,0.0,0.0,0.0,0.0,0.0,5.3767,5.4136,5.4213,5.3723,0.0,0.0,0.0,0.0,0.0,5.6215,5.6839,5.7303,5.7303,5.7303,5.7303,5.7303,5.8348,5.9306,5.9306,6.0322,6.1193,6.1193,6.1193,6.1193,6.1193,6.1193,6.1454,6.2151,6.2562,6.3383,6.5096,6.5856,6.6084,6.5698,6.7119,6.7017,0.0,0.0,6.5217,6.3893,6.232,6.1448,6.1448,6.017,6.0825,6.3571,6.2168,6.1448,6.1429,6.0214,5.9608,5.9633,5.9709,5.9759,0.0,0.0,0.0,5.9759,5.9759,5.9759,5.9759,5.9759,5.9759,5.9759,5.9759,5.9759,5.9759,0.0,0.0,0.0,0.0,0.0,0.0,0.0,0.0,0.0,0.0,0.0,0.0,0.0,0.0,0.0,0.0,0.0,0.0,0.0,0.0,0.0,0.0,0.0,0.0,0.0,0.0,0.0,0.0,0.0,0.0,4.9101,4.9461,4.9957,0.0,0.0,0.0,0.0,0.0,0.0,0.0,5.0964,0.0,0.0,0.0,0.0,0.0,0.0,0.0,0.0,5.437,5.45,5.4252,5.3929,0.0,0.0,0.0,0.0,0.0,5.6215,5.6839,5.7303,5.7303,5.7303,5.7303,5.7303,5.8348,5.9306,5.9306,6.0322,6.1193,6.1193,6.1193,6.1193,6.1193,6.1193,6.16,6.2776,6.1965,6.2562,6.6188,6.4516,6.3943,6.6142,6.5465,6.4716,0.0,0.0,6.2413,6.2171,6.0698,5.9869,5.9869,5.9618,5.9961,6.0875,6.0212,5.9869,5.9869,6.0077,6.0166,6.0191,6.0708,6.0934,0.0,0.0,6.0934,6.0934,6.0934,6.0934,6.0934,6.0934,6.0934,6.0934,6.0934,6.0934,6.0934,0.0,0.0,0.0,0.0,0.0,0.0,0.0,0.0,0.0,0.0,0.0,0.0,0.0,0.0,0.0,0.0,0.0,0.0,0.0,0.0,0.0,0.0,4.8558,0.0,0.0,0.0,0.0,0.0,0.0,4.9176,4.9781,5.0196,5.0277,5.0129,0.0,0.0,0.0,0.0,0.0,0.0,0.0,0.0,0.0,0.0,0.0,0.0,0.0,0.0,0.0,0.0,5.4436,5.4278,5.4149,0.0,0.0,0.0,0.0,0.0,5.6636,5.71,5.7303,5.7303,5.7303,5.7376,5.7768,5.861,5.9393,5.9713,6.0526,6.1193,6.1193,6.1193,6.1193,6.1193,6.1454,6.2006,6.2979,6.2117,6.2436,0.0,0.0,6.2819,6.3858,6.412,0.0,0.0,0.0,0.0,6.0584,5.9907,5.9483,5.9483,5.9784,6.0041,6.0292,6.0387,6.0431,6.0431,6.0663,6.0788,6.0788,6.1085,6.1361,6.1617,0.0,6.1793,6.2069,6.2069,6.2069,6.2069,6.2069,6.2069,6.2069,6.2069,6.2069,6.2069,0.0,0.0,0.0,0.0,0.0,0.0,0.0,0.0,0.0,0.0,0.0,0.0,0.0,0.0,0.0,0.0,0.0,0.0,0.0,0.0,4.9378,4.9516,4.9505,4.9426,0.0,0.0,4.9366,4.9505,4.9505,4.9823,5.0446,5.0749,5.0543,0.0,0.0,0.0,0.0,0.0,0.0,0.0,0.0,0.0,0.0,0.0,0.0,0.0,0.0,0.0,0.0,0.0,0.0,0.0,0.0,0.0,0.0,5.5338,5.5667,5.5867,5.7013,5.7303,5.7303,5.7303,5.7303,5.7477,5.8145,5.8813,5.948,6.009,6.0729,6.1193,6.1193,6.1193,6.1193,6.1193,6.1413,6.182,6.2498,6.167,6.1741,6.3835,6.2572,6.1614,6.1775,0.0,0.0,0.0,0.0,0.0,5.956,5.9483,5.9558,5.9684,6.0111,6.0417,6.0693,6.1291,6.1461,6.121,6.1441,6.1567,6.1567,6.1863,6.219,6.2596,6.2596,6.2822,6.3178,6.3178,6.3178,6.3178,6.3178,6.3178,6.3178,6.3178,6.3178,6.3178,0.0,0.0,0.0,0.0,0.0,0.0,0.0,0.0,0.0,0.0,0.0,0.0,0.0,0.0,0.0,0.0,0.0,0.0,0.0,0.0,4.9535,5.0117,5.0147,4.9871,0.0,4.9288,4.9565,5.0147,5.0147,5.0488,5.1116,5.1164,5.1141,5.1069,0.0,0.0,0.0,0.0,0.0,0.0,0.0,0.0,0.0,0.0,0.0,0.0,0.0,0.0,0.0,0.0,0.0,0.0,0.0,0.0,5.4879,5.5308,5.5866,5.6477,5.7129,5.7303,5.7303,5.7303,5.7303,5.7477,5.8145,5.8813,5.948,6.009,6.0729,6.1193,6.1193,6.1193,6.1193,6.1193,6.0571,6.0292,6.0959,0.0,5.9546,6.2248,6.043,5.9705,0.0,0.0,0.0,0.0,0.0,0.0,5.9502,5.9483,5.9734,6.0217,6.0267,6.0794,6.1868,6.24,6.2195,6.121,6.2199,6.2701,6.2727,6.3797,6.4274,6.43,6.43,6.4325,6.4396,6.4396,6.4396,6.4396,6.4396,6.4396,6.4396,6.4396,6.4396,6.4396,0.0,0.0,0.0,0.0,0.0,0.0,0.0,0.0,0.0,0.0,0.0,0.0,0.0,0.0,0.0,0.0,0.0,0.0,0.0,0.0,5.0589,5.0817,5.0817,5.0709,5.0481,5.0481,5.0589,5.0817,5.0817,5.0936,5.1206,5.1206,0.0,0.0,0.0,0.0,0.0,0.0,0.0,0.0,0.0,0.0,0.0,0.0,0.0,0.0,0.0,0.0,0.0,0.0,5.4449,5.4632,5.4696,5.4805,5.5031,5.5741,5.6184,5.6535,5.7129,5.7303,5.7303,5.7303,5.7623,5.8116,5.8784,5.9132,5.9597,6.0613,6.1019,6.1193,6.1193,6.1193,6.1309,6.1687,6.1051,6.0742,6.136,5.9958,5.9372,6.079,5.9637,0.0,0.0,0.0,0.0,0.0,0.0,0.0,5.9483,5.9834,6.0091,6.0292,6.0995,6.1723,6.2476,6.3053,6.3324,6.3245,6.3672,6.3873,6.3852,6.43,6.4676,6.5003,6.5003,6.5204,6.5484,6.5484,6.5484,6.5484,6.5484,6.5484,6.5484,6.5484,6.5484,6.5484,0.0,0.0,0.0,0.0,0.0,0.0,0.0,0.0,0.0,0.0,0.0,0.0,0.0,0.0,0.0,0.0,0.0,0.0,0.0,0.0,5.1206,5.1206,5.1206,5.1206,5.1206,5.1206,5.1206,5.1206,5.1206,5.1206,5.1206,0.0,0.0,0.0,0.0,0.0,0.0,0.0,0.0,0.0,0.0,0.0,0.0,0.0,0.0,0.0,0.0,0.0,0.0,0.0,5.4513,5.4845,5.5126,5.5204,5.5323,5.6104,5.6503,5.6767,5.7187,5.7303,5.7361,5.7565,5.7971,5.8523,5.9393,5.9568,5.9887,6.099,6.1193,6.1193,6.1193,6.0833,6.0717,6.1305,6.0366,5.9748,6.0363,5.9475,5.8943,5.9348,5.9122,5.9106,0.0,0.0,0.0,0.0,0.0,0.0,0.0,5.9991,6.0392,6.0588,6.1672,6.2526,6.3078,6.3827,6.44,6.4752,6.4927,6.4927,6.4752,6.4927,6.5204,6.5559,6.5559,6.576,6.609,6.609,6.609,6.609,6.609,6.609,6.609,6.609,6.609,6.609,0.0,0.0,0.0,0.0,0.0,0.0,0.0,0.0,0.0,0.0,0.0,0.0,0.0,0.0,0.0,0.0,0.0,0.0,0.0,5.1206,5.1206,5.1206,5.1206,5.1206,5.1206,5.1206,5.1206,5.1206,5.1206,5.1206,5.1206,5.1206,0.0,0.0,0.0,0.0,0.0,0.0,0.0,0.0,5.2217,5.3025,0.0,0.0,0.0,0.0,0.0,0.0,0.0,0.0,5.4513,5.487,5.5207,5.5536,5.5899,5.6283,5.6839,5.7303,5.7303,5.7303,5.7448,5.8145,5.829,5.8639,5.9916,6.0206,6.038,6.1048,6.1193,6.1193,6.1193,6.0073,0.0,5.9825,5.8058,5.685,5.7434,5.7732,5.7901,5.7901,5.8855,5.9483,0.0,0.0,0.0,0.0,0.0,0.0,0.0,5.9991,6.0568,6.1185,6.225,6.3103,6.3701,6.4756,6.5283,6.5308,6.586,6.5835,6.5329,6.586,6.609,6.609,6.609,6.609,6.609,6.609,6.609,6.609,6.609,6.609,6.609,6.609,6.609,6.609,0.0,0.0,0.0,0.0,0.0,0.0,0.0,0.0,0.0,0.0,0.0,0.0,0.0,0.0,0.0,0.0,0.0,0.0,0.0,5.1206,5.1206,5.1206,5.1206,5.1206,5.1206,5.1206,5.1206,5.1206,5.1206,5.1206,0.0,0.0,0.0,5.1206,0.0,0.0,0.0,0.0,0.0,0.0,5.3414,5.3721,0.0,0.0,0.0,0.0,0.0,0.0,0.0,0.0,0.0,0.0,5.5325,5.5859,5.654,5.6662,5.6992,5.7303,5.7303,5.7303,5.7448,5.8145,5.8668,5.9219,6.0032,6.0206,6.038,6.1048,6.1193,6.1193,6.1193,6.121,0.0,6.0677,5.9544,5.8716,5.8698,5.8235,5.8052,5.8409,5.9081,5.9483,0.0,0.0,0.0,0.0,0.0,0.0,0.0,6.0412,6.119,6.1743,6.2847,6.3877,6.4806,6.5132,6.5484,6.586,6.6036,6.6036,6.5886,6.6036,6.609,6.609,6.609,6.609,6.609,6.609,6.609,6.609,6.609,6.609,6.609,6.609,6.609,6.609,0.0,0.0,0.0,0.0,0.0,0.0,0.0,0.0,0.0,0.0,0.0,0.0,0.0,0.0,0.0,0.0,0.0,0.0,0.0,0.0,5.1206,5.1206,5.1206,5.1206,5.1206,5.1206,5.1206,5.1206,5.1206,0.0,0.0,0.0,5.1337,5.1606,0.0,5.187,0.0,0.0,5.2819,5.3488,5.3992,5.4117,5.4107,0.0,0.0,0.0,0.0,0.0,0.0,0.0,0.0,0.0,5.5792,5.6241,5.6681,5.6914,5.7139,5.7303,5.7303,5.7507,5.7855,5.8523,5.919,5.9829,6.0438,6.0584,6.07,6.1106,6.1193,6.1086,6.0769,6.0546,0.0,5.9643,5.8635,5.8018,5.8277,5.8076,5.8102,5.8635,5.9182,0.0,0.0,0.0,0.0,0.0,0.0,0.0,0.0,6.0582,6.1461,0.0,6.3299,6.4425,6.5283,6.5509,6.5785,6.609,6.609,6.609,6.609,6.609,6.609,6.609,6.609,6.609,6.609,6.609,6.609,6.609,6.609,6.609,6.609,6.609,6.609,6.609,0.0,0.0,0.0,0.0,0.0,0.0,0.0,0.0,0.0,0.0,5.1206,0.0,0.0,0.0,0.0,0.0,0.0,0.0,0.0,0.0,5.1206,5.1206,5.1206,5.1206,5.1206,5.1206,5.1206,5.1206,5.1206,0.0,0.0,0.0,5.1606,5.2205,0.0,5.2436,5.3264,5.3037,5.3295,5.3957,5.4182,5.4272,5.4368,5.4976,0.0,0.0,0.0,0.0,0.0,0.0,0.0,0.0,5.641,5.6626,5.6593,5.7158,5.7303,5.7303,5.7303,5.7797,5.8464,5.9132,5.98,6.0438,6.1048,6.1103,6.1058,6.1163,6.1103,6.0778,6.0046,5.8849,5.7898,5.7546,5.648,5.6005,5.6947,5.7556,5.8127,5.871,5.9207,0.0,0.0,0.0,0.0,0.0,0.0,0.0,0.0,6.0632,6.1517,6.2069,6.3697,6.4827,6.538,6.586,6.609,0.0,6.609,6.609,6.609,6.609,6.609,6.609,6.609,6.6065,6.6036,6.6036,6.6011,6.5939,6.5939,6.5939,6.5939,6.5939,6.5939,6.5939,0.0,0.0,0.0,0.0,0.0,0.0,0.0,0.0,0.0,0.0,0.0,0.0,0.0,0.0,0.0,0.0,0.0,0.0,0.0,0.0,5.1206,5.1206,5.1206,5.1206,5.1206,5.1206,5.1206,5.1206,5.1206,0.0,0.0,0.0,0.0,5.2217,0.0,5.3305,5.397,5.392,5.4284,5.4894,5.4957,5.4701,5.4368,5.4976,5.4568,0.0,0.0,0.0,0.0,0.0,0.0,0.0,5.6468,5.6764,5.7129,5.7274,5.7303,5.7303,5.7303,5.7797,5.8464,5.9132,6.0148,6.1019,6.1164,6.0348,5.9861,6.0982,6.0318,5.9629,5.9844,5.918,5.8355,5.7625,5.7631,5.7749,5.7718,5.7826,5.8252,5.9207,5.9433,0.0,0.0,0.0,0.0,0.0,0.0,0.0,5.9483,6.0989,6.2069,6.2601,6.4254,6.5383,6.5936,6.604,6.609,0.0,6.609,6.609,6.609,6.609,6.609,6.609,6.609,6.586,6.5459,6.5459,6.5229,6.4852,6.4852,6.4852,6.4852,6.4852,6.4852,6.4902,0.0,0.0,0.0,0.0,0.0,0.0,0.0,0.0,0.0,0.0,0.0,0.0,0.0,0.0,0.0,0.0,0.0,0.0,0.0,0.0,0.0,5.1206,5.1206,5.1206,5.1206,5.1517,5.1666,5.1666,5.2007,0.0,0.0,0.0,0.0,5.3162,0.0,5.4042,5.467,5.467,5.4804,5.5019,5.5019,5.4913,5.4814,5.527,0.0,5.4794,5.5805,0.0,0.0,0.0,0.0,0.0,0.0,0.0,5.7303,5.7303,5.7303,5.7361,5.7681,5.8261,5.9016,5.9974,6.07,6.1193,6.1193,6.0119,5.9307,6.0029,5.9283,5.8471,5.833,5.8255,5.789,5.7013,5.7354,5.7772,5.7888,5.8127,5.8604,5.9408,5.9483,0.0,0.0,0.0,0.0,0.0,0.0,5.9483,5.9483,6.109,6.225,6.2802,6.4429,6.5559,6.609,6.609,6.5986,6.571,6.571,6.5584,6.5333,6.5584,6.5584,6.5333,6.5333,6.5179,6.4927,6.4927,6.4752,6.4496,6.4496,6.4496,6.4496,6.4496,6.4496,6.4547,0.0,0.0,0.0,0.0,0.0,0.0,0.0,0.0,0.0,0.0,0.0,0.0,0.0,0.0,0.0,0.0,0.0,0.0,0.0,0.0,0.0,0.0,5.1487,5.1546,5.1546,5.2097,5.2366,5.2366,5.3037,0.0,0.0,0.0,0.0,5.4221,0.0,5.467,5.5192,5.5192,5.5155,5.5028,5.5028,5.5208,5.5509,0.0,0.0,0.0,5.652,5.6295,5.5841,5.662,0.0,0.0,0.0,0.0,5.7303,5.7303,5.7303,5.7448,5.8116,5.8697,5.9374,6.0544,6.0666,6.047,6.047,5.9385,5.8388,5.8388,5.7958,5.733,5.6716,5.6886,5.6946,5.63,5.6652,5.7204,5.7826,5.8359,5.8886,5.9433,5.9483,0.0,0.0,0.0,0.0,0.0,0.0,5.9483,5.9483,6.119,6.2325,6.2802,6.453,6.566,6.6112,6.599,6.5735,6.5283,6.5204,6.4877,6.4396,6.4827,6.4827,6.4496,6.4496,6.4446,6.435,6.435,6.43,6.4199,6.4199,6.4199,6.4199,6.4199,6.4199,6.4224,0.0,0.0,0.0,0.0,0.0,0.0,0.0,0.0,0.0,0.0,0.0,0.0,0.0,0.0,0.0,0.0,0.0,0.0,5.1206,0.0,0.0,5.2067,5.2618,5.2917,5.2917,5.3007,5.3079,5.3079,0.0,0.0,0.0,0.0,0.0,5.4239,0.0,5.5132,5.5192,5.5192,5.5508,5.6021,5.6021,5.6086,5.6201,0.0,0.0,0.0,0.0,5.6889,5.7075,5.7193,5.7397,0.0,0.0,0.0,5.7303,5.7303,5.7303,5.7448,5.8116,5.8269,5.8436,5.92,5.8467,5.7551,5.7551,5.6531,5.5558,5.5558,5.584,5.619,5.6528,5.609,5.58,5.6136,5.6652,5.7204,5.7826,5.8359,5.8886,5.9433,5.9483,0.0,0.0,0.0,0.0,0.0,5.9483,5.9483,5.9483,6.1522,6.2727,6.2802,6.4885,6.6036,6.609,6.5634,6.5358,6.5283,6.4827,6.4325,6.3822,6.3877,6.4124,6.4496,6.4496,6.4224,6.3822,6.3822,6.35,6.3028,6.3028,6.3028,6.3028,6.3028,6.3028,6.3103,0.0,0.0,0.0,0.0,0.0,0.0,0.0,0.0,0.0,0.0,0.0,0.0,0.0,0.0,0.0,5.1726,5.1756,5.1905,5.2306,5.2618,5.2767,5.2767,5.3037,5.3198,5.3198,5.3575,5.3743,5.3743,0.0,0.0,0.0,5.476,5.476,0.0,0.0,0.0,0.0,5.576,5.6059,5.6488,5.6484,5.6621,0.0,0.0,0.0,0.0,0.0,0.0,0.0,0.0,5.7388,5.7486,5.7345,0.0,0.0,0.0,5.7855,5.793,5.8124,5.8421,5.8538,5.8052,5.7455,5.7006,5.7006,5.5959,5.502,5.502,5.5065,5.519,5.5446,5.5687,5.5942,5.615,5.6928,5.76,5.7851,5.8629,5.9232,5.9458,5.9483,5.9483,0.0,0.0,0.0,0.0,5.9483,5.9483,5.9483,6.1597,6.2802,6.2802,6.4935,6.5961,6.566,6.5409,6.5003,6.4379,6.3827,6.3425,6.3178,6.3178,6.3324,6.355,6.355,6.3425,6.3178,6.3178,6.3028,6.2802,6.2802,6.2802,6.2802,6.2802,6.2802,6.2852,0.0,0.0,0.0,0.0,0.0,0.0,0.0,0.0,0.0,0.0,0.0,0.0,0.0,0.0,0.0,0.0,5.2456,5.2677,5.3169,5.3366,5.3456,5.3456,5.3605,5.3707,5.3707,5.4192,5.4461,5.4461,5.4952,0.0,5.5192,5.5371,5.5461,0.0,5.5461,5.573,0.0,0.0,0.0,0.0,0.0,0.0,0.0,0.0,0.0,0.0,0.0,0.0,0.0,0.0,0.0,0.0,5.7331,5.7419,0.0,0.0,0.0,5.8769,5.8668,5.8599,5.8325,5.7263,5.6471,5.5976,5.5976,5.5194,5.4468,5.4468,5.4523,5.4597,5.4597,5.5483,5.62,5.62,5.7173,5.7901,5.7901,5.883,5.9483,5.9483,5.9483,5.9483,0.0,0.0,0.0,0.0,5.9483,5.9483,5.9483,6.1597,6.2802,6.2802,6.481,6.571,6.5283,6.5032,6.4404,6.3475,6.3028,6.2802,6.2802,6.2802,6.2802,6.2802,6.2802,6.2802,6.2802,6.2802,6.2802,6.2802,6.2802,6.2802,6.2802,6.2802,6.2802,6.2802,0.0,0.0,0.0,0.0,0.0,0.0,0.0,0.0,0.0,0.0,0.0,0.0,0.0,0.0,5.3097,5.3126,5.3169,5.3156,5.3198,5.3803,5.4149,5.4149,5.476,0.0,5.5102,5.5132,5.5162,5.5162,5.5179,5.5192,5.5222,5.5863,5.6162,5.6162,5.6162,5.6162,5.6222,0.0,0.0,0.0,0.0,0.0,0.0,0.0,0.0,0.0,0.0,0.0,0.0,0.0,0.0,0.0,0.0,0.0,5.8261,0.0,0.0,0.0,6.0088,5.863,5.7086,5.7022,5.5061,5.311,5.311,5.3067,5.3015,5.3015,5.3878,5.4597,5.4597,5.5483,5.62,5.62,5.7173,5.7901,5.7901,5.883,5.9483,5.9483,5.9483,5.9483,5.9483,0.0,0.0,0.0,5.9483,5.9483,5.9483,6.1597,6.2802,6.2802,6.4454,6.5333,6.5283,6.4279,6.3475,6.2852,6.2807,6.2802,6.2802,6.2802,6.2802,6.2802,6.2802,6.2802,6.2802,6.2802,6.2802,6.2802,6.2802,6.2802,6.2802,6.2802,6.2802,6.2802,0.0,0.0,0.0,0.0,0.0,0.0,0.0,0.0,0.0,0.0,0.0,0.0,0.0,5.3049,5.3366,5.3803,5.4234,5.4473,5.4473,5.4713,5.485,5.485,5.5059,5.5192,5.5192,5.5192,5.5192,5.5192,5.5192,5.5431,5.5863,5.6102,5.6402,5.6778,5.6778,5.7017,5.7423,5.7649,0.0,0.0,0.0,0.0,0.0,0.0,0.0,0.0,0.0,0.0,0.0,0.0,0.0,0.0,0.0,0.0,0.0,5.9422,5.9496,5.9504,5.9504,5.8284,5.678,5.5927,5.4977,5.4022,5.3093,5.2895,5.2895,5.2895,5.3826,5.4597,5.4597,5.5483,5.62,5.62,5.7173,5.7901,5.7901,5.883,5.9483,5.9483,5.9483,5.9483,5.9483,0.0,0.0,0.0,0.0,5.9483,5.9483,6.1597,6.2651,6.23,6.4254,6.4957,6.4279,6.3525,6.3003,6.2802,6.2802,6.2802,6.2802,6.2802,6.2802,6.2802,6.2802,6.2802,6.2802,6.2802,6.2802,6.2802,6.2802,6.2802,6.2802,6.2802,6.2802,6.2802,0.0,0.0,0.0,0.0,0.0,0.0,0.0,0.0,0.0,0.0,0.0,0.0,0.0,0.0,5.4054,5.4491,5.494,5.5192,5.5192,5.5192,5.5192,5.5192,5.5192,5.5192,5.5192,5.5192,0.0,0.0,5.5551,5.5863,5.6521,5.6718,5.7034,5.7453,5.757,5.7756,0.0,0.0,0.0,5.8349,0.0,0.0,5.792,0.0,0.0,0.0,0.0,0.0,0.0,0.0,0.0,0.0,0.0,0.0,0.0,0.0,5.9458,5.9614,5.8639,5.7711,5.6666,5.5326,5.4636,5.4056,5.3093,5.2895,5.2895,5.2895,5.3826,5.4597,5.4597,5.5483,5.62,5.62,5.6979,5.7675,5.7876,5.8679,5.9307,5.9483,5.9483,5.9483,5.9483,0.0,0.0,0.0,0.0,0.0,5.9483,6.1421,6.2526,6.2571,6.4002,6.4329,6.34,6.3003,6.2802,6.2802,6.2802,6.2802,6.2802,6.2802,6.2802,6.2802,6.2802,6.2802,6.2802,6.2802,6.2802,6.2802,6.2802,6.2802,6.2802,6.2802,6.2802,6.2802,0.0,0.0,0.0,0.0,0.0,0.0,0.0,0.0,0.0,0.0,0.0,0.0,0.0,0.0,0.0,5.5192,5.5192,5.5192,5.5192,5.5192,5.5192,5.5192,5.5222,5.5222,5.5222,0.0,0.0,0.0,0.0,0.0,0.0,0.0,5.8102,5.8145,5.8519,5.8324,5.7776,0.0,5.8378,5.7754,0.0,5.6924,5.8147,0.0,0.0,0.0,5.7085,5.6234,0.0,0.0,0.0,0.0,0.0,0.0,0.0,0.0,0.0,0.0,0.0,0.0,0.0,5.5326,5.3971,5.2964,5.2912,5.2895,5.2895,5.2937,5.3808,5.4597,5.4622,5.5509,5.62,5.62,5.6652,5.7204,5.7826,5.8359,5.8886,5.9433,5.9483,5.9483,5.9483,5.9483,0.0,0.0,5.9483,5.9483,5.9483,6.1065,6.2496,6.3651,6.3676,6.34,6.2827,6.2802,6.2802,6.2802,6.2802,6.2802,6.2802,6.2802,6.2802,6.2802,6.2802,6.2802,6.2802,6.2802,6.2802,6.2802,6.2802,6.2802,6.2802,6.2802,6.2802,6.2802,0.0,0.0,0.0,0.0,0.0,0.0,0.0,0.0,0.0,0.0,0.0,0.0,0.0,0.0,0.0,5.5192,5.5192,5.5192,5.5192,5.5192,5.5192,5.5192,5.5671,5.5923,5.5923,0.0,0.0,0.0,0.0,0.0,0.0,0.0,0.0,0.0,5.8479,5.8483,5.8778,5.8467,0.0,5.9044,5.8241,5.7859,0.0,0.0,0.0,0.0,0.0,5.4962,5.5677,0.0,5.5307,5.6458,0.0,0.0,0.0,0.0,0.0,0.0,5.6941,0.0,0.0,0.0,0.0,0.0,5.3127,5.2895,5.3013,5.3389,5.4077,5.4723,5.5107,5.5742,5.62,5.62,5.6652,5.7204,5.7826,5.8359,5.8886,5.9433,5.9483,5.9483,5.9483,5.9483,0.0,0.0,5.9483,5.9483,5.9483,6.0713,6.2139,6.3651,6.3299,6.2978,6.2802,6.2802,6.2802,6.2802,6.2802,6.2802,6.2802,6.2802,6.2802,6.2802,6.2802,6.2802,6.2802,6.2802,6.2802,6.2802,6.2802,6.2802,6.2802,6.2802,6.2802,6.2802,0.0,0.0,0.0,0.0,0.0,0.0,0.0,0.0,0.0,0.0,0.0,0.0,0.0,0.0,0.0,0.0,5.5987,5.5987,5.5987,5.5987,5.5987,5.5987,5.6359,5.6581,0.0,0.0,0.0,0.0,0.0,0.0,0.0,0.0,0.0,0.0,0.0,0.0,0.0,0.0,0.0,0.0,5.8001,0.0,0.0,5.638,5.5542,0.0,0.0,0.0,5.4636,5.3851,5.4341,0.0,0.0,0.0,0.0,0.0,0.0,0.0,0.0,0.0,0.0,5.4266,0.0,0.0,5.3101,5.2895,5.3063,5.3607,5.4177,5.4773,5.5308,5.5842,5.62,5.62,5.6451,5.6878,5.743,5.8008,5.8579,5.9106,5.9357,5.9483,5.9483,5.9483,5.9483,5.9483,5.9483,5.9583,5.9834,6.0688,6.1763,6.2948,6.2877,6.2802,6.2802,6.2802,6.2802,6.2802,6.2802,6.2802,6.2802,6.2802,6.2802,6.2802,6.2802,6.2802,6.2802,6.2802,6.2802,6.2802,6.2802,6.2802,6.2802,6.2802,6.2802,6.2802,0.0,0.0,0.0,0.0,0.0,0.0,0.0,0.0,0.0,0.0,0.0,0.0,0.0,0.0,0.0,0.0,5.7094,5.7094,5.7094,5.7094,0.0,0.0,0.0,0.0,0.0,0.0,0.0,0.0,0.0,0.0,0.0,0.0,0.0,0.0,0.0,0.0,0.0,0.0,0.0,5.9085,5.6865,5.6756,0.0,0.0,5.4451,0.0,5.477,5.3971,5.2895,5.2895,5.3015,0.0,0.0,0.0,0.0,0.0,5.4627,0.0,0.0,0.0,0.0,0.0,5.2895,0.0,5.2895,5.2895,5.3063,5.3607,5.4177,5.4773,5.5308,5.5842,5.62,5.62,5.62,5.6376,5.691,5.7455,5.8008,5.8635,5.9131,5.9433,5.9483,5.9483,5.9483,5.9483,5.9483,5.9734,6.0267,6.0864,6.1461,6.1994,6.2526,6.2802,6.2802,6.2802,6.2802,6.2802,6.2802,6.2802,6.2802,6.2802,6.2802,6.2802,6.2802,6.2802,6.2802,6.2802,6.2802,6.2802,6.2802,6.2802,6.2802,6.2802,6.2802,6.2802,0.0,0.0,0.0,0.0,0.0,0.0,0.0,0.0,0.0,0.0,0.0,0.0,0.0,0.0,0.0,0.0,0.0,5.7094,0.0,0.0,0.0,0.0,0.0,0.0,0.0,0.0,0.0,0.0,0.0,0.0,0.0,0.0,0.0,0.0,0.0,0.0,0.0,0.0,0.0,5.9051,5.8027,0.0,5.7051,5.5439,5.418,5.3316,5.3316,5.3127,5.2895,0.0,5.3649,5.4384,0.0,0.0,0.0,0.0,0.0,0.0,0.0,0.0,0.0,0.0,0.0,0.0,5.2895,5.2895,5.3063,5.3607,5.4177,5.4773,5.5308,5.5842,5.62,5.62,5.62,5.6376,5.691,5.7085,5.7556,5.8585,5.8786,5.9012,5.9458,5.9483,5.9483,5.9483,5.9483,5.9734,6.0267,6.0864,6.1461,6.1994,6.2526,6.2802,6.2802,6.2802,6.2802,6.2802,6.2802,6.2802,6.2802,6.2802,6.2802,6.2802,6.2802,6.2802,6.2802,6.2802,6.2802,6.2802,6.2802,6.2802,6.2802,6.2802,6.2802,6.2802,0.0,0.0,0.0,0.0,0.0,0.0,0.0,0.0,0.0,0.0,0.0,0.0,0.0,0.0,0.0,0.0,0.0,0.0,0.0,0.0,0.0,0.0,0.0,0.0,0.0,0.0,0.0,0.0,0.0,0.0,0.0,0.0,0.0,0.0,0.0,0.0,0.0,0.0,5.869,5.8032,5.7858,0.0,5.5844,5.4485,5.3495,5.2895,5.2895,5.2895,5.2895,5.2895,5.3367,0.0,0.0,5.3384,5.3801,0.0,5.2895,5.2895,0.0,0.0,0.0,5.2895,0.0,0.0,0.0,5.2895,5.3138,5.3976,5.4378,5.4848,5.5641,5.6018,5.62,5.62,5.62,5.6301,5.6552,5.6835,5.7211,5.7763,5.8359,5.8811,5.9062,5.9332,5.9483,5.9483,5.9483,5.9608,5.9885,6.0733,6.1336,6.1592,6.2375,6.2802,6.2802,6.2802,6.2802,6.2802,6.2802,6.2802,6.2802,6.2802,6.2802,6.2802,6.2802,6.2802,6.2802,6.2802,6.2802,6.2802,6.2802,6.2802,6.2802,6.2802,6.2802,6.2802,5.5251,0.0,0.0,0.0,0.0,0.0,0.0,0.0,0.0,0.0,0.0,0.0,0.0,0.0,0.0,0.0,0.0,0.0,0.0,0.0,0.0,0.0,0.0,5.8646,0.0,0.0,0.0,0.0,0.0,0.0,0.0,0.0,0.0,0.0,0.0,0.0,5.596,0.0,0.0,5.6634,0.0,5.6211,5.4853,5.3435,5.2895,5.2895,5.2895,5.2895,5.2895,5.2895,0.0,5.2895,5.2895,5.2895,0.0,0.0,0.0,0.0,0.0,0.0,0.0,0.0,0.0,5.2937,0.0,0.0,0.0,5.4396,5.4672,5.5006,5.5892,5.6143,5.6125,5.5942,5.6068,5.6143,5.5917,5.6451,5.6885,5.6985,5.7813,5.8459,5.8685,5.9207,5.9483,5.9483,5.9483,5.9483,5.9483,6.0462,6.1085,6.121,6.2124,6.2701,6.2802,6.2802,6.2802,6.2802,6.2802,6.2802,6.2802,6.2802,6.2802,6.2802,6.2802,6.2802,6.2802,6.2802,6.2802,6.2802,6.2802,6.2802,6.2802,6.2802,6.2802,6.2802,5.5431,5.5683,0.0,0.0,0.0,0.0,0.0,0.0,0.0,0.0,0.0,0.0,0.0,0.0,0.0,0.0,0.0,0.0,5.7384,0.0,0.0,0.0,0.0,0.0,5.6848,0.0,0.0,0.0,0.0,0.0,0.0,0.0,0.0,0.0,5.6112,0.0,5.5205,0.0,5.6341,0.0,5.5277,5.5177,0.0,5.3435,5.2895,5.2895,5.2895,5.2895,5.2895,0.0,5.2895,5.2895,0.0,5.2895,5.2895,0.0,0.0,0.0,0.0,0.0,0.0,0.0,5.2895,0.0,0.0,0.0,5.3808,5.4454,0.0,5.5358,5.5465,0.0,0.0,5.4949,5.5566,5.5867,5.4924,5.5641,5.6477,5.6935,5.7111,5.7606,5.861,5.9207,5.9483,5.9483,5.9483,5.9483,5.9483,6.0066,6.0663,6.1185,6.1768,6.2325,6.2802,6.2802,6.2802,6.2802,6.2802,6.2802,6.2802,6.2802,6.2802,6.2802,6.2802,6.2802,6.2802,6.2802,6.2802,6.2802,6.2802,6.2802,6.2802,6.2802,6.2802,6.2802,5.6419,5.6539,0.0,0.0,0.0,0.0,0.0,0.0,0.0,0.0,0.0,0.0,0.0,0.0,0.0,0.0,0.0,5.745,0.0,0.0,0.0,0.0,0.0,0.0,0.0,0.0,0.0,0.0,5.4894,0.0,0.0,0.0,0.0,0.0,5.4238,0.0,5.3818,0.0,5.43,0.0,0.0,0.0,0.0,5.3136,5.2895,5.2895,5.2895,5.2895,5.2962,0.0,5.3364,0.0,0.0,0.0,0.0,0.0,0.0,0.0,0.0,0.0,0.0,0.0,0.0,0.0,0.0,0.0,5.4378,0.0,0.0,0.0,0.0,0.0,0.0,0.0,5.5917,5.6043,5.5591,5.5917,5.6276,5.6502,0.0,0.0,5.8585,0.0,0.0,0.0,5.9483,5.9483,5.9483,5.9991,6.0588,6.1185,6.1718,6.225,6.2802,6.2802,6.2802,6.2802,6.2802,6.2802,6.2802,6.2802,6.2802,6.2802,6.2802,6.2802,6.2802,6.2802,6.2802,6.2802,6.2802,6.2802,6.2802,6.2802,6.2802,6.2802,5.7663,0.0,0.0,0.0,0.0,0.0,0.0,0.0,0.0,0.0,0.0,0.0,5.9674,5.9718,0.0,0.0,0.0,5.6814,0.0,0.0,5.6064,0.0,0.0,0.0,0.0,0.0,0.0,0.0,0.0,0.0,0.0,0.0,0.0,0.0,0.0,5.2895,5.2895,0.0,5.2895,5.2895,5.2895,5.2988,5.3113,5.3113,5.3113,5.3138,5.3289,5.3381,5.3432,5.3808,5.3951,0.0,5.4454,0.0,0.0,0.0,0.0,0.0,5.4597,0.0,0.0,0.0,0.0,0.0,0.0,0.0,0.0,0.0,0.0,0.0,0.0,0.0,0.0,0.0,0.0,5.6118,5.5792,5.6,5.62,5.62,0.0,0.0,0.0,5.8861,5.9282,5.9282,5.9408,5.9483,5.9483,5.9885,6.0362,6.0914,6.1492,6.2044,6.2576,6.2727,6.2802,6.2802,6.2802,6.2802,6.2802,6.2802,6.2802,6.2802,6.2802,6.2802,6.2802,6.2802,6.2802,6.2802,6.2802,6.2802,6.2802,6.2802,6.2802,6.2802,5.9039,5.8517,0.0,0.0,0.0,0.0,0.0,0.0,0.0,0.0,0.0,0.0,0.0,0.0,0.0,0.0,0.0,5.3608,5.4174,0.0,5.4603,0.0,0.0,5.4617,0.0,0.0,0.0,0.0,0.0,0.0,0.0,0.0,0.0,0.0,5.2895,5.2895,5.2895,5.2895,5.2895,5.2895,5.2895,5.3213,5.3683,0.0,5.3683,5.3758,5.4328,0.0,0.0,5.4572,5.4572,0.0,0.0,0.0,0.0,0.0,0.0,0.0,0.0,0.0,0.0,5.4597,0.0,0.0,0.0,0.0,5.5516,0.0,0.0,0.0,0.0,0.0,0.0,0.0,0.0,0.0,0.0,5.5559,5.62,5.62,5.6677,0.0,0.0,5.8083,5.8736,5.8736,5.9207,5.9483,5.9483,5.9508,5.9784,6.0317,6.0914,6.1466,6.2019,6.2551,6.2802,6.2802,6.2802,6.2802,6.2802,6.2802,6.2802,6.2802,6.2802,6.2802,6.2802,6.2802,6.2802,6.2802,6.2802,6.2802,6.2802,6.2802,6.2802,6.2802,0.0,0.0,0.0,0.0,0.0,0.0,0.0,6.0326,0.0,0.0,0.0,0.0,0.0,0.0,5.6862,0.0,0.0,5.4481,5.4664,5.3815,0.0,0.0,0.0,5.4401,0.0,0.0,0.0,0.0,0.0,0.0,5.2895,0.0,0.0,0.0,0.0,5.2895,0.0,0.0,0.0,0.0,0.0,5.3783,5.4303,0.0,0.0,5.4303,5.4522,5.4597,0.0,5.5006,5.5132,5.5182,5.5559,5.5641,5.5641,5.5641,5.5641,0.0,0.0,0.0,5.5641,5.5641,0.0,0.0,0.0,0.0,0.0,0.0,0.0,0.0,0.0,0.0,0.0,0.0,0.0,0.0,0.0,5.5968,5.62,5.62,5.6677,5.6985,0.0,0.0,0.0,5.871,5.9207,5.9483,5.9483,5.9483,5.9759,6.0292,6.0889,6.1461,6.1994,6.2526,6.2802,6.2802,6.2802,6.2802,6.2802,6.2802,6.2802,6.2802,6.2802,6.2802,6.2802,6.2802,6.2802,6.2802,6.2802,6.2802,6.2802,6.2802,6.2802,6.2802,5.9817,0.0,0.0,0.0,0.0,0.0,0.0,0.0,0.0,0.0,5.8753,0.0,5.6811,0.0,5.6178,0.0,5.4535,5.4232,5.4232,5.3401,0.0,5.4199,5.4232,0.0,0.0,0.0,0.0,0.0,0.0,5.2895,5.2895,5.2895,5.2895,0.0,0.0,5.2895,5.2895,5.3113,5.3188,0.0,0.0,5.4554,0.0,0.0,5.5207,5.4906,0.0,5.5157,5.5257,5.5792,5.5968,5.6068,5.6646,5.6821,5.6821,5.6821,5.6821,5.6821,5.6821,5.6821,0.0,0.0,5.6821,0.0,5.6821,0.0,0.0,0.0,0.0,0.0,0.0,0.0,0.0,0.0,0.0,0.0,0.0,5.62,5.62,5.62,5.6502,5.6728,5.6728,5.7556,5.8183,5.8384,5.8911,5.9307,0.0,0.0,5.9659,5.9991,6.0788,6.1386,6.1718,6.2425,6.2802,6.2802,6.2802,6.2802,6.2802,6.2802,6.2802,6.2802,6.2802,6.2802,6.2802,6.2802,6.2802,6.2802,6.2802,6.2802,6.2802,6.2802,6.2802,6.2802,0.0,0.0,0.0,0.0,6.0745,0.0,0.0,0.0,5.9408,0.0,5.8081,5.7224,5.6844,5.5647,5.4903,5.4903,5.3666,0.0,5.2895,5.2895,0.0,0.0,5.2895,5.2895,5.2895,0.0,0.0,0.0,0.0,0.0,5.2895,5.2895,5.2895,5.2895,5.2937,5.2937,5.297,5.3532,5.3758,5.3884,5.4988,5.5458,5.5591,5.6652,0.0,5.5609,5.6118,5.6276,5.6351,5.6878,5.7035,5.7136,5.7725,5.7901,5.7901,5.7901,5.7901,5.7901,5.7901,5.7901,5.7901,5.7901,0.0,0.0,0.0,0.0,5.7035,0.0,0.0,0.0,0.0,0.0,0.0,0.0,0.0,0.0,0.0,0.0,5.62,5.62,5.62,5.62,5.62,5.6728,5.728,5.7851,5.8409,5.8961,0.0,0.0,5.9483,5.9483,6.0607,6.121,6.121,6.225,6.2802,6.2802,6.2802,6.2802,6.2802,6.2802,6.2802,6.2802,6.2802,6.2802,6.2802,6.2802,6.2802,6.2802,6.2802,6.2802,6.2802,6.2802,6.2802,6.2802,6.109,6.131,6.1656,0.0,6.2076,6.1781,0.0,0.0,0.0,0.0,5.6746,5.5429,5.4098,5.3649,5.3435,5.3435,5.3093,0.0,0.0,0.0,0.0,5.2895,5.2895,5.2895,5.2895,5.2895,0.0,5.2895,0.0,0.0,5.2895,5.2895,5.2895,5.2937,5.3314,5.349,5.3532,5.4127,5.4604,5.5013,5.5717,5.6226,0.0,0.0,5.7499,5.7273,5.7399,5.7474,5.7474,5.7606,5.7675,5.77,5.7851,5.7901,5.7901,5.7901,5.7901,5.7901,5.7901,5.7901,5.7901,5.7901,5.7901,5.7901,0.0,0.0,0.0,0.0,0.0,0.0,0.0,0.0,0.0,0.0,0.0,0.0,0.0,0.0,0.0,5.62,5.62,5.62,5.62,5.7079,5.7725,5.7901,5.878,5.9357,0.0,0.0,0.0,5.9483,6.0607,6.121,6.121,6.225,6.2802,6.2802,6.2802,6.2802,6.2802,6.2802,6.2802,6.2802,6.2802,6.2802,6.2802,6.2802,6.2802,6.2802,6.2802,6.2802,6.2802,6.2802,6.2802,6.2802,6.1972,0.0,0.0,6.1762,0.0,0.0,6.1131,0.0,0.0,5.6795,5.5247,0.0,5.299,5.2895,5.2895,5.2895,5.2895,0.0,0.0,0.0,0.0,5.2895,5.2895,5.2895,5.2895,5.2895,0.0,5.2895,0.0,0.0,5.2895,5.3138,5.3239,5.3264,5.3833,5.4102,5.4152,5.4956,5.5591,5.6168,5.6721,0.0,0.0,5.8033,5.8234,5.8278,5.8529,5.8303,5.7926,5.8177,5.8234,5.8303,5.8529,5.8604,5.8604,5.8604,5.8604,5.8604,5.8604,5.8604,5.8604,5.8604,5.8604,5.8604,5.8604,5.8428,5.8234,0.0,0.0,0.0,0.0,0.0,0.0,0.0,0.0,0.0,0.0,0.0,0.0,0.0,5.62,5.62,5.62,5.6979,5.7625,5.7876,5.8679,0.0,0.0,0.0,0.0,5.9483,6.0607,6.121,6.121,6.225,6.2802,6.2802,6.2802,6.2802,6.2802,6.2802,6.2802,6.2802,6.2802,6.2802,6.2802,6.2802,6.2802,6.2802,6.2802,6.2802,6.2802,6.2802,6.2802,6.2802,6.2978,0.0,0.0,0.0,0.0,0.0,0.0,5.8355,0.0,5.5502,0.0,5.2937,5.3013,5.2995,5.3038,5.3113,0.0,5.3113,5.3113,5.3113,5.3113,5.3113,5.3113,5.3113,5.3113,5.3113,0.0,0.0,0.0,0.0,5.3138,5.3607,5.3808,5.3833,5.4429,5.4798,5.4981,5.5993,5.6702,5.7161,5.7775,5.8001,5.8052,5.8585,5.8836,5.8961,5.9433,5.8956,5.8177,5.8635,5.8811,5.8886,5.9357,5.9483,5.9483,5.9483,5.9483,5.9483,5.9483,5.9483,5.9483,5.9483,5.9483,5.9483,5.9483,5.9156,5.8811,5.8811,5.8428,0.0,0.0,0.0,0.0,0.0,0.0,0.0,0.0,0.0,0.0,0.0,0.0,0.0,5.62,5.6702,5.7255,5.7851,0.0,0.0,0.0,0.0,0.0,5.9483,6.0607,0.0,6.121,0.0,6.2802,6.2802,6.2802,6.2802,6.2802,6.2802,6.2802,6.2802,6.2802,6.2802,6.2802,6.2802,6.2802,6.2802,6.2802,6.2802,6.2802,6.2802,6.2802,6.2802,6.2336,0.0,0.0,0.0,0.0,5.7252,5.6423,5.5984,5.5611,5.5118,5.3801,5.3063,5.349,5.3557,5.3758,5.4253,5.4303,0.0,0.0,0.0,0.0,5.4303,5.4303,5.4303,5.4303,5.4303,5.4303,0.0,0.0,0.0,0.0,5.4403,5.4446,5.4471,5.5006,5.5742,5.6627,5.7305,0.0,5.7801,5.8334,5.856,5.861,5.9156,5.9614,6.0041,6.0116,5.974,5.9232,5.9332,5.9357,5.9382,5.9458,5.9483,5.9483,5.9483,5.9483,5.9483,5.9483,5.9483,5.9483,5.9483,5.9483,5.9483,5.9483,5.9433,5.9357,5.9357,5.9282,5.9081,5.8635,0.0,0.0,0.0,0.0,0.0,0.0,0.0,0.0,0.0,0.0,5.62,0.0,5.6702,5.7255,5.7851,0.0,0.0,0.0,0.0,0.0,0.0,6.0607,0.0,0.0,0.0,6.2802,6.2802,6.2802,6.2802,6.2802,6.2802,6.2802,6.2802,6.2802,6.2802,6.2802,6.2802,6.2802,6.2802,6.2802,6.2802,6.2802,6.2802,6.2802,6.2802,0.0,0.0,0.0,0.0,0.0,0.0,0.0,5.4791,0.0,5.4372,5.3991,5.3884,5.4152,5.4177,5.4278,5.4572,5.4597,5.4597,5.4597,5.4597,5.4597,5.4597,5.4597,0.0,5.4597,5.4597,5.4597,5.4597,0.0,0.0,0.0,0.0,5.5157,5.5483,5.6337,5.6972,5.7506,0.0,0.0,5.8359,5.8905,5.9288,5.9564,5.9834,6.0261,6.0763,6.0763,6.0588,6.0362,6.0362,6.0362,6.0362,6.0362,6.0362,6.0362,6.0362,6.0362,6.0362,6.0362,6.0362,6.0306,6.001,5.989,5.9859,5.9558,5.9483,5.9483,5.9483,5.9483,5.9408,5.9156,5.8679,0.0,0.0,0.0,0.0,0.0,0.0,0.0,0.0,0.0,0.0,0.0,0.0,0.0,0.0,0.0,0.0,0.0,0.0,0.0,0.0,0.0,0.0,0.0,0.0,0.0,6.2802,6.2802,6.2802,6.2802,6.2802,6.2802,6.2802,6.2802,6.2802,6.2802,6.2802,6.2802,6.2802,6.2802,6.2802,6.2802,6.2802,6.2802,6.2802,0.0,5.7399,0.0,0.0,5.5455,0.0,5.4076,5.4479,5.468,5.3984,5.4303,5.4697,5.4924,5.4931,5.5031,5.5282,5.5282,5.5282,5.5282,5.5282,5.5282,5.5282,5.5282,5.5282,5.5282,5.5282,5.5282,0.0,0.0,0.0,0.0,0.0,0.0,0.0,0.0,0.0,0.0,0.0,5.8936,5.9087,5.9508,6.001,6.0493,6.0493,6.0864,6.1386,6.1386,6.1461,6.1542,6.1542,6.1411,6.121,6.121,6.121,6.121,6.121,6.121,6.121,6.121,6.121,6.1085,6.0613,6.0493,6.0387,5.996,5.9759,5.9659,5.9659,5.9583,5.9483,5.9483,5.9156,0.0,0.0,0.0,0.0,0.0,0.0,0.0,0.0,0.0,0.0,5.7255,0.0,0.0,0.0,0.0,0.0,0.0,0.0,0.0,0.0,0.0,6.121,6.121,0.0,6.2802,0.0,6.2802,6.2802,6.2802,6.2802,6.2802,6.2802,6.2802,6.2802,6.2802,6.2802,6.2802,6.2802,6.2802,6.2802,6.2802,6.2802,6.2802,6.2802,0.0,0.0,0.0,0.0,0.0,0.0,0.0,5.5408,5.5666,5.4647,5.4572,5.4956,5.5942,5.6068,5.647,5.7499,5.76,5.76,5.76,5.76,5.76,5.76,5.76,5.76,5.76,5.76,5.76,0.0,0.0,0.0,0.0,0.0,0.0,0.0,0.0,0.0,0.0,5.9207,5.9709,6.0141,6.0191,6.0588,6.1135,6.1135,6.1441,6.1943,6.1943,6.2225,6.2651,6.2651,6.1999,6.121,6.121,6.121,6.121,6.121,6.121,6.121,6.121,6.121,6.1185,6.1135,6.1135,6.111,6.1059,6.0613,6.0217,6.0217,5.9834,5.9483,5.9483,5.9458,5.9433,0.0,0.0,0.0,0.0,0.0,0.0,5.7901,0.0,0.0,0.0,5.7876,0.0,0.0,5.866,0.0,0.0,0.0,0.0,5.9483,0.0,6.121,6.121,6.225,0.0,6.2802,6.2802,6.2802,6.2802,6.2802,6.2802,6.2802,6.2802,6.2802,6.2802,6.2802,6.2802,6.2802,6.2802,6.2802,6.2802,6.2802,6.2802,6.2802,0.0,0.0,0.0,0.0,0.0,0.0,0.0,5.6721,5.7072,5.6639,5.6589,5.6739,5.7173,5.7223,5.7399,5.7851,5.7901,5.7901,5.7901,5.7901,5.7901,5.7901,5.7901,5.7901,5.7901,5.7901,5.7901,0.0,0.0,0.0,0.0,0.0,0.0,0.0,0.0,5.9664,5.9689,6.0286,6.0638,6.0839,6.0839,6.1165,6.1667,6.1667,6.2019,6.2476,6.2476,6.2626,6.2802,6.2802,6.2526,6.2149,6.2149,6.2149,6.2149,6.2149,6.2149,6.2149,6.2149,6.2149,6.2094,6.1768,6.1667,6.1612,6.1285,6.0989,6.0839,6.0839,6.0387,5.9885,5.9558,5.9483,5.9483,0.0,0.0,0.0,0.0,0.0,0.0,0.0,0.0,5.873,0.0,0.0,0.0,0.0,0.0,0.0,0.0,0.0,0.0,5.9483,0.0,6.121,6.121,6.225,6.2802,6.2802,6.2802,6.2802,6.2802,6.2802,6.2802,6.2802,6.2802,6.2802,6.2802,6.2802,6.2802,6.2802,6.2802,6.2802,6.2802,6.2802,6.2802,6.2802,5.5085,0.0,5.5483,0.0,5.6445,5.6828,5.7204,5.7757,5.8152,5.8152,5.8403,5.8504,5.8177,5.8152,5.8202,5.8353,5.8378,5.8378,5.8378,5.8378,5.8378,5.8378,5.8378,0.0,5.8378,5.8378,5.8378,5.8378,5.8378,0.0,0.0,0.0,0.0,0.0,6.0236,6.0563,6.0593,6.1034,6.1285,6.1436,6.1436,6.1768,6.2245,6.2245,6.2476,6.2802,6.2802,6.2802,6.2802,6.2802,6.2802,6.2802,6.2802,6.2802,6.2802,6.2802,6.2802,6.2802,6.2802,6.2802,6.2727,6.2325,6.2245,6.2144,6.1768,6.1542,6.1411,6.1235,6.0864,6.0392,5.9834,5.9734,5.9684,0.0,0.0,0.0,0.0,0.0,0.0,0.0,5.9483,5.9357,5.8961,5.9282,0.0,0.0,0.0,0.0,0.0,0.0,0.0,0.0,0.0,0.0,0.0,6.2325,6.2802,6.2802,6.2802,6.2802,6.2802,6.2802,6.2802,6.2802,6.2802,6.2802,6.2802,6.2802,6.2802,6.2802,6.2802,6.2802,6.2802,6.2802,6.2802,6.2802,5.6093,5.6602,5.7161,5.7775,5.7876,5.7876,5.7901,5.8334,5.8685,5.8685,5.9614,5.9865,5.8811,5.8685,5.8886,5.9433,5.9483,5.9483,5.9483,5.9483,5.9483,0.0,0.0,5.9483,5.9483,5.9483,5.9483,5.9483,0.0,0.0,5.7901,0.0,5.9583,6.1185,6.1185,6.1185,6.1185,6.121,6.1512,6.1994,6.1994,6.23,6.2802,6.2802,6.2802,6.2802,6.2802,6.2802,6.2802,6.2802,6.2802,6.2802,6.2802,6.2802,6.2802,6.2802,6.2802,6.2802,6.2802,6.2802,6.2802,6.2802,6.2802,6.2802,6.2802,6.2375,6.1843,6.1311,6.1185,6.0989,6.0392,6.0292,6.0116,5.9583,0.0,0.0,0.0,0.0,0.0,0.0,5.9483,5.9483,5.9483,5.9483,0.0,0.0,0.0,0.0,0.0,0.0,0.0,6.0267,6.0889,0.0,6.1994,6.2526,6.2802,6.2802,6.2802,6.2802,6.2802,6.2802,6.2802,6.2802,6.2802,6.2802,6.2802,6.2802,6.2802,6.2802,6.2802,6.2802,6.2802,6.2802,6.2802,6.2802,5.7323,5.7499,5.7801,5.8334,5.8434,5.8685,5.9413,5.9689,5.994,6.0337,6.0688,6.0788,6.0437,6.0387,6.0462,0.0,6.0658,6.0658,0.0,6.0658,6.0658,6.0658,6.0658,6.0658,6.0658,6.0658,6.0658,6.0658,0.0,0.0,0.0,6.0311,6.0688,6.121,6.1567,6.1743,6.1768,6.2144,6.2375,6.2551,6.2551,6.2651,6.2802,6.2802,6.2802,6.2802,6.2802,6.2802,6.2802,6.2802,6.2802,6.2802,6.2802,6.2802,6.2802,6.2802,6.2802,6.2802,6.2802,6.2802,6.2802,6.2802,6.2802,6.2802,6.2802,6.2676,6.2375,6.1868,6.1743,6.1567,6.1014,6.0914,6.0713,6.0161,0.0,0.0,0.0,0.0,0.0,0.0,5.9483,5.9483,0.0,5.9483,0.0,0.0,0.0,0.0,0.0,0.0,0.0,0.0,6.124,0.0,6.1994,6.2526,6.2802,6.2802,6.2802,6.2802,6.2802,6.2802,6.2802,6.2802,6.2802,6.2802,6.2802,6.2802,6.2802,6.2802,6.2802,6.2802,6.2802,6.2802,6.2802,6.2802,5.8453,5.8654,5.8981,5.9558,5.9659,5.984,6.0537,6.0638,6.0763,6.116,6.1386,6.1492,6.1492,6.1667,0.0,6.1235,6.121,6.121,6.121,6.121,6.121,6.121,6.121,6.121,6.121,0.0,0.0,6.121,6.121,6.1311,6.1492,6.1492,6.1592,6.1818,6.2149,6.23,6.2325,6.2651,6.2802,6.2802,6.2802,6.2802,6.2802,6.2802,6.2802,6.2802,6.2802,6.2802,6.2802,6.2802,6.2802,6.2802,6.2802,6.2802,6.2802,6.2802,6.2802,6.2802,6.2802,6.2802,6.2802,6.2802,6.2802,6.2802,6.2802,6.2802,6.2701,6.2375,6.23,6.2144,6.1592,6.1492,6.1316,6.0738,0.0,6.0512,6.0205,0.0,0.0,0.0,0.0,0.0,0.0,5.9483,0.0,0.0,0.0,0.0,0.0,0.0,0.0,6.0919,6.1642,0.0,6.23,6.2626,6.2802,6.2802,6.2802,6.2802,6.2802,6.2802,6.2802,6.2802,6.2802,6.2802,6.2802,6.2802,6.2802,6.2802,6.2802,6.2802,6.2802,6.2802,6.2802,6.2802,5.9508,6.0035,0.0,0.0,6.121,0.0,6.126,6.126,6.1285,6.1311,6.1743,6.2069,6.2069,6.2501,6.24,6.1411,0.0,0.0,0.0,6.1311,6.1311,6.1311,6.1311,0.0,6.1311,6.1311,6.1311,6.1311,6.1311,6.1567,6.2069,6.2069,6.2325,6.2802,6.2802,6.2802,6.2802,6.2802,6.2802,6.2802,6.2802,6.2802,6.2802,6.2802,6.2802,6.2802,6.2802,6.2802,6.2802,6.2802,6.2802,6.2802,6.2802,6.2802,6.2802,6.2802,6.2802,6.2802,6.2802,6.2802,6.2802,6.2802,6.2802,6.2802,6.2802,6.2802,6.2802,6.2802,6.2802,6.2651,6.2144,6.2069,6.1893,6.1361,6.126,6.1235,6.121,0.0,0.0,0.0,0.0,0.0,0.0,5.9608,5.9834,0.0,0.0,0.0,0.0,0.0,6.0894,6.1969,6.2044,6.23,6.2802,6.2802,6.2802,6.2802,6.2802,6.2802,6.2802,6.2802,6.2802,6.2802,6.2802,6.2802,6.2802,6.2802,6.2802,6.2802,6.2802,6.2802,6.2802,6.2802,6.2802,6.2802,0.0,0.0,6.1034,6.1185,6.121,6.1336,6.1743,6.1818,6.1969,6.2375,6.2526,6.2601,6.2601,6.2727,6.2701,6.2425,6.2425,6.2425,6.2425,6.2425,6.2425,6.2425,6.2425,6.2425,6.2425,6.2425,6.2425,6.2425,6.2425,6.2476,6.2601,6.2601,6.2676,6.2802,6.2802,6.2802,6.2802,6.2802,6.2802,6.2802,6.2802,6.2802,6.2802,6.2802,6.2802,6.2802,6.2802,6.2802,6.2802,6.2802,6.2802,6.2802,6.2802,6.2802,6.2802,6.2802,6.2802,6.2802,6.2802,6.2802,6.2802,6.2802,6.2802,6.2802,6.2802,6.2802,6.2802,6.2802,6.2802,6.2777,6.2626,6.2601,6.2425,6.1893,6.1818,6.1667,6.126,6.1085,0.0,0.0,6.0884,6.0808,6.0808,6.0808,6.0858,0.0,0.0,0.0,0.0,0.0,6.1718,6.1994,6.24,6.2676,6.2802,6.2802,6.2802,6.2802,6.2802,6.2802,6.2802,6.2802,6.2802,6.2802,6.2802,6.2802,6.2802,6.2802,6.2802,6.2802,6.2802,6.2802,6.2802,6.2802,6.2802,6.2802,6.1517,6.1567,6.1642,6.1893,6.1943,6.2044,6.2325,6.2375,6.2476,6.2777,6.2802,6.2802,6.2802,6.2802,6.2802,6.2802,6.2802,6.2802,6.2802,6.2802,6.2802,6.2802,6.2802,6.2802,6.2802,6.2802,6.2802,6.2802,6.2802,6.2802,6.2802,6.2802,6.2802,6.2802,6.2802,6.2802,6.2802,6.2802,6.2802,6.2802,6.2802,6.2802,6.2802,6.2802,6.2802,6.2802,6.2802,6.2802,6.2802,6.2802,6.2802,6.2802,6.2802,6.2802,6.2802,6.2802,6.2802,6.2802,6.2802,6.2802,6.2802,6.2802,6.2802,6.2802,6.2802,6.2802,6.2802,6.2802,6.2802,6.2802,6.2802,6.2802,6.2701,6.24,6.2375,6.225,6.1969,6.1718,0.0,6.1567,6.1361,6.121,6.121,6.121,6.1311,6.1562,0.0,0.0,6.2325,6.2375,6.2375,6.2375,6.2651,6.2802,6.2802,6.2802,6.2802,6.2802,6.2802,6.2802,6.2802,6.2802,6.2802,6.2802,6.2802,6.2802,6.2802,6.2802,6.2802,6.2802,6.2802,6.2802,6.2802,6.2802,6.2802,6.2802,6.2044,6.2119,6.225,6.2727,6.2802,6.2802,6.2802,6.2802,6.2802,6.2802,6.2802,6.2802,6.2802,6.2802,6.2802,6.2802,6.2802,6.2802,6.2802,6.2802,6.2802,6.2802,6.2802,6.2802,6.2802,6.2802,6.2802,6.2802,6.2802,6.2802,6.2802,6.2802,6.2802,6.2802,6.2802,6.2802,6.2802,6.2802,6.2802,6.2802,6.2802,6.2802,6.2802,6.2802,6.2802,6.2802,6.2802,6.2802,6.2802,6.2802,6.2802,6.2802,6.2802,6.2802,6.2802,6.2802,6.2802,6.2802,6.2802,6.2802,6.2802,6.2802,6.2802,6.2802,6.2802,6.2802,6.2802,6.2802,6.2802,6.2802,6.2802,6.2802,6.2802,6.2802,6.2802,6.2802,6.2802,0.0,6.2119,6.2119,6.1718,6.1461,6.1461,6.1461,6.1617,6.2094,6.2119,0.0,0.0,6.2802,6.2802,6.2802,6.2802,6.2802,6.2802,6.2802,6.2802,6.2802,6.2802,6.2802,6.2802,6.2802,6.2802,6.2802,6.2802,6.2802,6.2802,6.2802,6.2802,6.2802,6.2802,6.2802,6.2802,6.2802,6.2802,6.2802,6.2651,6.2676,6.2701,6.2802,6.2802,6.2802,6.2802,6.2802,6.2802,6.2802,6.2802,6.2802,6.2802,6.2802,6.2802,6.2802,6.2802,6.2802,6.2802,6.2802,6.2802,6.2802,6.2802,6.2802,6.2802,6.2802,6.2802,6.2802,6.2802,6.2802,6.2802,6.2802,6.2802,6.2802,6.2802,6.2802,6.2802,6.2802,6.2802,6.2802,6.2802,6.2802,6.2802,6.2802,6.2802,6.2802,6.2802,6.2802,6.2802,6.2802,6.2802,6.2802,6.2802,6.2802,6.2802,6.2802,6.2802,6.2802,6.2802,6.2802,6.2802,6.2802,6.2802,6.2802,6.2802,6.2802,6.2802,6.2802,6.2802,6.2802,6.2802,6.2802,6.2802,6.2802,6.2802,6.2802,6.2802,0.0,6.2676,6.2676,6.2601,6.2551,6.2551,6.2551,6.2576,6.2676,6.2676,6.2727,6.2802,6.2802,6.2802,6.2802,6.2802,6.2802,6.2802,6.2802,6.2802,6.2802,6.2802,6.2802,6.2802,6.2802,6.2802,6.2802,6.2802,6.2802,6.2802,6.2802,6.2802,6.2802,6.2802,6.2802,6.2802,6.2802,6.2802,6.2802,6.2802,6.2802,6.2802,6.2802,6.2802,6.2802,6.2802,6.2802,6.2802,6.2802,6.2802,6.2802,6.2802,6.2802,6.2802,6.2802,6.2802,6.2802,6.2802,6.2802,6.2802,6.2802,6.2802,6.2802,6.2802,6.2802,6.2802,6.2802,6.2802,6.2802,6.2802,6.2802,6.2802,6.2802,6.2802,6.2802,6.2802,6.2802,6.2802,6.2802,6.2802,6.2802,6.2802,6.2802,6.2802,6.2802,6.2802,6.2802,6.2802,6.2802,6.2802,6.2802,6.2802,6.2802,6.2802,6.2802,6.2802,6.2802,6.2802,6.2802,6.2802,6.2802,6.2802,6.2802,6.2802,6.2802,6.2802,6.2802,6.2802,6.2802,6.2802,6.2802,6.2802,6.2802,6.2802,0.0,0.0,6.2802,6.2802,6.2802,6.2802,6.2802,6.2802,6.2802,6.2802,6.2802,6.2802,6.2802,6.2802,6.2802,6.2802,6.2802,6.2802,6.2802,6.2802,6.2802,6.2802,6.2802,6.2802,6.2802,6.2802,6.2802,6.2802,6.2802,6.2802,6.2802,6.2802,6.2802,6.2802,6.2802,6.2802,6.2802,6.2802,6.2802,6.2802,6.2802,6.2802,6.2802,6.2802,6.2802,6.2802,6.2802,6.2802,6.2802,6.2802,6.2802,6.2802,6.2802,6.2802,6.2802,6.2802,6.2802,6.2802,6.2802,6.2802,6.2802,6.2802,6.2802,6.2802,6.2802,6.2802,6.2802,6.2802,6.2802,6.2802,6.2802,6.2802,6.2802,6.2802,6.2802,6.2802,6.2802,6.2802,6.2802,6.2802,6.2802,6.2802,6.2802,6.2802,6.2802,6.2802,6.2802,6.2802,6.2802,6.2802,6.2802,6.2802,6.2802,6.2802,6.2802,6.2802,6.2802,6.2802,6.2802,6.2802,6.2802,6.2802,6.2802,6.2802,6.2802,6.2802,6.2802,6.2802,6.2802,6.2802,6.2802,6.2802,6.2802,6.2802,6.2802,0.0,0.0,0.0,6.2802,6.2802,6.2802,6.2802,6.2802,6.2802,6.2802,6.2802,6.2802,6.2802,6.2802,6.2802,6.2802,6.2802,6.2802,6.2802,6.2802,6.2802,6.2802,6.2802,6.2802,6.2802,6.2802,6.2802,6.2802,6.2802,6.2802,6.2802,6.2802,6.2802,6.2802,6.2802,6.2802,6.2802,6.2802,6.2802,6.2802,6.2802,6.2802,6.2802,6.2802,6.2802,6.2802,6.2802,6.2802,6.2802,6.2802,6.2802,6.2802,6.2802,6.2802,6.2802,6.2802,6.2802,6.2802,6.2802,6.2802,6.2802,6.2802,6.2802,6.2802,6.2802,6.2802,6.2802,6.2802,6.2802,6.2802,6.2802,6.2802,6.2802,6.2802,6.2802,6.2802,6.2802,6.2802,6.2802,6.2802,6.2802,6.2802,6.2802,6.2802,6.2802,6.2802,6.2802,6.2802,6.2802,6.2802,6.2802,6.2802,6.2802,6.2802,6.2802,6.2802,6.2802,6.2802,6.2802,6.2802,6.2802,6.2802,6.2802,6.2802,6.2802,6.2802,6.2802,6.2802,6.2802,6.2802,6.2802,6.2802,6.2802,6.2802,6.2802,6.2802,0.0,0.0,6.2802,6.2802,6.2802,6.2802,6.2802,6.2802,6.2802,6.2802,6.2802,6.2802,6.2802,6.2802,6.2802,6.2802,6.2802,6.2802,6.2802,6.2802,6.2802,6.2802,6.2802,6.2802,6.2802,6.2802,6.2802,6.2802,6.2802,6.2802,6.2802,6.2802,6.2802,6.2802,6.2802,6.2802,6.2802,6.2802,6.2802,6.2802,6.2802,6.2802,6.2802,6.2802,6.2802,6.2802,6.2802,6.2802,6.2802,6.2802,6.2802,6.2802,6.2802,6.2802,6.2802,6.2802,6.2802,6.2802,6.2802,6.2802,6.2802,6.2802,6.2802,6.2802,6.2802,6.2802,6.2802,6.2802,6.2802,6.2802,6.2802,6.2802,6.2802,6.2802,6.2802,6.2802,6.2802,6.2802,6.2802,6.2802,6.2802,6.2802,6.2802,6.2802,6.2802,6.2802,6.2802,6.2802,6.2802,6.2802,6.2802,6.2802,6.2802,6.2802,6.2802,6.2802,6.2802,6.2802,6.2802,6.2802,6.2802,6.2802,6.2802,6.2802,6.2802,6.2802,6.2802,6.2802,6.2802,6.2802,6.2802,6.2802,6.2802,6.2802,6.2802,6.2802,0.0,6.2802,6.2802,6.2802,6.2802,6.2802,6.2802,6.2802,6.2802,6.2802,6.2802,6.2802,6.2802,6.2802,6.2802,6.2802,6.2802,6.2802,6.2802,6.2802,6.2802,6.2802,6.2802,6.2802,6.2802,6.2802,6.2802,6.2802,6.2802,6.2802,6.2802,6.2802,6.2802,6.2802,6.2802,6.2802,6.2802,6.2802,6.2802,6.2802,6.2802,6.2802,6.2802,6.2802,6.2802,6.2802,6.2802,6.2802,6.2802,6.2802,6.2802,6.2802,6.2802,6.2802,6.2802,6.2802,6.2802,6.2802,6.2978,6.3078,6.3078,6.3229,6.3178,6.2827,6.2802,6.2802,6.2802,6.2978,6.3078,6.3078,6.3229,6.3329,6.3329,6.3329,6.3329,6.3329,6.3329,6.3329,6.3329,6.3329,6.3329,6.3329,6.3329,6.3329,6.3329,6.3329,6.3329,6.3324,6.3128,6.3078,6.3053,6.2877,6.2802,6.2802,6.2802,6.2802,6.2802,6.2802,6.2802,6.2802,6.2802,6.2802,6.2802,6.2802,6.2802,6.2802,6.2802,6.2802,6.2802,6.2802,6.2802,6.2802,6.2802,6.2802,6.2802,6.2802,6.2802,6.2802,6.2802,6.2802,6.2802,6.2802,6.2802,6.2802,6.2802,6.2802,6.2802,6.2802,6.2802,6.2802,6.2802,6.2802,6.2802,6.2802,6.2802,6.2802,6.2802,6.2802,6.2802,6.2802,6.2802,6.2802,6.2802,6.2802,6.2802,6.2802,6.2802,6.2802,6.2802,6.2802,6.2802,6.2802,6.2802,6.2802,6.2802,6.2802,6.2802,6.2802,6.2802,6.2802,6.2802,6.2802,6.2802,6.2802,6.2802,6.2802,6.2802,6.2827,6.2827,6.2827,6.2827,6.2827,6.2827,6.2827,6.3375,6.3701,6.3701,6.4199,6.3998,6.2877,6.2827,6.2827,6.2827,6.34,6.3701,6.3701,6.4249,6.4496,6.4496,6.4496,6.4496,6.4496,6.4496,6.4496,6.4496,6.4496,6.4496,6.4496,6.4496,6.4496,6.4496,6.4496,6.4496,6.4446,6.3898,6.3701,6.3601,6.3003,6.2802,6.2802,6.2802,6.2802,6.2802,6.2802,6.2802,6.2802,6.2802,6.2802,6.2802,6.2802,6.2802,6.2802,6.2802,6.2802,6.2802,6.2802,6.2802,6.2802,6.2802,6.2802,6.2802,6.2802,6.2802,6.2802,6.2802,6.2802,6.2802,6.2802,6.2802,6.2802,6.2802,6.2802,6.2802,6.2802,6.2802,6.2802,6.2802,6.2802,6.2802,6.2802,6.2802,6.2802,6.2802,6.2802,6.2802,6.2802,6.2802,6.2802,6.2802,6.2802,6.2802,6.2802,6.2802,6.2802,6.2802,6.2802,6.2802,6.2802,6.2802,6.2802,6.2802,6.2802,6.2802,6.2802,6.2802,6.2802,6.2802,6.2802,6.2802,6.2802,6.2802,6.2802,6.2952,6.3375,6.3425,6.3576,6.3948,6.3998,6.3998,6.3998,6.4149,6.4249,6.4249,6.44,6.435,6.4023,6.3998,6.3998,6.3998,6.4174,6.4249,6.4249,6.44,6.4496,6.4496,6.4496,6.4496,6.4496,6.4496,6.4496,6.4496,6.4496,6.4496,6.4496,6.4496,6.4496,6.4496,6.4496,6.4496,6.4496,6.4325,6.4023,6.3676,6.35,6.3153,6.2802,6.2802,6.2802,6.2802,6.2802,6.2802,6.2802,6.2802,6.2802,6.2802,6.2802,6.2802,6.2802,6.2802,6.2802,6.2802,6.2802,6.2802,6.2802,6.2802,6.2802,6.2802,6.2802,6.2802,6.2802,6.2802,6.2802,6.2802,6.2802,6.2802,6.2802,6.2802,6.2802,6.2802,6.2802,6.2802,6.2802,6.2802,6.2802,6.2802,6.2802,6.2802,6.2802,6.2802,6.2802,6.2802,6.2802,6.2802,6.2802,6.2802,6.2802,6.2802,6.2802,6.2802,6.2802,6.2802,6.2802,6.2802,6.2802,6.2802,6.2802,6.2802,6.2802,6.2802,6.2802,6.2802,6.2802,6.2877,6.3103,6.3153,6.3229,6.345,6.3475,6.3601,6.3973,6.4023,6.4149,6.445,6.4496,6.4496,6.4496,6.4676,6.4902,6.5128,6.5128,6.5128,6.5128,6.5128,6.4927,6.4521,6.4701,6.4827,6.4827,6.5028,6.5128,6.5128,6.5128,6.5128,6.5128,6.5128,6.5128,6.5128,6.5128,6.5128,6.5128,6.5128,6.5128,6.5128,6.5128,6.5128,6.5103,6.4902,6.4601,6.4274,6.3827,6.3299,6.2802,6.2802,6.2802,6.2802,6.2802,6.2802,6.2802,6.2802,6.2802,6.2802,6.2802,6.2802,6.2802,6.2802,6.2802,6.2802,6.2802,6.2802,6.2802,6.2802,6.2802,6.2802,6.2802,6.2802,6.2802,6.2802,6.2802,6.2802,6.2802,6.2802,6.2802,6.2802,6.2802,6.2802,6.2802,6.2802,6.2802,6.2802,6.2802,6.2802,6.2802,6.2802,6.2802,6.2802,6.2802,6.2802,6.2802,6.2802,6.2802,6.2802,6.2802,6.2802,6.2802,6.2802,6.2802,6.2802,6.2802,6.2802,6.2802,6.2802,6.2802,6.2802,6.2802,6.2802,6.2802,6.2877,6.2927,6.3128,6.3676,6.3751,6.3948,6.4446,6.4496,6.4521,6.4572,6.4551,6.4597,6.4647,6.4626,6.4626,6.4626,6.5103,6.5584,6.6086,6.609,6.609,6.609,6.609,6.5634,6.4651,6.5128,6.5358,6.5358,6.586,6.609,6.609,6.609,6.609,6.609,6.609,6.609,6.609,6.609,6.609,6.609,6.609,6.609,6.609,6.609,6.609,6.6036,6.5534,6.5333,6.5132,6.4053,6.335,6.2877,6.2827,6.2802,6.2802,6.2802,6.2802,6.2802,6.2802,6.2802,6.2802,6.2802,6.2802,6.2802,6.2802,6.2802,6.2802,6.2802,6.2802,6.2802,6.2802,6.2802,6.2802,6.2802,6.2802,6.2802,6.2802,6.2802,6.2802,6.2802,6.2802,6.2802,6.2802,6.2802,6.2802,6.2802,6.2802,6.2802,6.2802,6.2802,6.2802,6.2802,6.2802,6.2802,6.2802,6.2802,6.2802,6.2802,6.2802,6.2802,6.2802,6.2802,6.2802,6.2802,6.2802,6.2802,6.2802,6.2802,6.2802,6.2802,6.2802,6.2802,6.2802,6.2802,6.2802,6.2802,6.35,6.3847,6.4174,6.43,6.4346,6.435,6.4496,6.4496,6.4651,6.5078,6.5128,6.5304,6.571,6.576,6.576,6.576,6.586,6.5986,6.609,6.609,6.609,6.609,6.609,6.5986,6.576,6.5886,6.5936,6.5936,6.604,6.609,6.609,6.609,6.609,6.609,6.609,6.609,6.609,6.609,6.609,6.609,6.609,6.609,6.609,6.609,6.609,6.6065,6.5986,6.566,6.5132,6.4053,6.3601,6.3425,6.2952,6.2802,6.2802,6.2802,6.2802,6.2802,6.2802,6.2802,6.2802,6.2802,6.2802,6.2802,6.2802,6.2802,6.2802,6.2802,6.2802,6.2802,6.2802,6.2802,6.2802,6.2802,6.2802,6.2802,6.2802,6.2802,6.2802,6.2802,6.2802,6.2802,6.2802,6.2802,6.2802,6.2802,6.2802,6.2802,6.2802,6.2802,6.2802,6.2802,6.2802,6.2802,6.2802,6.2802,6.2802,6.2802,6.2802,6.2802,6.2802,6.2802,6.2802,6.2802,6.2802,6.2802,6.2802,6.2802,6.2802,6.2802,6.2802,6.2802,6.2802,6.2802,6.2802,6.2802,6.4073,6.43,6.4576,6.4827,6.4877,6.4978,6.5208,6.5279,6.5358,6.5634,6.5685,6.5785,6.6086,6.609,6.609,6.609,6.609,6.609,6.609,6.609,6.609,6.609,6.609,6.609,6.609,6.609,6.609,6.609,6.609,6.609,6.609,6.609,6.609,6.609,6.609,6.609,6.609,6.609,6.609,6.609,6.609,6.609,6.609,6.609,6.609,6.609,6.609,6.576,6.5208,6.463,6.4103,6.3626,6.335,6.3028,6.2802,6.2802,6.2802,6.2802,6.2802,6.2802,6.2802,6.2802,6.2802,6.2802,6.2802,6.2802,6.2802,6.2802,6.2802,6.2802,6.2802,6.2802,6.2802,6.2802,6.2802,6.2802,6.2802,6.2802,6.2802,6.2802,6.2802,6.2802,6.2802,6.2802,6.2802,6.2802,6.2802,6.2802,6.2802,6.2802,6.2802,6.2802,6.2802,6.2802,6.2802,6.2802,6.2802,6.2802,6.2802,6.2802,6.2802,6.2802,6.2802,6.2802,6.2802,6.2802,6.2802,6.2802,6.2802,6.2802,6.2802,6.2802,6.2802,6.2802,6.2802,6.2802,6.4647,6.4701,6.4902,6.538,6.5434,6.5584,6.6015,6.609,6.609,6.609,6.609,6.609,6.609,6.609,6.609,6.609,6.609,6.609,6.609,6.609,6.609,6.609,6.609,6.609,6.609,6.609,6.609,6.609,6.609,6.609,6.609,6.609,6.609,6.609,6.609,6.609,6.609,6.609,6.609,6.609,6.609,6.609,6.609,6.609,6.609,6.609,6.609,6.581,6.5409,6.5333,6.4705,6.3927,6.3751,6.3375,6.2927,6.2827,6.2802,6.2802,6.2802,6.2802,6.2802,6.2802,6.2802,6.2802,6.2802,6.2802,6.2802,6.2802,6.2802,6.2802,6.2802,6.2802,6.2802,6.2802,6.2802,6.2802,6.2802,6.2802,6.2802,6.2802,6.2802,6.2802,6.2802,6.2802,6.2802,6.2802,6.2802,6.2802,6.2802,6.2802,6.2802,6.2802,6.2802,6.2802,6.2802,6.2802,6.2802,6.2802,6.2802,6.2802,6.2802,6.2802,6.2802,6.2802,6.2802,6.2802,6.2802,6.2802,6.2802,6.2802,6.2802,6.2802,6.2802,6.2802,6.2802,6.2802,6.5204,6.5559,6.5911,6.5986,6.5986,6.6036,6.609,6.609,6.609,6.609,6.609,6.609,6.609,6.609,6.609,6.609,6.609,6.609,6.609,6.609,6.609,6.609,6.609,6.609,6.609,6.609,6.609,6.609,6.609,6.609,6.609,6.609,6.609,6.609,6.609,6.609,6.609,6.609,6.609,6.609,6.609,6.609,6.609,6.609,6.609,6.609,6.609,6.604,6.5936,6.5459,6.5183,6.4906,6.3977,6.3626,6.3475,6.2952,6.2802,6.2802,6.2802,6.2802,6.2802,6.2802,6.2802,6.2802,6.2802,6.2802,6.2802,6.2802,6.2802,6.2802,6.2802,6.2802,6.2802,6.2802,6.2802,6.2802,6.2802,6.2802,6.2802,6.2802,6.2802,6.2802,6.2802,6.2802,6.2802,6.2802,6.2802,6.2802,6.2802,6.2802,6.2802,6.2802,6.2802,6.2802,6.2802,6.2802,6.2802,6.2802,6.2802,6.2802,6.2802,6.2802,6.2802,6.2802,6.2802,6.2802,6.2802,6.2802,6.2802,6.2802,6.2802,6.2802,6.2802,6.2802,6.2802,6.2802,6.576,6.5936,6.609,6.609,6.609,6.609,6.609,6.609,6.609,6.609,6.609,6.609,6.609,6.609,6.609,6.609,6.609,6.609,6.609,6.609,6.609,6.609,6.609,6.609,6.609,6.609,6.609,6.609,6.609,6.609,6.609,6.609,6.609,6.609,6.609,6.609,6.609,6.609,6.609,6.609,6.609,6.609,6.609,6.609,6.609,6.609,6.609,6.609,6.604,6.5835,6.5534,6.5229,6.4731,6.4178,6.3651,6.34,6.3053,6.2802,6.2802,6.2802,6.2802,6.2802,6.2802,6.2802,6.2802,6.2802,6.2802,6.2802,6.2802,6.2802,6.2802,6.2802,6.2802,6.2802,6.2802,6.2802,6.2802,6.2802,6.2802,6.2802,6.2802,6.2802,6.2802,6.2802,6.2802,6.2802,6.2802,6.2802,6.2802,6.2802,6.2802,6.2802,6.2802,6.2802,6.2802,6.2802,6.2802,6.2802,6.2802,6.2802,6.2802,6.2802,6.2802,6.2802,6.2802,6.2802,6.2802,6.2802,6.2802,6.2802,6.2802,6.2802,6.2802,6.2802,6.2802,6.2802]},{"header":{"parameterUnit":"m.s-1","parameterCategory":1,"la1":30.6,"la2":28.766,"lo1":-90.7593,"lo2":-88.6598,"dy":0.0162,"dx":0.0183,"nx":116,"ny":114,"refTime":"2023-11-08T06:00:00:Z","depth":0,"parameterNumber":3,"parameterNumberName":"V-component_of_WINDS"},"data":[0.0,0.0,0.0,0.0,0.0,0.0,0.0,0.0,0.0,0.0,0.0,0.0,0.0,0.0,0.0,0.0,0.0,0.0,0.0,0.0,0.0,0.0,0.0,0.0,0.0,0.0,0.0,0.0,0.0,0.0,0.0,0.0,0.0,0.0,0.0,0.0,0.0,0.0,0.0,0.0,0.0,0.0,0.0,0.0,0.0,0.0,0.0,0.0,0.0,0.0,0.0,0.0,0.0,0.0,0.0,0.0,0.0,0.0,0.0,0.0,0.0,0.0,0.0,0.0,0.0,0.0,0.0,0.0,0.0,0.0,0.0,0.0,0.0,0.0,0.0,0.0,0.0,0.0,0.0,0.0,0.0,0.0,0.0,0.0,0.0,0.0,0.0,0.0,0.0,0.0,0.0,0.0,0.0,0.0,0.0,0.0,0.0,0.0,0.0,0.0,0.0,0.0,0.0,0.0,0.0,0.0,0.0,0.0,0.0,0.0,0.0,0.0,0.0,0.0,0.0,0.0,0.0,0.0,0.0,0.0,0.0,0.0,0.0,0.0,0.0,0.0,0.0,0.0,0.0,0.0,0.0,0.0,0.0,0.0,0.0,0.0,0.0,0.0,0.0,0.0,0.0,0.0,0.0,0.0,0.0,0.0,0.0,0.0,0.0,0.0,0.0,0.0,0.0,0.0,0.0,0.0,0.0,0.0,0.0,0.0,0.0,0.0,0.0,0.0,0.0,0.0,0.0,0.0,0.0,0.0,0.0,0.0,0.0,0.0,0.0,0.0,0.0,0.0,0.0,0.0,0.0,0.0,0.0,0.0,0.0,0.0,0.0,0.0,0.0,0.0,0.0,0.0,0.0,0.0,0.0,0.0,0.0,0.0,0.0,0.0,0.0,0.0,0.0,0.0,0.0,0.0,0.0,0.0,0.0,0.0,0.0,0.0,0.0,0.0,0.0,0.0,0.0,0.0,0.0,0.0,0.0,0.0,0.0,0.0,0.0,0.0,0.0,0.0,0.0,0.0,0.0,0.0,0.0,0.0,0.0,0.0,0.0,0.0,0.0,0.0,0.0,0.0,0.0,0.0,0.0,0.0,0.0,0.0,0.0,0.0,0.0,0.0,0.0,0.0,0.0,0.0,0.0,0.0,0.0,0.0,0.0,0.0,0.0,0.0,0.0,0.0,0.0,0.0,0.0,0.0,0.0,0.0,0.0,0.0,0.0,0.0,0.0,0.0,0.0,0.0,0.0,0.0,0.0,0.0,0.0,0.0,0.0,0.0,0.0,0.0,0.0,0.0,0.0,0.0,0.0,0.0,0.0,0.0,0.0,0.0,0.0,0.0,0.0,0.0,0.0,0.0,0.0,0.0,0.0,0.0,0.0,0.0,0.0,0.0,0.0,0.0,0.0,0.0,0.0,0.0,0.0,0.0,0.0,0.0,0.0,0.0,0.0,0.0,0.0,0.0,0.0,0.0,0.0,0.0,0.0,0.0,0.0,0.0,0.0,0.0,0.0,0.0,0.0,0.0,0.0,0.0,0.0,0.0,0.0,0.0,0.0,0.0,0.0,0.0,0.0,0.0,0.0,0.0,0.0,0.0,0.0,0.0,0.0,0.0,0.0,0.0,0.0,0.0,0.0,0.0,0.0,0.0,0.0,0.0,0.0,0.0,0.0,0.0,0.0,0.0,0.0,0.0,0.0,0.0,0.0,0.0,0.0,0.0,0.0,0.0,0.0,0.0,0.0,0.0,0.0,0.0,0.0,0.0,0.0,0.0,0.0,0.0,0.0,0.0,0.0,0.0,0.0,0.0,0.0,0.0,0.0,0.0,0.0,0.0,0.0,0.0,0.0,0.0,0.0,0.0,0.0,0.0,0.0,0.0,0.0,0.0,0.0,0.0,0.0,0.0,0.0,0.0,0.0,0.0,0.0,0.0,0.0,0.0,0.0,0.0,0.0,0.0,0.0,0.0,0.0,0.0,0.0,0.0,0.0,0.0,0.0,0.0,0.0,0.0,0.0,0.0,0.0,0.0,0.0,0.0,0.0,0.0,0.0,0.0,0.0,0.0,0.0,0.0,0.0,0.0,0.0,0.0,0.0,0.0,0.0,0.0,0.0,0.0,0.0,0.0,0.0,0.0,0.0,0.0,0.0,0.0,0.0,0.0,0.0,0.0,0.0,0.0,0.0,0.0,0.0,0.0,0.0,0.0,0.0,0.0,0.0,0.0,0.0,0.0,0.0,0.0,0.0,0.0,0.0,0.0,0.0,0.0,0.0,0.0,0.0,0.0,0.0,0.0,0.0,0.0,0.0,0.0,0.0,0.0,0.0,0.0,0.0,0.0,0.0,0.0,0.0,0.0,0.0,0.0,0.0,0.0,0.0,0.0,0.0,0.0,0.0,0.0,0.0,0.0,0.0,0.0,0.0,0.0,0.0,0.0,0.0,0.0,0.0,0.0,0.0,0.0,0.0,0.0,0.0,0.0,0.0,0.0,0.0,0.0,0.0,0.0,0.0,0.0,0.0,0.0,0.0,0.0,0.0,0.0,0.0,0.0,0.0,0.0,0.0,0.0,0.0,0.0,0.0,0.0,0.0,0.0,0.0,0.0,0.0,0.0,0.0,0.0,0.0,0.0,0.0,0.0,0.0,0.0,0.0,0.0,0.0,0.0,0.0,0.0,0.0,0.0,0.0,0.0,0.0,0.0,0.0,0.0,0.0,0.0,0.0,0.0,0.0,0.0,0.0,0.0,0.0,0.0,0.0,0.0,0.0,0.0,0.0,0.0,0.0,0.0,0.0,0.0,0.0,0.0,0.0,0.0,0.0,0.0,0.0,0.0,0.0,0.0,0.0,0.0,0.0,0.0,0.0,0.0,0.0,0.0,0.0,0.0,0.0,0.0,0.0,0.0,0.0,0.0,0.0,0.0,0.0,0.0,0.0,0.0,0.0,0.0,0.0,0.0,0.0,0.0,0.0,0.0,0.0,0.0,0.0,0.0,0.0,0.0,0.0,0.0,0.0,0.0,0.0,0.0,0.0,0.0,0.0,0.0,0.0,0.0,0.0,0.0,0.0,0.0,0.0,0.0,0.0,0.0,0.0,0.0,0.0,0.0,0.0,0.0,0.0,0.0,0.0,0.0,0.0,0.0,0.0,0.0,0.0,0.0,0.0,0.0,0.0,0.0,0.0,0.0,0.0,0.0,0.0,0.0,0.0,0.0,0.0,0.0,0.0,0.0,0.0,0.0,0.0,0.0,0.0,0.0,0.0,0.0,0.0,0.0,0.0,0.0,0.0,0.0,0.0,0.0,0.0,0.0,0.0,0.0,0.0,0.0,0.0,0.0,0.0,0.0,0.0,0.0,0.0,0.0,0.0,0.0,0.0,0.0,0.0,0.0,0.0,0.0,0.0,0.0,0.0,0.0,0.0,0.0,0.0,0.0,0.0,0.0,0.0,0.0,0.0,0.0,0.0,0.0,0.0,0.0,0.0,0.0,0.0,0.0,0.0,0.0,0.0,0.0,0.0,0.0,0.0,0.0,0.0,0.0,0.0,0.0,0.0,0.0,0.0,0.0,0.0,0.0,0.0,0.0,0.0,0.0,0.0,0.0,0.0,0.0,0.0,0.0,0.0,0.0,0.0,0.0,0.0,0.0,0.0,0.0,0.0,0.0,0.0,0.0,0.0,0.0,0.0,0.0,0.0,0.0,0.0,0.0,0.0,0.0,0.0,0.0,0.0,0.0,0.0,0.0,0.0,0.0,0.0,0.0,0.0,0.0,0.0,0.0,0.0,0.0,0.0,0.0,0.0,0.0,0.0,0.0,0.0,0.0,0.0,0.0,0.0,0.0,0.0,0.0,0.0,0.0,0.0,0.0,0.0,0.0,0.0,0.0,0.0,0.0,0.0,0.0,0.0,0.0,0.0,0.0,0.0,0.0,0.0,0.0,0.0,0.0,0.0,0.0,0.0,0.0,0.0,0.0,0.0,0.0,0.0,0.0,0.0,0.0,0.0,0.0,0.0,0.0,0.0,0.0,0.0,0.0,0.0,0.0,0.0,0.0,0.0,0.0,0.0,0.0,0.0,0.0,0.0,0.0,0.0,0.0,0.0,0.0,0.0,0.0,0.0,0.0,0.0,0.0,0.0,0.0,0.0,0.0,0.0,0.0,0.0,0.0,0.0,0.0,0.0,0.0,0.0,0.0,0.0,0.0,0.0,0.0,0.0,0.0,0.0,0.0,0.0,0.0,0.0,0.0,0.0,0.0,0.0,0.0,0.0,0.0,0.0,0.0,0.0,0.0,0.0,0.0,0.0,0.0,0.0,0.0,0.0,0.0,0.0,0.0,0.0,0.0,0.0,0.0,0.0,0.0,0.0,0.0,0.0,0.0,0.0,0.0,0.0,0.0,0.0,0.0,0.0,0.0,0.0,0.0,0.0,0.0,0.0,0.0,0.0,0.0,0.0,0.0,0.0,0.0,0.0,0.0,0.0,0.0,0.0,0.0,0.0,0.0,0.0,0.0,0.0,0.0,0.0,0.0,0.0,0.0,0.0,0.0,0.0,0.0,0.0,0.0,0.0,0.0,0.0,0.0,0.0,0.0,0.0,0.0,0.0,0.0,0.0,0.0,0.0,0.0,0.0,0.0,0.0,0.0,0.0,0.0,0.0,0.0,0.0,0.0,0.0,0.0,0.0,0.0,0.0,0.0,0.0,0.0,0.0,0.0,0.0,0.0,0.0,0.0,0.0,0.0,0.0,0.0,0.0,0.0,0.0,0.0,0.0,0.0,0.0,0.0,0.0,0.0,0.0,0.0,0.0,0.0,0.0,0.0,0.0,0.0,0.0,0.0,0.0,0.0,0.0,0.0,0.0,0.0,0.0,0.0,0.0,0.0,0.0,0.0,0.0,0.0,0.0,0.0,0.0,0.0,0.0,0.0,0.0,0.0,0.0,0.0,0.0,0.0,0.0,0.0,0.0,0.0,0.0,0.0,0.0,0.0,0.0,0.0,0.0,0.0,0.0,0.0,0.0,0.0,0.0,0.0,0.0,0.0,0.0,0.0,0.0,0.0,0.0,0.0,0.0,0.0,0.0,0.0,0.0,0.0,0.0,0.0,0.0,0.0,0.0,0.0,0.0,0.0,0.0,0.0,0.0,0.0,0.0,0.0,0.0,0.0,0.0,0.0,0.0,0.0,0.0,0.0,0.0,0.0,0.0,0.0,0.0,0.0,0.0,0.0,0.0,0.0,0.0,0.0,0.0,0.0,0.0,0.0,0.0,0.0,0.0,0.0,0.0,0.0,0.0,0.0,0.0,0.0,0.0,0.0,0.0,0.0,0.0,0.0,0.0,0.0,0.0,0.0,0.0,0.0,0.0,0.0,0.0,0.0,0.0,0.0,0.0,0.0,0.0,0.0,0.0,0.0,0.0,0.0,0.0,0.0,0.0,0.0,0.0,0.0,0.0,0.0,0.0,0.0,0.0,0.0,0.0,0.0,0.0,0.0,0.0,0.0,0.0,0.0,0.0,0.0,0.0,0.0,0.0,0.0,0.0,0.0,0.0,0.0,0.0,0.0,0.0,0.0,0.0,0.0,0.0,0.0,0.0,0.0,0.0,0.0,0.0,0.0,0.0,0.0,0.0,0.0,0.0,0.0,0.0,0.0,0.0,0.0,0.0,0.0,0.0,0.0,0.0,0.0,0.0,0.0,0.0,0.0,0.0,0.0,0.0,0.0,0.0,0.0,0.0,0.0,0.0,0.0,0.0,0.0,0.0,0.0,0.0,0.0,0.0,0.0,0.0,0.0,0.0,0.0,0.0,0.0,0.0,0.0,0.0,0.0,0.0,0.0,0.0,0.0,0.0,0.0,0.0,0.0,0.0,0.0,0.0,0.0,0.0,0.0,0.0,0.0,0.0,0.0,0.0,0.0,0.0,0.0,0.0,0.0,0.0,0.0,0.0,0.0,0.0,0.0,0.0,0.0,0.0,0.0,0.0,0.0,0.0,0.0,0.0,0.0,0.0,0.0,0.0,0.0,0.0,0.0,0.0,0.0,0.0,0.0,0.0,0.0,0.0,0.0,0.0,0.0,0.0,0.0,0.0,0.0,0.0,0.0,3.9066,0.0,0.0,0.0,0.0,0.0,0.0,0.0,0.0,0.0,0.0,0.0,0.0,0.0,0.0,0.0,0.0,0.0,0.0,0.0,0.0,0.0,0.0,0.0,0.0,0.0,0.0,0.0,0.0,0.0,0.0,0.0,0.0,0.0,0.0,0.0,0.0,0.0,0.0,0.0,3.8693,3.8982,3.9296,3.8944,3.8818,3.8818,0.0,0.0,0.0,0.0,0.0,0.0,0.0,0.0,0.0,0.0,0.0,0.0,0.0,0.0,0.0,0.0,0.0,0.0,0.0,0.0,0.0,0.0,0.0,0.0,0.0,0.0,0.0,0.0,0.0,0.0,0.0,0.0,0.0,0.0,0.0,0.0,0.0,0.0,0.0,0.0,0.0,0.0,0.0,0.0,0.0,0.0,0.0,0.0,0.0,0.0,0.0,0.0,0.0,0.0,0.0,0.0,0.0,0.0,0.0,0.0,0.0,0.0,0.0,0.0,0.0,0.0,0.0,0.0,0.0,0.0,0.0,3.9469,0.0,0.0,0.0,0.0,0.0,0.0,0.0,0.0,0.0,0.0,0.0,0.0,0.0,0.0,0.0,0.0,0.0,0.0,0.0,0.0,0.0,0.0,0.0,0.0,0.0,0.0,0.0,0.0,0.0,0.0,0.0,0.0,0.0,0.0,0.0,3.8743,3.9044,3.9044,3.9484,3.9697,3.9697,3.9697,3.9697,3.9697,3.9697,0.0,0.0,0.0,0.0,0.0,0.0,0.0,0.0,0.0,0.0,0.0,0.0,0.0,0.0,0.0,0.0,0.0,0.0,0.0,0.0,0.0,0.0,0.0,0.0,0.0,0.0,0.0,0.0,0.0,0.0,0.0,0.0,0.0,0.0,0.0,0.0,0.0,0.0,0.0,0.0,0.0,0.0,0.0,0.0,0.0,0.0,0.0,0.0,0.0,0.0,0.0,0.0,0.0,0.0,0.0,0.0,0.0,0.0,0.0,0.0,0.0,0.0,0.0,4.1603,4.1603,4.1603,4.1603,4.1603,4.1495,3.9607,3.9747,4.1222,0.0,0.0,0.0,0.0,0.0,0.0,0.0,0.0,0.0,0.0,0.0,0.0,0.0,0.0,0.0,0.0,0.0,0.0,0.0,0.0,0.0,0.0,0.0,3.6393,3.6393,3.6845,3.7098,0.0,0.0,0.0,0.0,0.0,0.0,3.8793,3.9308,3.9597,3.9597,3.9685,3.9697,3.9697,3.9697,3.9697,3.9697,3.9697,3.9697,3.971,0.0,0.0,0.0,0.0,0.0,0.0,0.0,0.0,0.0,0.0,0.0,0.0,0.0,0.0,0.0,0.0,0.0,0.0,0.0,0.0,0.0,0.0,0.0,0.0,0.0,0.0,0.0,0.0,0.0,0.0,0.0,0.0,0.0,0.0,0.0,0.0,0.0,0.0,0.0,0.0,0.0,3.9697,3.9697,0.0,0.0,0.0,0.0,0.0,0.0,0.0,0.0,0.0,0.0,0.0,0.0,0.0,0.0,4.2085,4.2523,4.2774,4.2774,4.2774,4.2774,4.2774,4.2774,4.2774,4.276,4.2457,0.0,4.1275,4.1141,0.0,0.0,0.0,0.0,0.0,0.0,0.0,0.0,0.0,0.0,0.0,0.0,0.0,0.0,0.0,0.0,0.0,0.0,0.0,0.0,0.0,3.6669,3.6859,3.6859,3.7349,3.7638,3.7638,0.0,0.0,0.0,0.0,3.9333,3.9333,3.9584,3.9697,3.9697,3.9697,3.9697,3.9697,3.9697,3.9697,3.9697,3.9697,3.9697,3.9697,3.9697,0.0,0.0,0.0,0.0,0.0,0.0,0.0,0.0,0.0,0.0,0.0,0.0,0.0,0.0,0.0,0.0,0.0,0.0,0.0,0.0,0.0,0.0,0.0,0.0,0.0,0.0,0.0,0.0,0.0,0.0,0.0,0.0,0.0,0.0,0.0,0.0,0.0,0.0,0.0,3.9948,4.0149,4.0149,4.0625,4.0951,0.0,0.0,0.0,0.0,0.0,0.0,0.0,0.0,0.0,4.2258,4.2498,4.2788,4.3115,4.3327,4.3589,4.389,4.389,4.389,4.389,4.389,4.389,4.389,4.389,4.3625,4.3109,4.2495,4.2258,4.2258,0.0,0.0,0.0,0.0,0.0,4.2258,0.0,0.0,0.0,0.0,0.0,0.0,0.0,0.0,0.0,0.0,0.0,0.0,3.6607,3.7085,3.7387,3.7387,3.7914,3.8241,3.8241,3.8781,0.0,0.0,3.9484,3.9697,3.9697,3.9697,3.9697,3.9697,3.9697,3.9697,3.9697,3.9697,3.9697,3.9697,3.9697,3.9697,3.9697,3.9697,3.9697,3.9697,0.0,0.0,0.0,0.0,0.0,0.0,0.0,0.0,0.0,0.0,0.0,0.0,0.0,0.0,0.0,0.0,0.0,0.0,0.0,0.0,0.0,0.0,0.0,0.0,0.0,0.0,0.0,0.0,0.0,0.0,0.0,0.0,0.0,0.0,0.0,0.0,0.0,4.0462,4.07,4.07,4.1177,4.1542,0.0,0.0,0.0,0.0,0.0,0.0,4.2587,4.2989,4.3277,4.3402,4.3402,4.3589,4.4016,4.4001,4.4202,4.4589,4.4589,4.4589,4.4589,4.4589,4.4589,4.4589,4.4589,4.4589,4.4554,4.374,4.3402,4.3402,4.3402,4.3402,4.3402,4.3402,4.3402,4.3402,0.0,0.0,0.0,0.0,0.0,0.0,0.0,0.0,0.0,0.0,0.0,3.7148,3.7148,3.7638,3.7965,3.7965,3.8504,3.8843,3.8843,3.9358,3.966,3.966,3.9685,3.9697,3.9697,3.9697,3.9697,3.9697,3.9697,3.9697,3.9697,3.9697,3.9697,3.9697,3.9697,3.9697,3.9697,3.9697,3.9697,3.9697,3.9697,0.0,0.0,0.0,0.0,0.0,0.0,0.0,0.0,0.0,0.0,0.0,0.0,0.0,0.0,0.0,0.0,0.0,0.0,0.0,0.0,0.0,0.0,0.0,0.0,0.0,0.0,0.0,0.0,0.0,0.0,0.0,0.0,0.0,0.0,0.0,0.0,0.0,0.0,4.1264,4.1781,0.0,0.0,0.0,0.0,4.29,4.2939,4.3176,4.3689,4.374,4.3976,4.4489,4.4529,4.4514,4.4564,4.4564,4.4564,4.4589,4.4589,4.4589,4.4589,4.4589,4.4589,4.4589,4.4589,4.4589,4.4604,4.4539,4.4529,4.4529,4.4529,4.4529,4.4529,4.4529,4.4529,4.4529,0.0,0.0,0.0,0.0,0.0,0.0,0.0,0.0,0.0,3.6859,3.7085,3.7324,3.7688,3.8228,3.858,3.858,3.9082,3.9409,3.9409,3.9597,3.9697,3.9697,3.9697,3.9697,3.9697,3.9697,3.9697,3.9697,3.9697,3.9697,3.9697,3.9697,3.9697,3.9697,3.9697,3.9697,3.9697,3.9697,3.9697,3.9697,3.9697,3.9697,0.0,0.0,0.0,0.0,0.0,0.0,0.0,0.0,0.0,0.0,0.0,0.0,0.0,0.0,0.0,0.0,0.0,0.0,0.0,0.0,0.0,0.0,0.0,0.0,0.0,0.0,0.0,0.0,0.0,0.0,0.0,0.0,0.0,0.0,0.0,0.0,0.0,4.187,4.2386,0.0,4.2713,4.3201,4.3514,4.3514,4.384,4.4102,4.4303,4.4303,4.4403,4.4589,4.4589,4.478,4.5171,4.5171,4.5347,4.5683,4.5683,4.5683,4.5683,4.5683,4.5683,4.5683,4.5683,4.5683,4.5683,4.5683,4.5257,4.4589,4.4589,4.4589,4.4589,4.4589,4.4589,4.4589,0.0,0.0,0.0,0.0,0.0,0.0,0.0,0.0,0.0,3.7399,3.7663,3.7914,3.8266,3.8831,3.917,3.917,3.9484,3.9697,3.9697,3.9697,3.9697,3.9697,3.9697,3.9697,3.9697,3.9697,3.9697,3.9697,3.9697,3.9697,3.9697,3.9697,3.9697,3.9697,3.9697,3.9697,3.9697,3.9697,3.9697,3.9697,3.9697,3.9697,3.9697,0.0,0.0,0.0,0.0,0.0,0.0,0.0,0.0,0.0,0.0,0.0,0.0,0.0,0.0,0.0,0.0,0.0,0.0,0.0,0.0,0.0,0.0,0.0,0.0,0.0,0.0,0.0,0.0,0.0,0.0,0.0,0.0,0.0,0.0,0.0,4.2551,4.2713,4.3051,4.3352,4.3528,4.3865,4.4077,4.4077,4.4403,4.4704,4.488,4.4905,4.498,4.5181,4.5181,4.5357,4.5788,4.5949,4.621,4.6587,4.6737,4.6838,4.6838,4.6838,4.6838,4.6838,4.6838,4.6838,4.6838,4.6838,4.6386,4.5683,4.5307,4.5181,4.5181,4.5181,4.5181,4.5181,0.0,0.0,0.0,0.0,0.0,0.0,0.0,3.7223,3.7424,3.7965,3.8529,3.8894,3.8919,3.9383,3.9697,3.9697,3.9697,3.9697,3.9697,3.9697,3.9697,3.9697,3.9697,3.9697,3.9697,3.9697,3.9697,3.9697,3.9697,3.9697,3.9697,3.9697,3.9697,3.9697,3.9697,3.9697,3.9697,3.9697,3.9697,3.9697,3.9697,3.9697,3.9697,0.0,0.0,0.0,0.0,0.0,0.0,0.0,0.0,0.0,0.0,0.0,0.0,0.0,0.0,0.0,0.0,0.0,0.0,0.0,0.0,0.0,0.0,0.0,0.0,0.0,0.0,0.0,0.0,0.0,0.0,0.0,0.0,0.0,4.3039,4.3025,4.3226,4.3765,4.3815,4.4027,4.4539,4.4629,4.4629,4.4629,4.464,4.4905,4.5472,4.5537,4.5773,4.6311,4.6336,4.6336,4.6336,4.6888,4.7124,4.7124,4.7641,4.7908,4.7908,4.7908,4.7908,4.7908,4.7908,4.7908,4.7908,4.7908,4.7908,4.7807,4.6778,4.6336,4.6336,4.6336,4.6361,4.6361,0.0,0.0,0.0,0.0,0.0,0.0,0.0,3.7789,3.799,3.858,3.8793,3.9044,3.9434,3.9609,3.9697,3.9697,3.9697,3.9697,3.9697,3.9697,3.9697,3.9697,3.9697,3.9697,3.9697,3.9697,3.9697,3.9697,3.9697,3.9697,3.9697,3.9697,3.9697,3.9697,3.9697,3.9697,3.9697,3.9697,3.9697,3.9697,3.9697,3.9697,3.9697,0.0,0.0,0.0,0.0,0.0,0.0,0.0,0.0,0.0,0.0,0.0,0.0,0.0,0.0,0.0,0.0,0.0,0.0,0.0,0.0,0.0,0.0,0.0,0.0,0.0,0.0,0.0,0.0,0.0,0.0,0.0,0.0,4.4027,4.3639,4.3589,4.379,4.4328,4.4378,4.4453,4.4604,4.4995,4.5246,4.5246,4.5608,4.5909,4.606,4.6461,4.6737,4.6873,4.7265,4.7465,4.7465,4.7616,4.7666,4.7666,4.7817,4.7908,4.7908,4.7908,4.7908,4.7908,4.7908,4.7908,4.7908,4.7908,4.7908,4.7867,4.7581,4.7465,4.7465,4.7465,4.7732,4.8099,0.0,0.0,0.0,0.0,0.0,0.0,0.0,3.8379,3.858,3.917,3.9245,3.9358,3.9685,3.9697,3.9697,3.9697,3.9697,3.9697,3.9697,3.9697,3.9697,3.9697,3.9697,3.9697,3.9697,3.9697,3.9697,3.9697,3.9697,3.9697,3.9697,3.9697,3.9697,3.9697,3.9697,3.9697,3.9697,3.9697,3.9697,3.9697,3.9697,3.9697,3.9697,3.9697,3.9697,3.9697,3.9697,3.9697,3.9697,3.9697,0.0,0.0,0.0,0.0,0.0,0.0,0.0,0.0,0.0,0.0,0.0,0.0,0.0,0.0,0.0,0.0,0.0,0.0,0.0,0.0,0.0,0.0,0.0,0.0,4.4403,4.4579,4.4518,4.4278,4.4328,4.4905,4.498,4.5056,4.5282,4.5623,4.5924,4.6135,4.6461,4.6737,4.6979,4.7265,4.744,4.744,4.7741,4.8033,4.8259,4.851,4.872,4.8946,4.9213,4.9314,4.9314,4.9314,4.9314,0.0,4.9314,4.9314,4.9314,4.9314,4.9314,0.0,0.0,0.0,0.0,0.0,4.8134,4.8426,0.0,0.0,0.0,0.0,0.0,0.0,0.0,3.8994,3.917,3.9635,3.9697,3.9697,3.9697,3.9697,3.9697,3.9697,3.9697,3.9697,3.9697,3.9697,3.9697,3.9697,3.9697,3.9697,3.9697,3.9697,3.9697,3.9697,3.9697,3.9722,3.9798,3.9798,3.9823,3.9873,3.9873,3.9873,3.9873,3.9873,3.9873,3.9873,3.9873,3.981,3.9697,3.9697,3.9747,3.9798,3.9798,3.9823,3.9873,3.9873,0.0,0.0,0.0,0.0,0.0,0.0,0.0,0.0,0.0,0.0,0.0,0.0,0.0,0.0,0.0,0.0,0.0,0.0,0.0,0.0,0.0,0.0,0.0,0.0,4.474,4.498,4.5497,4.5181,4.5056,4.5522,4.5623,4.5874,4.6336,4.6436,4.6687,4.7149,4.7199,4.74,4.7867,0.0,0.0,0.0,0.0,4.8535,4.9069,4.9556,5.0017,5.0503,5.1046,5.1289,5.1289,5.1289,5.1289,5.1289,5.1289,5.1289,5.1289,5.1289,5.1289,5.1088,4.9012,4.8168,4.8168,4.8109,4.8134,0.0,0.0,0.0,0.0,0.0,0.0,0.0,0.0,3.9559,3.9584,3.9685,3.9697,3.9697,3.9697,3.9697,3.9697,3.9697,3.9697,3.9697,3.9697,3.9697,3.9697,3.9697,3.9697,3.9697,3.9697,3.9697,3.9697,3.9697,3.9697,3.9923,4.0337,4.0337,4.0588,4.1001,4.1001,4.1001,4.1001,4.1001,4.1001,4.1001,4.1001,4.0487,3.9697,3.9697,3.9973,4.0337,4.0337,4.0625,4.1001,4.1001,4.1001,4.1026,4.1113,4.1138,0.0,0.0,0.0,0.0,0.0,0.0,0.0,0.0,0.0,0.0,0.0,0.0,0.0,0.0,0.0,0.0,0.0,0.0,0.0,4.5321,4.5698,4.601,4.6125,4.6436,4.6496,4.6185,4.6537,4.6823,4.6923,4.734,4.7616,4.7741,4.7741,4.7792,4.7892,4.8786,0.0,4.9264,5.0159,5.0711,5.0812,5.0912,5.1013,5.1138,0.0,0.0,5.1289,5.1289,5.1289,5.1289,5.1289,5.1289,5.1289,5.1289,5.1289,5.1214,5.0293,4.9925,4.985,4.9439,4.9565,4.9925,0.0,0.0,0.0,0.0,0.0,0.0,0.0,3.9697,3.9697,3.9697,3.9697,3.9697,3.9697,3.9697,3.9697,3.9697,3.9697,3.9697,3.9697,3.9697,3.9697,3.9697,3.9697,3.9697,3.9697,3.9697,3.9697,3.9697,3.9973,4.0236,4.0512,4.0775,4.1038,4.1289,4.1289,4.1289,4.1289,4.1289,4.1289,4.1289,4.1289,4.0976,4.0512,4.0512,4.0675,4.0901,4.0901,4.1063,4.1289,4.1289,4.1289,4.1339,4.1656,4.1756,4.1806,0.0,0.0,0.0,0.0,0.0,0.0,0.0,0.0,0.0,0.0,0.0,0.0,0.0,0.0,4.5045,4.5045,0.0,4.5899,4.5899,4.6336,4.6712,4.6712,4.7149,4.7315,4.6747,4.7164,4.7516,4.7516,4.7741,4.8134,4.8711,4.8761,4.8987,4.9565,5.0142,5.046,5.046,5.1013,5.144,5.1699,5.1699,5.1825,5.2101,5.2101,5.2101,5.2101,5.2101,5.2101,5.2101,5.2101,5.2101,5.2101,5.2101,5.2101,5.2051,5.1456,5.1096,5.082,5.0561,5.0619,5.0845,0.0,0.0,0.0,0.0,0.0,0.0,0.0,0.0,3.9697,3.9697,3.9697,3.9697,3.9697,3.9697,3.9697,3.9697,3.9697,3.9697,3.9697,3.9697,3.9697,3.9697,3.9697,3.9697,3.9697,3.9697,3.9747,3.9861,4.0287,4.0613,4.0852,4.1266,4.1528,4.1628,4.1628,4.1628,4.1628,4.1628,4.1628,4.1628,4.1628,4.1628,4.1628,4.1628,4.1578,4.1478,4.1478,4.1528,4.1628,4.1628,4.1628,4.1717,4.221,4.235,4.245,4.2864,4.3014,0.0,0.0,0.0,0.0,0.0,0.0,0.0,0.0,4.4704,4.478,4.478,4.5231,4.5663,4.5663,4.61,4.6461,4.6461,4.6913,4.7249,4.7249,4.7716,4.7958,4.7626,4.7867,4.8134,4.8234,4.8319,4.8812,4.9841,4.9916,5.0334,5.1239,5.1389,5.1465,5.1465,5.1565,5.1825,5.2234,5.2277,5.246,5.2895,5.2895,5.2895,5.2895,5.2895,5.2895,5.2895,5.2895,5.2895,5.2895,5.2895,5.2895,5.2845,5.241,5.2,5.159,5.1389,5.1289,5.1289,0.0,0.0,0.0,0.0,0.0,0.0,0.0,0.0,0.0,3.9697,3.9697,3.9697,3.9697,3.9697,3.9697,3.9697,3.9697,3.9697,3.9697,3.9697,3.9697,3.9697,3.9697,3.9697,3.9697,3.9697,3.9923,4.0412,4.0462,4.1028,4.2023,4.2073,4.2361,4.2799,4.2799,4.2799,4.2799,4.2799,4.2799,4.2799,4.2799,4.2799,4.2799,4.2799,4.2498,4.2098,4.2098,4.2411,4.2799,4.2799,4.2799,4.2824,4.2889,4.2914,4.2914,4.2975,4.3014,4.3101,4.3589,4.4066,4.4428,4.4503,4.4514,4.4529,0.0,4.5006,4.5412,4.5412,4.5824,4.621,4.621,4.6662,4.7023,4.7023,4.7465,4.7817,4.7817,4.8309,4.8853,4.9264,4.8953,4.8878,4.9364,4.9841,5.0393,5.1063,5.1113,5.1163,5.1289,5.1749,5.2026,5.2026,5.246,5.2762,5.2795,5.2795,5.2845,5.2895,5.2895,5.2895,5.2895,5.2895,5.2895,5.2895,5.2895,5.2895,5.2895,5.2895,5.2895,5.2895,5.282,5.2787,5.2611,5.1649,5.1289,5.1289,0.0,0.0,0.0,0.0,0.0,0.0,0.0,0.0,0.0,0.0,3.9697,3.9697,3.9697,3.9697,3.9697,3.9697,3.9697,3.9697,3.9697,3.9697,3.9697,3.9697,3.9697,3.9697,3.9697,3.9998,4.0287,4.0512,4.1153,4.1733,4.2199,4.2526,4.2788,4.3014,4.3014,4.3014,4.3014,4.3014,4.3014,4.3014,4.3014,4.3014,4.3028,4.317,4.3016,4.2676,4.2676,4.2813,0.0,4.3014,4.3014,4.3014,4.3014,4.3014,4.3051,4.3377,4.3478,4.3589,4.4127,4.4428,4.4679,4.5045,4.5121,4.5221,4.5508,4.5784,4.5974,4.5974,4.6386,4.6863,4.7164,4.7415,4.7666,4.8033,4.8275,4.8426,4.8426,4.9163,4.9816,5.0042,5.0184,5.0334,5.0561,5.0795,5.1147,5.1724,5.1766,5.19,5.2209,5.2435,5.2561,5.2561,5.2787,5.2895,5.2895,5.2895,5.2895,5.2895,5.2895,5.2895,5.2895,5.2895,5.2895,5.2895,5.2895,5.2895,5.2895,5.2895,5.2895,5.2895,5.2895,5.2895,5.2862,5.2385,5.2226,5.2226,0.0,0.0,0.0,0.0,0.0,0.0,0.0,0.0,0.0,0.0,0.0,3.9697,3.9697,3.9697,3.9697,3.9697,3.9697,3.9697,3.9697,3.9697,3.9697,3.9697,3.9697,3.9697,3.9697,4.0236,4.0575,4.0725,4.1694,4.2274,4.2425,4.2813,4.3014,4.3014,4.3014,4.3014,4.3014,4.3073,4.3101,4.3101,4.3101,4.3101,4.3115,4.324,4.3226,4.3101,4.3101,4.3045,4.3014,4.3014,4.3014,4.3014,4.3014,4.3101,4.3302,4.3689,4.4016,4.4342,4.4729,4.4955,4.5181,4.5598,4.5723,4.5824,4.621,4.6286,4.6386,4.6662,4.7064,4.749,4.8058,4.8284,4.846,4.8752,4.8928,4.9079,4.9229,4.9916,5.0528,5.0829,5.1247,5.159,5.1741,5.1615,5.1724,5.2285,5.231,5.2485,5.2887,5.2895,5.2895,5.2895,5.2895,5.2895,5.2895,5.2895,5.2895,5.2895,5.2895,5.2895,5.2895,5.2895,5.2895,5.2895,5.2895,5.2895,5.2895,5.2895,5.2895,5.2895,5.2895,5.2895,5.2895,5.2895,5.2895,5.2895,0.0,0.0,0.0,0.0,0.0,0.0,0.0,0.0,0.0,0.0,0.0,0.0,0.0,3.9697,3.9697,3.9697,3.9697,3.9697,3.9697,3.9697,3.9697,3.9697,3.9697,3.9697,3.9697,4.0236,4.075,4.1264,4.1909,4.2475,4.2989,4.2989,4.3014,4.3014,4.3014,4.3014,4.3028,4.3282,4.3381,4.3381,4.3381,4.3381,4.3365,4.3101,4.317,4.3381,4.3381,4.3226,4.3014,4.3014,4.3014,4.3014,4.3014,4.3352,4.379,4.379,4.4568,4.5462,4.5462,4.5849,4.6235,4.6261,4.6261,4.6261,4.6286,4.6286,4.6602,4.7657,4.7867,4.8058,4.8652,4.9204,4.938,4.8894,4.9229,4.9766,5.0277,5.0377,5.0804,5.1925,5.2059,5.2285,0.0,5.2385,5.2285,5.2837,5.2887,5.287,5.2895,5.2895,5.2895,5.2895,5.2895,5.2895,5.2895,5.2895,5.2895,5.2895,5.2895,5.2895,5.2895,5.2895,5.2895,5.2895,5.2895,5.2895,5.2895,5.2895,5.2895,5.2895,5.2895,5.2895,5.2895,5.2895,5.2895,5.2895,0.0,0.0,0.0,0.0,0.0,0.0,0.0,0.0,0.0,0.0,0.0,0.0,0.0,0.0,0.0,0.0,3.9697,3.9697,3.9697,3.9697,3.9697,3.9697,3.9697,3.9873,4.0211,4.075,4.1316,4.1895,4.2462,4.2813,4.3014,4.3014,4.3014,4.3014,4.3184,4.3268,4.3295,4.3598,4.3722,4.3722,4.3722,4.3722,4.3736,4.3833,4.3819,4.3722,0.0,4.3667,4.3529,4.314,4.3115,4.329,4.3484,4.3639,4.394,4.4694,4.5447,4.6024,4.6024,4.616,4.6286,4.6286,4.6286,4.6286,4.6286,4.6838,4.7465,4.7832,4.851,4.9188,4.9766,4.9715,4.9665,4.9841,5.0001,5.0274,5.0737,5.1221,5.1758,5.2346,5.2563,0.0,0.0,0.0,0.0,5.2887,5.2895,5.2895,5.2895,5.2895,5.2895,5.2895,5.2895,5.2895,5.2895,5.2895,5.2895,5.2895,5.3264,5.3632,5.4027,5.4027,5.4027,5.4027,5.4027,5.3808,5.3414,5.3414,5.3213,5.2895,5.2895,5.2895,5.2895,5.2895,5.2895,5.2895,0.0,0.0,0.0,0.0,0.0,0.0,0.0,0.0,0.0,0.0,0.0,0.0,0.0,0.0,0.0,0.0,0.0,3.9697,3.9697,3.9697,3.9697,3.9697,3.9873,4.0188,4.0632,4.1294,4.1861,4.2336,4.2779,4.3014,4.3014,4.3014,4.3031,4.3142,4.3323,4.3395,4.3434,4.386,4.3996,4.3913,4.401,4.4051,4.4064,4.4121,4.4094,0.0,4.3791,4.3915,4.4052,4.3279,4.3336,4.372,4.3789,4.4091,4.4637,4.5778,4.6278,4.6491,4.6491,4.6556,4.6586,4.6346,4.6783,4.7207,4.6924,4.7674,4.8476,4.8727,4.9213,4.9766,5.0302,5.0101,5.0017,5.0352,5.0402,5.0659,5.1457,5.1975,5.2472,5.3046,5.3207,5.3282,0.0,0.0,0.0,5.3118,5.2981,5.2964,5.3101,5.3118,5.305,5.2895,5.3234,5.3396,5.3396,5.3597,5.3767,5.3906,5.4095,5.4396,5.4774,5.465,5.4597,5.4597,5.4597,5.4378,5.4027,5.4027,5.3808,5.3507,5.3507,5.3507,5.3507,5.3507,5.3507,5.3457,0.0,0.0,0.0,0.0,0.0,0.0,0.0,0.0,0.0,0.0,0.0,0.0,0.0,0.0,0.0,0.0,0.0,0.0,3.9697,3.9697,3.9697,3.9697,4.0237,4.0657,4.0932,4.1794,4.2361,4.2632,4.2888,4.3014,4.3014,4.3014,4.3156,4.3395,4.3423,4.3462,4.3464,4.4054,4.4162,4.3968,4.4217,4.4326,4.4285,4.4051,4.4119,4.4244,4.3669,4.3986,4.4505,4.3443,4.3653,4.4317,4.399,4.4644,4.5756,4.683,4.6964,4.6776,4.6806,4.7004,4.7053,4.6506,4.7714,4.881,4.811,4.8708,4.9609,5.0249,5.0024,4.9839,5.0302,5.0435,5.0451,5.0419,5.0485,5.1036,5.243,5.2632,5.3012,5.392,5.4014,5.4014,0.0,0.0,0.0,5.3597,0.0,5.3101,5.3563,5.358,5.3409,5.3039,5.3906,5.4375,5.4384,5.4875,5.533,5.5749,5.5338,5.5187,5.5195,5.4885,5.4726,5.4726,5.4726,5.4726,5.47,5.47,5.4675,5.465,5.465,5.465,5.465,5.4632,5.4632,5.4464,0.0,0.0,0.0,0.0,0.0,0.0,0.0,0.0,0.0,0.0,0.0,0.0,0.0,0.0,0.0,0.0,0.0,0.0,3.9697,3.9697,3.9697,3.9697,4.0395,4.1044,4.1568,4.2172,4.2729,4.3203,4.3078,4.3014,4.3014,4.3198,4.3337,4.3409,4.3862,4.408,4.4107,4.4463,4.4546,4.4504,4.4559,4.4586,4.4573,4.4531,4.4558,4.4546,4.4217,4.4217,4.4351,4.4082,4.4643,4.5439,4.5148,4.5547,4.6155,4.6431,4.6481,4.6466,4.6731,4.6866,4.7017,4.7514,4.8344,4.8958,4.8764,4.9867,5.079,5.0277,5.0583,5.0844,5.0475,5.0843,5.1022,5.0484,5.1585,5.2619,5.2983,5.3392,5.3817,5.43,5.414,5.4014,5.4014,5.3929,0.0,0.0,5.3946,5.369,5.45,5.4543,5.4687,5.4984,5.5224,5.5335,5.5327,5.5481,5.5797,5.6277,5.6189,5.6366,5.6819,5.6729,5.6675,5.6675,5.6675,5.642,5.602,5.602,5.5783,5.5418,5.5418,5.5418,5.5365,5.5084,5.4961,5.49,0.0,0.0,0.0,0.0,0.0,0.0,0.0,0.0,0.0,0.0,0.0,0.0,0.0,0.0,0.0,0.0,0.0,0.0,0.0,3.9697,3.9697,3.9697,4.0368,4.1042,4.1771,4.2207,4.2819,4.3626,4.3309,4.324,4.339,4.3556,4.3669,4.3807,4.4148,4.4299,4.4326,4.4573,4.4627,0.0,0.0,4.4695,4.4695,4.4695,4.4695,4.4654,4.4408,4.4566,4.485,4.4693,4.5121,4.5773,4.5996,4.6194,4.6376,4.6795,4.6721,4.6616,4.7078,4.7197,4.7391,4.8297,4.9142,4.9847,5.0041,5.0936,5.1528,5.0825,5.0864,5.1023,5.089,5.1201,5.1542,5.1617,5.2525,5.3328,5.3735,5.4019,5.4343,5.4738,5.4604,5.4469,5.4469,5.4567,5.4876,0.0,5.468,5.4517,5.5443,5.5512,5.5571,5.5697,5.6086,5.6431,5.6671,5.6847,5.7072,5.7391,5.7187,5.7279,5.7613,5.7469,5.7397,5.7397,0.0,5.7218,5.6892,5.6892,5.6731,5.6467,5.6467,5.6467,5.6406,5.6175,5.6104,5.6069,0.0,0.0,0.0,0.0,0.0,0.0,0.0,0.0,0.0,0.0,0.0,0.0,0.0,0.0,0.0,0.0,0.0,0.0,0.0,0.0,3.9697,3.9697,4.029,4.0988,4.1771,4.218,4.2874,4.3899,4.36,4.3626,4.3899,4.3941,4.4092,4.4299,4.434,4.4354,4.4367,4.4586,4.4559,4.4367,4.46,4.4695,4.4695,0.0,4.4695,4.4654,4.4408,4.4871,4.5594,4.5279,4.5392,4.5817,4.6519,4.6566,4.6526,4.7335,4.7242,4.6974,4.7556,4.7822,4.8125,4.8905,5.0073,5.1116,5.144,5.181,5.1932,5.1444,5.1094,5.0982,5.1415,5.1685,5.2154,5.3047,5.3345,5.3701,5.44,5.4561,5.4695,5.5065,5.5099,5.5125,5.5203,5.536,5.5647,5.6084,5.5607,5.5615,5.6444,5.6504,5.6348,5.6086,5.6848,5.755,5.8085,5.8449,5.8653,5.8714,5.8375,5.8214,5.8196,5.7891,5.7773,5.7773,0.0,0.0,5.7773,5.7773,5.7773,5.7773,5.7773,5.7773,5.7773,5.7718,5.77,5.77,0.0,0.0,0.0,0.0,0.0,0.0,0.0,0.0,0.0,0.0,0.0,0.0,0.0,0.0,0.0,0.0,0.0,0.0,0.0,0.0,0.0,3.9697,4.0706,4.1436,4.1784,4.2707,4.3406,4.3899,4.3844,4.3844,4.3899,4.4121,4.4258,4.4313,4.4544,4.4627,4.4627,4.4668,4.4668,4.4627,4.4668,4.4695,4.4695,4.4695,0.0,0.0,4.4408,4.4996,4.5907,4.5608,4.5981,4.656,4.6426,4.6551,4.6761,4.6925,4.7023,4.7205,4.7615,4.8391,4.9203,4.9648,5.097,5.2103,5.169,5.2019,5.2164,5.1321,5.1687,5.2046,5.1589,5.2718,5.3614,5.3275,5.408,5.4718,5.4518,5.4788,5.5032,5.5082,5.5099,5.5282,5.5726,5.5789,0.0,0.0,5.7286,5.7277,5.7434,5.7477,5.7634,5.8015,5.8172,5.8538,5.913,5.9202,5.9482,5.9916,5.9817,5.9807,5.9807,5.9752,5.9716,5.9716,0.0,0.0,5.9716,5.9716,5.9716,5.9716,5.9716,5.9716,5.968,5.9388,5.9304,5.9267,0.0,0.0,0.0,0.0,0.0,0.0,0.0,0.0,0.0,0.0,3.9697,3.9697,0.0,0.0,0.0,0.0,0.0,0.0,0.0,0.0,0.0,0.0,4.0233,4.0756,4.1326,4.2139,4.2916,4.3656,0.0,4.4176,4.4326,4.4463,4.4517,4.4517,4.4627,4.4695,4.4695,4.4695,4.4695,4.4695,4.4695,4.4695,4.4695,0.0,0.0,0.0,4.4408,4.5023,4.5952,4.5694,4.6221,4.6979,4.6815,4.678,4.6866,4.7182,4.7246,4.7386,4.8184,4.8692,4.927,5.0474,5.1204,5.1675,5.1988,5.204,5.1889,5.1455,5.1982,5.2494,5.2485,5.3423,5.4216,5.4197,5.4699,5.5032,5.4839,5.4982,5.5099,5.5099,5.536,5.5621,5.5883,5.6458,5.7093,5.766,5.7939,5.8122,5.8122,5.841,5.8697,5.8959,5.9255,5.9524,5.9803,5.9803,5.996,6.0203,6.0203,6.0203,6.0203,6.0203,6.0203,6.0203,6.0203,0.0,6.0674,6.0674,6.0857,6.1136,6.1136,6.1136,6.1066,6.0594,6.0416,6.0371,0.0,0.0,0.0,0.0,0.0,0.0,0.0,3.9697,3.9697,3.9697,3.9697,3.9697,3.9697,3.9697,0.0,0.0,0.0,0.0,0.0,0.0,0.0,0.0,0.0,0.0,4.079,0.0,0.0,4.3312,4.3926,0.0,0.0,0.0,0.0,0.0,4.4695,4.4695,4.4695,4.4695,4.4695,0.0,0.0,4.4695,0.0,0.0,0.0,0.0,0.0,4.5121,4.6078,4.5865,4.6483,4.7324,4.7383,4.7216,4.7093,4.7556,4.7545,4.7659,4.8785,4.9079,4.9438,5.1038,5.1282,5.1361,5.2119,5.1936,5.1622,5.1769,5.2276,5.2877,5.3452,5.4027,5.455,5.502,5.5099,5.5099,5.5099,5.5099,5.5099,5.5099,5.5569,5.5944,5.6092,5.7076,5.78,5.8035,5.8549,0.0,5.8706,5.9246,5.9612,5.9743,6.0065,6.0308,6.0569,6.0465,6.0465,6.0588,6.0588,6.0588,6.0588,6.0588,6.0588,6.0588,6.0588,0.0,0.0,6.1275,6.1555,6.201,6.201,6.201,6.1939,6.1476,6.1275,6.1241,0.0,0.0,0.0,0.0,0.0,0.0,0.0,3.9697,3.9697,3.9697,3.9697,3.9697,3.9697,3.9697,0.0,0.0,0.0,0.0,0.0,0.0,0.0,0.0,0.0,0.0,0.0,0.0,0.0,4.3029,4.3658,0.0,0.0,0.0,0.0,0.0,0.0,4.4695,4.4695,4.4695,0.0,0.0,0.0,0.0,0.0,0.0,0.0,0.0,0.0,4.5425,4.6445,4.6417,4.6973,4.7718,4.8011,4.788,4.763,4.7689,4.7894,4.8244,4.893,4.983,5.0651,5.0838,5.1596,5.2223,5.1779,5.1622,5.1753,5.2302,5.2903,5.3478,5.4027,5.4602,5.5046,5.5099,5.5099,5.5099,5.5099,5.5099,5.5099,5.5099,5.5569,5.6118,5.665,5.7312,5.8113,5.916,5.9751,0.0,5.9325,5.983,6.0386,6.0935,6.0465,6.0744,6.1809,6.1293,6.1293,6.1835,6.1835,6.1835,6.1835,6.1835,6.1835,6.1835,0.0,0.0,0.0,6.1913,6.1939,6.201,6.201,6.201,6.201,6.1939,6.1913,6.1913,0.0,0.0,0.0,0.0,0.0,0.0,0.0,3.9697,3.9697,3.9697,3.9697,3.9697,3.9697,3.9697,3.9697,0.0,0.0,0.0,0.0,0.0,0.0,0.0,0.0,0.0,0.0,0.0,4.1776,4.2515,4.3281,0.0,0.0,0.0,0.0,0.0,0.0,4.4695,4.4695,4.4695,0.0,0.0,0.0,0.0,0.0,0.0,0.0,0.0,0.0,0.0,4.6501,4.6501,4.716,4.8011,4.8157,4.8099,4.7997,4.7997,4.8099,4.8396,4.9337,4.9912,5.0435,5.11,5.1622,5.1884,5.1648,5.1596,5.1779,5.238,5.2981,5.3556,5.4105,5.4707,5.5099,5.5099,5.5099,5.5099,5.5099,5.5099,5.5099,5.5099,5.5892,5.6536,5.6798,5.7634,5.8514,5.9343,6.0222,0.0,6.0431,6.0621,6.1013,6.1607,6.1416,6.1521,6.201,6.1756,6.1756,6.201,6.201,6.201,6.201,6.201,6.201,6.201,6.201,0.0,0.0,6.2496,6.2705,6.3011,6.3011,6.3011,6.2985,6.2626,6.2496,6.2443,0.0,0.0,0.0,0.0,0.0,0.0,3.9697,3.9697,3.9697,3.9697,3.9697,3.9697,3.9697,3.9697,3.9697,3.9697,0.0,0.0,0.0,0.0,0.0,0.0,0.0,0.0,0.0,0.0,4.1248,4.1956,4.267,4.3255,0.0,0.0,4.447,4.4695,0.0,0.0,0.0,0.0,0.0,0.0,0.0,0.0,0.0,0.0,0.0,0.0,0.0,0.0,0.0,0.0,0.0,4.8187,4.8187,4.8187,4.8187,4.8187,4.8317,4.8683,4.9651,5.0043,5.0409,5.1361,5.1596,5.1596,5.1596,5.1596,5.1831,5.2589,5.3086,5.3609,5.4341,5.4811,5.5099,5.5099,5.5099,5.5099,5.5099,5.5099,5.5177,5.5308,5.6196,5.6876,5.7033,5.8244,5.9255,5.9848,6.0797,0.0,6.1588,6.1431,6.1633,6.2227,6.207,6.207,6.2253,6.207,6.201,6.201,6.201,6.201,6.201,6.201,6.201,6.201,0.0,0.0,0.0,6.2555,6.2809,6.3194,6.3194,6.3454,6.3793,6.3378,6.35,6.3811,0.0,0.0,0.0,0.0,0.0,0.0,0.0,3.9697,3.9697,3.9697,3.9697,3.9697,3.9697,3.9697,3.9697,3.9697,0.0,0.0,0.0,0.0,0.0,0.0,0.0,0.0,0.0,0.0,0.0,4.1415,4.1673,4.2397,4.3499,4.3499,4.3944,4.4681,0.0,0.0,0.0,0.0,0.0,0.0,0.0,0.0,0.0,0.0,0.0,0.0,0.0,0.0,0.0,0.0,0.0,0.0,0.0,4.8187,4.8187,4.8187,4.8631,4.9206,4.9755,5.0331,5.0917,5.1465,5.1596,5.1596,5.1596,5.1596,5.1936,5.3138,5.34,5.3739,5.4889,5.5099,5.5099,5.5099,5.5099,5.5099,5.5099,5.5099,5.5308,5.583,5.6415,5.7033,5.7617,5.9202,6.0439,6.104,6.1652,0.0,6.2764,6.226,6.2253,6.279,6.226,6.2234,6.279,6.2279,6.201,6.201,6.201,6.201,6.201,6.201,6.201,0.0,0.0,0.0,0.0,6.201,6.201,6.2037,6.2037,6.289,6.4192,6.4192,6.512,6.6367,0.0,0.0,0.0,0.0,0.0,0.0,0.0,3.9697,3.9697,3.9697,3.9697,3.9697,3.9697,3.9697,3.9697,3.9697,0.0,0.0,0.0,0.0,0.0,0.0,0.0,0.0,0.0,0.0,0.0,0.0,0.0,4.1815,4.2346,4.3136,4.3642,4.3891,4.4159,4.4463,0.0,0.0,0.0,0.0,0.0,0.0,0.0,0.0,0.0,0.0,0.0,0.0,0.0,0.0,0.0,0.0,0.0,0.0,0.0,4.8187,4.8631,4.9206,4.974,5.0357,5.0932,5.1465,5.1596,5.1596,5.1596,5.1596,5.1936,5.3138,5.34,5.3739,5.4889,5.5099,5.5099,5.5099,5.5099,5.5099,5.5099,5.5099,5.5308,5.5857,5.6815,5.78,5.8767,5.9673,6.0465,6.1066,6.1678,0.0,6.2234,6.2096,6.2253,6.279,6.226,6.207,6.2253,6.207,6.201,6.201,6.201,6.2545,6.3481,6.3481,0.0,0.0,0.0,0.0,0.0,6.5003,6.5003,6.5003,6.5003,6.5289,6.5715,6.5715,6.6015,6.6391,0.0,0.0,0.0,0.0,0.0,0.0,0.0,3.9697,3.9697,3.9697,3.9697,3.9697,3.9697,3.9697,3.9697,3.9697,0.0,0.0,0.0,0.0,0.0,0.0,0.0,0.0,0.0,0.0,0.0,0.0,0.0,0.0,0.0,0.0,4.3278,4.3511,4.3931,4.4354,0.0,0.0,0.0,0.0,0.0,0.0,4.4544,0.0,0.0,0.0,0.0,0.0,0.0,0.0,0.0,0.0,0.0,0.0,0.0,0.0,4.8762,4.9468,4.9808,5.0472,5.1178,5.1518,5.1596,5.1596,5.1596,5.1779,5.2223,5.3191,5.3556,5.4001,5.4942,5.5099,5.5099,5.5099,5.5099,5.5099,5.5099,5.5099,5.5386,5.6153,5.7468,5.8715,5.9612,6.0222,6.0778,6.1398,0.0,0.0,6.201,6.2545,6.2975,6.3327,6.2449,6.201,6.201,6.2537,6.2834,6.2834,6.3398,6.4129,6.5021,6.5021,0.0,0.0,0.0,0.0,0.0,6.6391,6.6391,6.6391,6.6391,6.6769,6.726,6.726,6.7633,6.8095,0.0,0.0,0.0,0.0,0.0,0.0,0.0,0.0,0.0,0.0,3.9697,3.9697,3.9697,3.9697,3.9697,0.0,0.0,0.0,0.0,0.0,0.0,0.0,0.0,0.0,0.0,0.0,0.0,4.0453,4.0453,4.076,4.1324,0.0,0.0,4.3419,4.3741,4.4162,0.0,0.0,0.0,0.0,0.0,0.0,0.0,0.0,0.0,0.0,0.0,0.0,0.0,0.0,0.0,0.0,0.0,0.0,0.0,0.0,0.0,0.0,0.0,5.0734,5.1596,5.1596,5.1596,5.1596,5.1596,5.2067,0.0,5.3269,5.3818,5.4393,5.4994,5.5099,5.5099,5.5099,5.5099,5.5099,5.5099,5.5177,5.5647,5.6798,5.8383,5.9612,6.0203,6.0778,6.1346,6.1939,0.0,0.0,6.216,6.3554,6.4346,6.4346,6.3037,6.2302,6.2302,6.3664,6.4346,6.4364,6.5751,6.6444,6.6549,6.6549,0.0,0.0,0.0,0.0,0.0,6.6706,6.6706,6.6706,6.6706,6.7616,6.8868,6.8868,6.9715,7.0889,0.0,0.0,0.0,0.0,0.0,0.0,0.0,0.0,0.0,0.0,0.0,3.9697,3.9697,3.9697,0.0,0.0,0.0,0.0,0.0,0.0,0.0,0.0,0.0,0.0,0.0,0.0,0.0,4.0198,4.0198,4.0287,4.0427,4.1696,0.0,0.0,0.0,0.0,0.0,0.0,0.0,0.0,0.0,0.0,0.0,0.0,0.0,0.0,4.5381,4.5836,0.0,0.0,0.0,0.0,0.0,0.0,0.0,0.0,4.8997,4.9912,4.9912,0.0,5.1596,5.1596,5.1596,5.1596,0.0,5.2067,5.2668,5.3269,5.3818,5.4393,5.4994,5.5099,5.5099,5.5099,5.5099,5.5099,5.5099,5.5857,5.6806,5.7956,5.888,5.9795,6.0778,6.1013,6.1346,6.1939,0.0,6.3682,6.3682,6.5074,6.5892,6.5892,6.5556,6.5378,6.5378,6.5715,6.5892,6.5892,6.6216,6.7029,6.8163,6.8163,0.0,0.0,0.0,0.0,6.9831,6.9831,6.9831,6.9831,6.9831,7.0075,7.037,7.037,7.0612,7.0889,0.0,0.0,0.0,0.0,0.0,0.0,0.0,0.0,0.0,0.0,0.0,0.0,0.0,0.0,0.0,0.0,0.0,0.0,0.0,0.0,0.0,0.0,0.0,0.0,0.0,0.0,0.0,0.0,0.0,4.0236,0.0,0.0,0.0,0.0,0.0,0.0,0.0,0.0,0.0,0.0,4.3819,0.0,0.0,0.0,0.0,0.0,4.507,4.5465,0.0,4.6997,4.7324,4.7294,0.0,0.0,0.0,0.0,4.9232,4.9965,5.0252,5.0943,5.1596,5.1596,5.1596,5.1596,5.1596,5.2276,5.3008,5.3321,5.4053,5.4707,5.5046,5.5099,5.5099,5.5099,5.5099,5.5203,5.5438,5.6249,5.7225,5.8348,5.9255,6.0382,0.0,6.1745,6.222,6.3893,0.0,6.4509,6.5164,6.6636,6.7461,6.7461,6.8112,6.7804,6.6391,6.7088,6.7461,6.7478,6.8146,6.8901,6.9715,6.9715,7.014,0.0,0.0,0.0,7.0889,7.0889,7.0889,7.0889,7.0889,7.0889,7.0889,7.0889,7.0889,7.0889,0.0,0.0,0.0,0.0,0.0,0.0,0.0,0.0,0.0,0.0,0.0,0.0,0.0,0.0,0.0,0.0,0.0,0.0,0.0,0.0,0.0,0.0,0.0,0.0,0.0,0.0,0.0,0.0,0.0,0.0,0.0,0.0,4.2766,0.0,0.0,0.0,0.0,0.0,0.0,0.0,4.386,0.0,0.0,0.0,0.0,0.0,0.0,0.0,0.0,4.7048,4.7398,4.7309,4.7924,0.0,0.0,0.0,0.0,0.0,5.0644,5.1178,5.1596,5.1596,5.1596,5.1596,5.1596,5.2537,5.34,5.34,5.4314,5.5099,5.5099,5.5099,5.5099,5.5099,5.5099,5.5334,5.5961,5.6672,5.751,5.8645,6.0017,6.1557,6.3271,6.2967,6.3701,0.0,0.0,6.5431,6.6671,6.8197,6.9036,6.9036,7.0255,6.9741,6.7247,6.8441,6.9036,6.9052,7.0423,7.1038,7.1068,7.1158,7.1218,0.0,0.0,0.0,7.1218,7.1218,7.1218,7.1218,7.1218,7.1218,7.1218,7.1218,7.1218,7.1218,0.0,0.0,0.0,0.0,0.0,0.0,0.0,0.0,0.0,0.0,0.0,0.0,0.0,0.0,0.0,0.0,0.0,0.0,0.0,0.0,0.0,0.0,0.0,0.0,0.0,0.0,0.0,0.0,0.0,0.0,4.1269,4.2174,4.2856,0.0,0.0,0.0,0.0,0.0,0.0,0.0,4.324,0.0,0.0,0.0,0.0,0.0,0.0,0.0,0.0,4.6771,4.7038,4.7265,4.7633,0.0,0.0,0.0,0.0,0.0,5.0644,5.1178,5.1596,5.1596,5.1596,5.1596,5.1596,5.2537,5.34,5.34,5.4314,5.5099,5.5099,5.5099,5.5099,5.5099,5.5099,5.5465,5.6493,5.7783,5.8917,5.9825,6.2302,6.3943,6.4048,6.5073,6.5927,0.0,0.0,6.8112,6.8332,6.9748,7.0563,7.0563,7.0775,7.0946,7.104,7.0733,7.0563,7.0563,7.1359,7.1743,7.1773,7.2309,7.2578,0.0,0.0,7.2578,7.2578,7.2578,7.2578,7.2578,7.2578,7.2578,7.2578,7.2578,7.2578,7.2578,0.0,0.0,0.0,0.0,0.0,0.0,0.0,0.0,0.0,0.0,0.0,0.0,0.0,0.0,0.0,0.0,0.0,0.0,0.0,0.0,0.0,0.0,4.07,0.0,0.0,0.0,0.0,0.0,0.0,4.124,4.1795,4.2635,4.3083,4.3194,0.0,0.0,0.0,0.0,0.0,0.0,0.0,0.0,0.0,0.0,0.0,0.0,0.0,0.0,0.0,0.0,4.7112,4.7235,4.7383,0.0,0.0,0.0,0.0,0.0,5.0995,5.1413,5.1596,5.1596,5.1596,5.169,5.2014,5.2772,5.3478,5.3766,5.4497,5.5099,5.5099,5.5099,5.5099,5.5099,5.5334,5.583,5.6676,5.8307,5.99,0.0,0.0,6.5157,6.6488,6.6507,0.0,0.0,0.0,0.0,6.9847,7.0531,7.0889,7.0889,7.1248,7.1593,7.1893,7.1966,7.198,7.198,7.2295,7.2445,7.2445,7.2757,7.3086,7.3432,0.0,7.3642,7.3971,7.3971,7.3971,7.3971,7.3971,7.3971,7.3971,7.3971,7.3971,7.3971,0.0,0.0,0.0,0.0,0.0,0.0,0.0,0.0,0.0,0.0,0.0,0.0,0.0,0.0,0.0,0.0,0.0,0.0,0.0,0.0,4.1364,4.1503,4.1517,4.1428,0.0,0.0,4.1378,4.1517,4.1517,4.1806,4.24,4.301,4.3192,0.0,0.0,0.0,0.0,0.0,0.0,0.0,0.0,0.0,0.0,0.0,0.0,0.0,0.0,0.0,0.0,0.0,0.0,0.0,0.0,0.0,0.0,4.9282,4.9794,5.0331,5.1335,5.1596,5.1596,5.1596,5.1596,5.1753,5.2354,5.2955,5.3556,5.4105,5.468,5.5099,5.5099,5.5099,5.5099,5.5099,5.5845,5.6616,5.7206,5.9457,6.1505,6.2833,6.4689,6.6617,6.8533,0.0,0.0,0.0,0.0,0.0,7.0824,7.0889,7.0979,7.1128,7.1637,7.2042,7.2372,7.3043,7.3206,7.2907,7.3223,7.3373,7.3373,7.3685,7.4074,7.4599,7.4599,7.4869,7.5335,7.5335,7.5335,7.5335,7.5335,7.5335,7.5335,7.5335,7.5335,7.5335,0.0,0.0,0.0,0.0,0.0,0.0,0.0,0.0,0.0,0.0,0.0,0.0,0.0,0.0,0.0,0.0,0.0,0.0,0.0,0.0,4.1542,4.2123,4.2149,4.187,0.0,4.1289,4.1567,4.2149,4.2149,4.2411,4.2939,4.3003,4.3031,4.2995,0.0,0.0,0.0,0.0,0.0,0.0,0.0,0.0,0.0,0.0,0.0,0.0,0.0,0.0,0.0,0.0,0.0,0.0,0.0,0.0,4.874,4.9609,5.0274,5.088,5.1439,5.1596,5.1596,5.1596,5.1596,5.1753,5.2354,5.2955,5.3556,5.4105,5.468,5.5099,5.5099,5.5099,5.5099,5.5099,5.67,5.8128,5.8675,0.0,6.4592,6.4459,6.7483,6.9367,0.0,0.0,0.0,0.0,0.0,0.0,7.0873,7.0889,7.1188,7.1803,7.1863,7.2491,7.3732,7.4407,7.4121,7.2907,7.4168,7.4766,7.4796,7.5988,7.6557,7.6587,7.6587,7.6617,7.6659,7.6659,7.6659,7.6659,7.6659,7.6659,7.6659,7.6659,7.6659,7.6659,0.0,0.0,0.0,0.0,0.0,0.0,0.0,0.0,0.0,0.0,0.0,0.0,0.0,0.0,0.0,0.0,0.0,0.0,0.0,0.0,4.2473,4.2688,4.2688,4.2573,4.2359,4.2359,4.2473,4.2688,4.2688,4.2788,4.3014,4.3014,0.0,0.0,0.0,0.0,0.0,0.0,0.0,0.0,0.0,0.0,0.0,0.0,0.0,0.0,0.0,0.0,0.0,0.0,4.7098,4.6945,4.687,4.7641,4.8687,4.918,5.0036,5.0932,5.1439,5.1596,5.1596,5.1596,5.1884,5.2328,5.2929,5.3243,5.3661,5.4576,5.4942,5.5099,5.5099,5.5099,5.5203,5.5543,5.7274,5.8786,5.9384,6.2975,6.565,6.5942,6.8341,0.0,0.0,0.0,0.0,0.0,0.0,0.0,7.0889,7.1308,7.1653,7.1893,7.2731,7.3599,7.4497,7.5185,7.5467,7.533,7.5839,7.6078,7.6096,7.6587,7.7035,7.7424,7.7424,7.7664,7.8041,7.8041,7.8041,7.8041,7.8041,7.8041,7.8041,7.8041,7.8041,7.8041,0.0,0.0,0.0,0.0,0.0,0.0,0.0,0.0,0.0,0.0,0.0,0.0,0.0,0.0,0.0,0.0,0.0,0.0,0.0,0.0,4.3014,4.3014,4.3014,4.3014,4.3014,4.3014,4.3014,4.3014,4.3014,4.3014,4.3014,0.0,0.0,0.0,0.0,0.0,0.0,0.0,0.0,0.0,0.0,0.0,0.0,0.0,0.0,0.0,0.0,0.0,0.0,0.0,4.7023,4.6816,4.6848,4.7777,4.8946,4.9419,5.0265,5.1141,5.1492,5.1596,5.1648,5.1831,5.2197,5.2694,5.3478,5.3635,5.3922,5.4916,5.5099,5.5099,5.5099,5.5438,5.5912,5.6484,5.8614,6.0403,6.1058,6.4445,6.7027,6.7451,6.9147,7.044,0.0,0.0,0.0,0.0,0.0,0.0,0.0,7.1534,7.2013,7.2206,7.3539,7.4557,7.5215,7.6066,7.6706,7.7125,7.7335,7.7335,7.7125,7.7335,7.7664,7.813,7.813,7.837,7.8807,7.8807,7.8807,7.8807,7.8807,7.8807,7.8807,7.8807,7.8807,7.8807,0.0,0.0,0.0,0.0,0.0,0.0,0.0,0.0,0.0,0.0,0.0,0.0,0.0,0.0,0.0,0.0,0.0,0.0,0.0,4.3014,4.3014,4.3014,4.3014,4.3014,4.3014,4.3014,4.3014,4.3014,4.3014,4.3014,4.3014,4.3014,0.0,0.0,0.0,0.0,0.0,0.0,0.0,0.0,4.3815,4.4493,0.0,0.0,0.0,0.0,0.0,0.0,0.0,0.0,4.7023,4.6967,4.7833,4.8704,4.9591,5.0511,5.1178,5.1596,5.1596,5.1596,5.1727,5.2354,5.2485,5.2798,5.3949,5.421,5.4367,5.4968,5.5099,5.5099,5.5099,5.6203,0.0,5.7993,6.0847,6.3243,6.3927,6.6891,6.9004,6.9004,7.0141,7.0889,0.0,0.0,0.0,0.0,0.0,0.0,0.0,7.1534,7.2222,7.2877,7.4227,7.5245,7.5916,7.7173,7.7801,7.7831,7.8489,7.846,7.7813,7.8489,7.8807,7.8807,7.8807,7.8807,7.8807,7.8807,7.8807,7.8807,7.8807,7.8807,7.8807,7.8807,7.8807,7.8807,0.0,0.0,0.0,0.0,0.0,0.0,0.0,0.0,0.0,0.0,0.0,0.0,0.0,0.0,0.0,0.0,0.0,0.0,0.0,4.3014,4.3014,4.3014,4.3014,4.3014,4.3014,4.3014,4.3014,4.3014,4.3014,4.3014,0.0,0.0,0.0,4.3014,0.0,0.0,0.0,0.0,0.0,0.0,4.4819,4.5303,0.0,0.0,0.0,0.0,0.0,0.0,0.0,0.0,0.0,0.0,4.7935,4.8987,5.0105,5.0379,5.1007,5.1596,5.1596,5.1596,5.1727,5.2354,5.2825,5.3321,5.4053,5.421,5.4367,5.4968,5.5099,5.5099,5.5099,5.5721,0.0,5.8404,6.0659,6.2965,6.5048,6.7437,6.9183,6.9648,7.041,7.0889,0.0,0.0,0.0,0.0,0.0,0.0,0.0,7.1996,7.2924,7.3582,7.4899,7.6125,7.7233,7.7622,7.8041,7.8489,7.8699,7.8699,7.8519,7.8699,7.8807,7.8807,7.8807,7.8807,7.8807,7.8807,7.8807,7.8807,7.8807,7.8807,7.8807,7.8807,7.8807,7.8807,0.0,0.0,0.0,0.0,0.0,0.0,0.0,0.0,0.0,0.0,0.0,0.0,0.0,0.0,0.0,0.0,0.0,0.0,0.0,0.0,4.3014,4.3014,4.3014,4.3014,4.3014,4.3014,4.3014,4.3014,4.3014,0.0,0.0,0.0,4.3101,4.3327,0.0,4.3741,0.0,0.0,4.4616,4.5156,4.5405,4.5864,4.6417,0.0,0.0,0.0,0.0,0.0,0.0,0.0,0.0,0.0,4.8767,4.9676,5.0534,5.0742,5.1195,5.1596,5.1596,5.1779,5.2093,5.2694,5.3295,5.387,5.4419,5.455,5.4654,5.502,5.5099,5.5334,5.6143,5.6956,0.0,6.0561,6.2399,6.4294,6.6416,6.8036,6.9243,6.9917,7.053,0.0,0.0,0.0,0.0,0.0,0.0,0.0,0.0,7.2159,7.3206,0.0,7.5437,7.6736,7.7801,7.8071,7.84,7.8807,7.8807,7.8807,7.8807,7.8807,7.8807,7.8807,7.8807,7.8807,7.8807,7.8807,7.8807,7.8807,7.8807,7.8807,7.8807,7.8807,7.8807,7.8807,0.0,0.0,0.0,0.0,0.0,0.0,0.0,0.0,0.0,0.0,4.3014,0.0,0.0,0.0,0.0,0.0,0.0,0.0,0.0,0.0,4.3014,4.3014,4.3014,4.3014,4.3014,4.3014,4.3014,4.3014,4.3014,0.0,0.0,0.0,4.3327,4.3829,0.0,4.4464,4.4694,4.5023,4.5443,4.5931,4.5666,4.6224,4.7131,4.6541,0.0,0.0,0.0,0.0,0.0,0.0,0.0,0.0,5.0017,5.0596,5.0984,5.1465,5.1596,5.1596,5.1596,5.204,5.2642,5.3243,5.3844,5.4419,5.4968,5.5199,5.5249,5.5132,5.5199,5.5845,5.7765,5.9204,6.0945,6.3562,6.5081,6.6413,6.7867,6.863,6.9273,7.0007,7.056,0.0,0.0,0.0,0.0,0.0,0.0,0.0,0.0,7.2219,7.3313,7.3971,7.5869,7.7215,7.7873,7.8489,7.8807,0.0,7.8807,7.8807,7.8807,7.8807,7.8807,7.8807,7.8807,7.8777,7.8699,7.8699,7.8669,7.8627,7.8627,7.8627,7.8627,7.8627,7.8627,7.8627,0.0,0.0,0.0,0.0,0.0,0.0,0.0,0.0,0.0,0.0,0.0,0.0,0.0,0.0,0.0,0.0,0.0,0.0,0.0,0.0,4.3014,4.3014,4.3014,4.3014,4.3014,4.3014,4.3014,4.3014,4.3014,0.0,0.0,0.0,0.0,4.3815,0.0,4.4827,4.5311,4.537,4.5726,4.6215,4.614,4.6564,4.7131,4.6541,4.7019,0.0,0.0,0.0,0.0,0.0,0.0,0.0,5.0538,5.1027,5.1439,5.157,5.1596,5.1596,5.1596,5.204,5.2642,5.3243,5.4158,5.4942,5.5072,5.5908,5.6373,5.5332,5.5941,5.6958,5.7917,5.9536,6.1427,6.3649,6.4641,6.5996,6.8443,6.8914,6.9423,7.056,7.0829,0.0,0.0,0.0,0.0,0.0,0.0,0.0,7.0889,7.2684,7.3971,7.4646,7.6574,7.7921,7.8579,7.8747,7.8807,0.0,7.8807,7.8807,7.8807,7.8807,7.8807,7.8807,7.8807,7.8489,7.8011,7.8011,7.7694,7.7245,7.7245,7.7245,7.7245,7.7245,7.7245,7.7305,0.0,0.0,0.0,0.0,0.0,0.0,0.0,0.0,0.0,0.0,0.0,0.0,0.0,0.0,0.0,0.0,0.0,0.0,0.0,0.0,0.0,4.3014,4.3014,4.3014,4.3014,4.3251,4.3377,4.3377,4.3639,0.0,0.0,0.0,0.0,4.4633,0.0,4.5347,4.5874,4.5874,4.6139,4.6551,4.6551,4.6978,4.7571,4.7101,0.0,4.8718,4.8217,0.0,0.0,0.0,0.0,0.0,0.0,0.0,5.1596,5.1596,5.1596,5.1648,5.1936,5.2459,5.3138,5.4001,5.4654,5.5099,5.5099,5.6154,5.6898,5.6193,5.7374,5.8919,6.0205,6.1522,6.3037,6.5083,6.5978,6.7011,6.8759,6.9273,6.9842,7.0799,7.0889,0.0,0.0,0.0,0.0,0.0,0.0,7.0889,7.0889,7.2804,7.4227,7.4886,7.6784,7.813,7.8807,7.8807,7.8639,7.831,7.831,7.816,7.7861,7.816,7.816,7.7861,7.7861,7.7634,7.7335,7.7335,7.7125,7.6779,7.6779,7.6779,7.6779,7.6779,7.6779,7.6838,0.0,0.0,0.0,0.0,0.0,0.0,0.0,0.0,0.0,0.0,0.0,0.0,0.0,0.0,0.0,0.0,0.0,0.0,0.0,0.0,0.0,0.0,4.3226,4.3277,4.3277,4.3714,4.394,4.394,4.4478,0.0,0.0,0.0,0.0,4.5497,0.0,4.5874,4.6286,4.6286,4.6512,4.6843,4.6843,4.7413,4.82,0.0,0.0,0.0,4.8943,4.9261,4.995,5.0369,0.0,0.0,0.0,0.0,5.1596,5.1596,5.1596,5.1727,5.2328,5.32,5.4139,5.5175,5.5621,5.5776,5.5776,5.6817,5.7786,5.7786,5.9205,6.0944,6.268,6.3735,6.4934,6.6726,6.7553,6.8211,6.8914,6.9588,7.0217,7.0829,7.0889,0.0,0.0,0.0,0.0,0.0,0.0,7.0889,7.0889,7.2924,7.4317,7.4886,7.6904,7.825,7.8789,7.8687,7.834,7.7801,7.7664,7.7275,7.6659,7.7215,7.7215,7.6779,7.6779,7.6719,7.6647,7.6647,7.6587,7.6467,7.6467,7.6467,7.6467,7.6467,7.6467,7.6497,0.0,0.0,0.0,0.0,0.0,0.0,0.0,0.0,0.0,0.0,0.0,0.0,0.0,0.0,0.0,0.0,0.0,0.0,4.3014,0.0,0.0,4.3689,4.4127,4.4378,4.4378,4.4453,4.4489,4.4489,0.0,0.0,0.0,0.0,0.0,4.5537,0.0,4.6235,4.6286,4.6286,4.6577,4.7059,4.7059,4.777,4.8774,0.0,0.0,0.0,0.0,4.9945,4.9971,5.1075,5.1257,0.0,0.0,0.0,5.1596,5.1596,5.1596,5.1727,5.2328,5.4129,5.6001,5.6672,5.7706,5.8564,5.8564,5.9604,6.0565,6.0565,6.1206,6.1997,6.285,6.4489,6.6023,6.6864,6.7553,6.8211,6.8914,6.9588,7.0217,7.0829,7.0889,0.0,0.0,0.0,0.0,0.0,7.0889,7.0889,7.0889,7.3359,7.4796,7.4886,7.737,7.8699,7.8807,7.822,7.7891,7.7801,7.7215,7.6617,7.6018,7.6125,7.6377,7.6779,7.6779,7.6497,7.6018,7.6018,7.5677,7.5155,7.5155,7.5155,7.5155,7.5155,7.5155,7.5245,0.0,0.0,0.0,0.0,0.0,0.0,0.0,0.0,0.0,0.0,0.0,0.0,0.0,0.0,0.0,4.3427,4.3452,4.3578,4.389,4.4127,4.4252,4.4252,4.4478,4.4589,4.4589,4.493,4.5095,4.5095,0.0,0.0,0.0,4.5949,4.5949,0.0,0.0,0.0,0.0,4.6763,4.7196,4.79,4.7844,4.8466,0.0,0.0,0.0,0.0,0.0,0.0,0.0,0.0,5.1502,5.1393,5.1549,0.0,0.0,0.0,5.2093,5.2476,5.4113,5.5621,5.6963,5.7957,5.8659,5.9096,5.9096,6.0141,6.1106,6.1106,6.2479,6.377,6.4065,6.5454,6.667,6.6954,6.7882,6.8645,6.8944,6.9871,7.059,7.0859,7.0889,7.0889,0.0,0.0,0.0,0.0,7.0889,7.0889,7.0889,7.3449,7.4886,7.4886,7.743,7.8609,7.825,7.7951,7.7424,7.6724,7.6066,7.5587,7.5335,7.5335,7.5467,7.5736,7.5736,7.5587,7.5335,7.5335,7.5155,7.4886,7.4886,7.4886,7.4886,7.4886,7.4886,7.4946,0.0,0.0,0.0,0.0,0.0,0.0,0.0,0.0,0.0,0.0,0.0,0.0,0.0,0.0,0.0,0.0,4.4016,4.4177,4.4564,4.4754,4.483,4.483,4.4955,4.5016,4.5016,4.5472,4.5698,4.5698,4.6085,0.0,4.6286,4.6436,4.6512,0.0,4.6512,4.6737,0.0,0.0,0.0,0.0,0.0,0.0,0.0,0.0,0.0,0.0,0.0,0.0,0.0,0.0,0.0,0.0,5.1565,5.1701,0.0,0.0,0.0,5.3353,5.5189,5.662,5.7849,5.8846,5.9606,6.0125,6.0125,6.0897,6.1599,6.1599,6.3417,6.4994,6.4994,6.6086,6.7014,6.7014,6.8136,6.9004,6.9004,7.0111,7.0889,7.0889,7.0889,7.0889,0.0,0.0,0.0,0.0,7.0889,7.0889,7.0889,7.3449,7.4886,7.4886,7.728,7.831,7.7801,7.7502,7.6754,7.5647,7.5155,7.4886,7.4886,7.4886,7.4886,7.4886,7.4886,7.4886,7.4886,7.4886,7.4886,7.4886,7.4886,7.4886,7.4886,7.4886,7.4886,7.4886,0.0,0.0,0.0,0.0,0.0,0.0,0.0,0.0,0.0,0.0,0.0,0.0,0.0,0.0,4.4529,4.4554,4.4564,4.4579,4.4589,4.5146,4.5462,4.5462,4.5949,0.0,4.621,4.6235,4.6261,4.6261,4.6301,4.6286,4.6311,4.6823,4.7074,4.7074,4.7074,4.7074,4.7124,0.0,0.0,0.0,0.0,0.0,0.0,0.0,0.0,0.0,0.0,0.0,0.0,0.0,0.0,0.0,0.0,0.0,5.2459,0.0,0.0,0.0,5.4282,5.6588,5.9018,5.908,6.1017,6.2875,6.2875,6.2963,6.3007,6.3007,6.4067,6.4994,6.4994,6.6086,6.7014,6.7014,6.8136,6.9004,6.9004,7.0111,7.0889,7.0889,7.0889,7.0889,7.0889,0.0,0.0,0.0,7.0889,7.0889,7.0889,7.3449,7.4886,7.4886,7.6814,7.7861,7.7801,7.6604,7.5647,7.4946,7.4933,7.4886,7.4886,7.4886,7.4886,7.4886,7.4886,7.4886,7.4886,7.4886,7.4886,7.4886,7.4886,7.4886,7.4886,7.4886,7.4886,7.4886,0.0,0.0,0.0,0.0,0.0,0.0,0.0,0.0,0.0,0.0,0.0,0.0,0.0,4.4464,4.4754,4.5146,4.5482,4.5683,4.5683,4.5884,4.6024,4.6024,4.62,4.6286,4.6286,4.6286,4.6286,4.6286,4.6286,4.6486,4.6823,4.7023,4.7274,4.7616,4.7616,4.7817,4.8184,4.84,0.0,0.0,0.0,0.0,0.0,0.0,0.0,0.0,0.0,0.0,0.0,0.0,0.0,0.0,0.0,0.0,0.0,5.3504,5.4758,5.6068,5.6068,5.7557,5.9313,6.0171,6.1092,6.2042,6.289,6.3108,6.3108,6.3108,6.4111,6.4994,6.4994,6.6086,6.7014,6.7014,6.8136,6.9004,6.9004,7.0111,7.0889,7.0889,7.0889,7.0889,7.0889,0.0,0.0,0.0,0.0,7.0889,7.0889,7.3449,7.4706,7.4287,7.6574,7.7412,7.6604,7.5707,7.5125,7.4886,7.4886,7.4886,7.4886,7.4886,7.4886,7.4886,7.4886,7.4886,7.4886,7.4886,7.4886,7.4886,7.4886,7.4886,7.4886,7.4886,7.4886,7.4886,0.0,0.0,0.0,0.0,0.0,0.0,0.0,0.0,0.0,0.0,0.0,0.0,0.0,0.0,4.5332,4.5723,4.61,4.6286,4.6286,4.6286,4.6286,4.6286,4.6286,4.6286,4.6286,4.6286,0.0,0.0,4.6587,4.6823,4.7375,4.7566,4.7857,4.8209,4.8495,4.8759,0.0,0.0,0.0,5.0471,0.0,0.0,5.161,0.0,0.0,0.0,0.0,0.0,0.0,0.0,0.0,0.0,0.0,0.0,0.0,0.0,5.6116,5.6633,5.7531,5.8407,5.9421,6.0776,6.145,6.2013,6.289,6.3108,6.3108,6.3108,6.4111,6.4994,6.4994,6.6086,6.7014,6.7014,6.7942,6.8734,6.8974,6.9931,7.0679,7.0889,7.0889,7.0889,7.0889,0.0,0.0,0.0,0.0,0.0,7.0889,7.324,7.4557,7.4569,7.6275,7.6664,7.5557,7.5125,7.4886,7.4886,7.4886,7.4886,7.4886,7.4886,7.4886,7.4886,7.4886,7.4886,7.4886,7.4886,7.4886,7.4886,7.4886,7.4886,7.4886,7.4886,7.4886,7.4886,0.0,0.0,0.0,0.0,0.0,0.0,0.0,0.0,0.0,0.0,0.0,0.0,0.0,0.0,0.0,4.6286,4.6286,4.6286,4.6286,4.6286,4.6286,4.6286,4.6311,4.6311,4.6311,0.0,0.0,0.0,0.0,0.0,0.0,0.0,4.8834,4.8843,4.9732,4.9841,4.94,0.0,5.0496,5.1209,0.0,5.2822,5.2702,0.0,0.0,0.0,5.5488,5.6295,0.0,0.0,0.0,0.0,0.0,0.0,0.0,0.0,0.0,0.0,0.0,0.0,0.0,6.0776,6.2087,6.305,6.3093,6.3108,6.3108,6.3123,6.4126,6.4994,6.5024,6.6116,6.7014,6.7014,6.7553,6.8211,6.8914,6.9588,7.0217,7.0829,7.0889,7.0889,7.0889,7.0889,0.0,0.0,7.0889,7.0889,7.0889,7.2774,7.448,7.5856,7.5886,7.5557,7.4916,7.4886,7.4886,7.4886,7.4886,7.4886,7.4886,7.4886,7.4886,7.4886,7.4886,7.4886,7.4886,7.4886,7.4886,7.4886,7.4886,7.4886,7.4886,7.4886,7.4886,7.4886,0.0,0.0,0.0,0.0,0.0,0.0,0.0,0.0,0.0,0.0,0.0,0.0,0.0,0.0,0.0,4.6286,4.6286,4.6286,4.6286,4.6286,4.6286,4.6286,4.6687,4.6873,4.6873,0.0,0.0,0.0,0.0,0.0,0.0,0.0,0.0,0.0,5.0139,5.0614,5.087,5.0573,0.0,5.11,5.1954,5.3018,0.0,0.0,0.0,0.0,0.0,5.8076,5.8097,0.0,5.8986,5.8592,0.0,0.0,0.0,0.0,0.0,0.0,5.9158,0.0,0.0,0.0,0.0,0.0,6.2861,6.3108,6.3213,6.3662,6.4411,6.5144,6.5637,6.643,6.7014,6.7014,6.7553,6.8211,6.8914,6.9588,7.0217,7.0829,7.0889,7.0889,7.0889,7.0889,0.0,0.0,7.0889,7.0889,7.0889,7.2355,7.4014,7.5856,7.5437,7.5095,7.4886,7.4886,7.4886,7.4886,7.4886,7.4886,7.4886,7.4886,7.4886,7.4886,7.4886,7.4886,7.4886,7.4886,7.4886,7.4886,7.4886,7.4886,7.4886,7.4886,7.4886,7.4886,0.0,0.0,0.0,0.0,0.0,0.0,0.0,0.0,0.0,0.0,0.0,0.0,0.0,0.0,0.0,0.0,4.6979,4.6979,4.6979,4.6979,4.6979,4.6979,4.7265,4.7425,0.0,0.0,0.0,0.0,0.0,0.0,0.0,0.0,0.0,0.0,0.0,0.0,0.0,0.0,0.0,0.0,5.344,0.0,0.0,5.6812,5.7956,0.0,0.0,0.0,6.0348,6.1102,6.1085,0.0,0.0,0.0,0.0,0.0,0.0,0.0,0.0,0.0,0.0,6.1777,0.0,0.0,6.2934,6.3108,6.3273,6.3887,6.453,6.5203,6.5877,6.655,6.7014,6.7014,6.7313,6.7822,6.8481,6.9169,6.9812,7.044,7.0739,7.0889,7.0889,7.0889,7.0889,7.0889,7.0889,7.1009,7.1308,7.2325,7.3565,7.5018,7.4976,7.4886,7.4886,7.4886,7.4886,7.4886,7.4886,7.4886,7.4886,7.4886,7.4886,7.4886,7.4886,7.4886,7.4886,7.4886,7.4886,7.4886,7.4886,7.4886,7.4886,7.4886,7.4886,7.4886,0.0,0.0,0.0,0.0,0.0,0.0,0.0,0.0,0.0,0.0,0.0,0.0,0.0,0.0,0.0,0.0,4.7908,4.7908,4.7908,4.7908,0.0,0.0,0.0,0.0,0.0,0.0,0.0,0.0,0.0,0.0,0.0,0.0,0.0,0.0,0.0,0.0,0.0,0.0,0.0,5.3993,5.5881,5.6602,0.0,0.0,6.0673,0.0,6.1331,6.2087,6.3108,6.3108,6.3007,0.0,0.0,0.0,0.0,0.0,6.1406,0.0,0.0,0.0,0.0,0.0,6.3108,0.0,6.3108,6.3108,6.3273,6.3887,6.453,6.5203,6.5877,6.655,6.7014,6.7014,6.7014,6.7224,6.7898,6.8511,6.9169,6.9917,7.047,7.0829,7.0889,7.0889,7.0889,7.0889,7.0889,7.1188,7.1863,7.2535,7.3206,7.3881,7.4557,7.4886,7.4886,7.4886,7.4886,7.4886,7.4886,7.4886,7.4886,7.4886,7.4886,7.4886,7.4886,7.4886,7.4886,7.4886,7.4886,7.4886,7.4886,7.4886,7.4886,7.4886,7.4886,7.4886,0.0,0.0,0.0,0.0,0.0,0.0,0.0,0.0,0.0,0.0,0.0,0.0,0.0,0.0,0.0,0.0,0.0,4.7908,0.0,0.0,0.0,0.0,0.0,0.0,0.0,0.0,0.0,0.0,0.0,0.0,0.0,0.0,0.0,0.0,0.0,0.0,0.0,0.0,0.0,5.6375,5.6312,0.0,5.8725,6.0303,6.1645,6.2701,6.2701,6.2861,6.3108,0.0,6.2365,6.1673,0.0,0.0,0.0,0.0,0.0,0.0,0.0,0.0,0.0,0.0,0.0,0.0,6.3108,6.3108,6.3273,6.3887,6.453,6.5203,6.5877,6.655,6.7014,6.7014,6.7014,6.7224,6.7898,6.8107,6.863,6.9858,7.0097,7.0366,7.0859,7.0889,7.0889,7.0889,7.0889,7.1188,7.1863,7.2535,7.3206,7.3881,7.4557,7.4886,7.4886,7.4886,7.4886,7.4886,7.4886,7.4886,7.4886,7.4886,7.4886,7.4886,7.4886,7.4886,7.4886,7.4886,7.4886,7.4886,7.4886,7.4886,7.4886,7.4886,7.4886,7.4886,0.0,0.0,0.0,0.0,0.0,0.0,0.0,0.0,0.0,0.0,0.0,0.0,0.0,0.0,0.0,0.0,0.0,0.0,0.0,0.0,0.0,0.0,0.0,0.0,0.0,0.0,0.0,0.0,0.0,0.0,0.0,0.0,0.0,0.0,0.0,0.0,0.0,0.0,5.6863,5.8032,5.7543,0.0,6.0247,6.1584,6.2497,6.3108,6.3108,6.3108,6.3108,6.3108,6.2658,0.0,0.0,6.2643,6.2233,0.0,6.3108,6.3108,0.0,0.0,0.0,6.3108,0.0,0.0,0.0,6.3108,6.3363,6.4291,6.477,6.5293,6.6311,6.6759,6.7014,6.7014,6.7014,6.7134,6.7433,6.7808,6.8257,6.8916,6.9588,7.0127,7.0426,7.0709,7.0889,7.0889,7.0889,7.1038,7.1368,7.2339,7.3057,7.3402,7.4377,7.4886,7.4886,7.4886,7.4886,7.4886,7.4886,7.4886,7.4886,7.4886,7.4886,7.4886,7.4886,7.4886,7.4886,7.4886,7.4886,7.4886,7.4886,7.4886,7.4886,7.4886,7.4886,7.4886,4.6336,0.0,0.0,0.0,0.0,0.0,0.0,0.0,0.0,0.0,0.0,0.0,0.0,0.0,0.0,0.0,0.0,0.0,0.0,0.0,0.0,0.0,0.0,5.0784,0.0,0.0,0.0,0.0,0.0,0.0,0.0,0.0,0.0,0.0,0.0,0.0,5.8745,0.0,0.0,5.9452,0.0,5.9852,6.1256,6.2599,6.3108,6.3108,6.3108,6.3108,6.3108,6.3108,0.0,6.3108,6.3108,6.3108,0.0,0.0,0.0,0.0,0.0,0.0,0.0,0.0,0.0,6.3123,0.0,0.0,0.0,6.4755,6.5084,6.5518,6.661,6.6909,6.6924,6.667,6.6819,6.6909,6.664,6.7313,6.7868,6.7987,6.8975,6.9708,6.9977,7.056,7.0889,7.0889,7.0889,7.0889,7.0889,7.2056,7.2757,7.2907,7.4078,7.4766,7.4886,7.4886,7.4886,7.4886,7.4886,7.4886,7.4886,7.4886,7.4886,7.4886,7.4886,7.4886,7.4886,7.4886,7.4886,7.4886,7.4886,7.4886,7.4886,7.4886,7.4886,7.4886,4.6486,4.6672,0.0,0.0,0.0,0.0,0.0,0.0,0.0,0.0,0.0,0.0,0.0,0.0,0.0,0.0,0.0,0.0,5.2842,0.0,0.0,0.0,0.0,0.0,5.5228,0.0,0.0,0.0,0.0,0.0,0.0,0.0,0.0,0.0,5.9194,0.0,6.0676,0.0,5.9729,0.0,6.0821,6.0912,0.0,6.2599,6.3108,6.3108,6.3108,6.3108,6.3108,0.0,6.3108,6.3108,0.0,6.3108,6.3108,0.0,0.0,0.0,0.0,0.0,0.0,0.0,6.3108,0.0,0.0,0.0,6.4126,6.4859,0.0,6.5936,6.6101,0.0,0.0,6.5413,6.6221,6.658,6.5383,6.6311,6.7343,6.7928,6.8137,6.869,6.9887,7.056,7.0889,7.0889,7.0889,7.0889,7.0889,7.1623,7.2295,7.2877,7.3612,7.4317,7.4886,7.4886,7.4886,7.4886,7.4886,7.4886,7.4886,7.4886,7.4886,7.4886,7.4886,7.4886,7.4886,7.4886,7.4886,7.4886,7.4886,7.4886,7.4886,7.4886,7.4886,7.4886,4.7315,4.7415,0.0,0.0,0.0,0.0,0.0,0.0,0.0,0.0,0.0,0.0,0.0,0.0,0.0,0.0,0.0,5.3632,0.0,0.0,0.0,0.0,0.0,0.0,0.0,0.0,0.0,0.0,5.8195,0.0,0.0,0.0,0.0,0.0,6.1541,0.0,6.2219,0.0,6.1747,0.0,0.0,0.0,0.0,6.2905,6.3108,6.3108,6.3108,6.3108,6.3153,0.0,6.3632,0.0,0.0,0.0,0.0,0.0,0.0,0.0,0.0,0.0,0.0,0.0,0.0,0.0,0.0,0.0,6.477,0.0,0.0,0.0,0.0,0.0,0.0,0.0,6.664,6.6789,6.6251,6.664,6.7104,6.7373,0.0,0.0,6.9858,0.0,0.0,0.0,7.0889,7.0889,7.0889,7.1534,7.2206,7.2877,7.3552,7.4227,7.4886,7.4886,7.4886,7.4886,7.4886,7.4886,7.4886,7.4886,7.4886,7.4886,7.4886,7.4886,7.4886,7.4886,7.4886,7.4886,7.4886,7.4886,7.4886,7.4886,7.4886,7.4886,4.8385,0.0,0.0,0.0,0.0,0.0,0.0,0.0,0.0,0.0,0.0,0.0,5.1446,5.217,0.0,0.0,0.0,5.5709,0.0,0.0,5.6958,0.0,0.0,0.0,0.0,0.0,0.0,0.0,0.0,0.0,0.0,0.0,0.0,0.0,0.0,6.3108,6.3108,0.0,6.3108,6.3108,6.3108,6.3183,6.3333,6.3333,6.3333,6.3363,6.3542,6.3617,6.3677,6.4126,6.4261,0.0,6.4859,0.0,0.0,0.0,0.0,0.0,6.4994,0.0,0.0,0.0,0.0,0.0,0.0,0.0,0.0,0.0,0.0,0.0,0.0,0.0,0.0,0.0,0.0,6.6879,6.649,6.6775,6.7014,6.7014,0.0,0.0,0.0,7.0187,7.0649,7.0649,7.0799,7.0889,7.0889,7.1368,7.1936,7.2595,7.3283,7.3941,7.4616,7.4796,7.4886,7.4886,7.4886,7.4886,7.4886,7.4886,7.4886,7.4886,7.4886,7.4886,7.4886,7.4886,7.4886,7.4886,7.4886,7.4886,7.4886,7.4886,7.4886,7.4886,4.954,4.9129,0.0,0.0,0.0,0.0,0.0,0.0,0.0,0.0,0.0,0.0,0.0,0.0,0.0,0.0,0.0,5.9277,5.987,0.0,6.0114,0.0,0.0,6.1362,0.0,0.0,0.0,0.0,0.0,0.0,0.0,0.0,0.0,0.0,6.3108,6.3108,6.3108,6.3108,6.3108,6.3108,6.3108,6.3452,6.3977,0.0,6.3977,6.4066,6.471,0.0,0.0,6.4964,6.4964,0.0,0.0,0.0,0.0,0.0,0.0,0.0,0.0,0.0,0.0,6.4994,0.0,0.0,0.0,0.0,6.6161,0.0,0.0,0.0,0.0,0.0,0.0,0.0,0.0,0.0,0.0,6.6176,6.7014,6.7014,6.7583,0.0,0.0,6.9259,7.0037,7.0037,7.056,7.0889,7.0889,7.0919,7.1248,7.1923,7.2595,7.3253,7.3911,7.4587,7.4886,7.4886,7.4886,7.4886,7.4886,7.4886,7.4886,7.4886,7.4886,7.4886,7.4886,7.4886,7.4886,7.4886,7.4886,7.4886,7.4886,7.4886,7.4886,7.4886,0.0,0.0,0.0,0.0,0.0,0.0,0.0,5.0619,0.0,0.0,0.0,0.0,0.0,0.0,5.7927,0.0,0.0,6.054,6.0744,6.1601,0.0,0.0,0.0,6.1658,0.0,0.0,0.0,0.0,0.0,0.0,6.3108,0.0,0.0,0.0,0.0,6.3108,0.0,0.0,0.0,0.0,0.0,6.4096,6.468,0.0,0.0,6.468,6.4904,6.4994,0.0,6.5518,6.5667,6.5727,6.6176,6.6311,6.6311,6.6311,6.6311,0.0,0.0,0.0,6.6311,6.6311,0.0,0.0,0.0,0.0,0.0,0.0,0.0,0.0,0.0,0.0,0.0,0.0,0.0,0.0,0.0,6.67,6.7014,6.7014,6.7583,6.7987,0.0,0.0,0.0,7.0007,7.056,7.0889,7.0889,7.0889,7.1218,7.1893,7.2565,7.3206,7.3881,7.4557,7.4886,7.4886,7.4886,7.4886,7.4886,7.4886,7.4886,7.4886,7.4886,7.4886,7.4886,7.4886,7.4886,7.4886,7.4886,7.4886,7.4886,7.4886,7.4886,7.4886,5.0193,0.0,0.0,0.0,0.0,0.0,0.0,0.0,0.0,0.0,5.527,0.0,5.8032,0.0,5.9883,0.0,6.1539,6.1806,6.1806,6.2629,0.0,6.1836,6.1806,0.0,0.0,0.0,0.0,0.0,0.0,6.3108,6.3108,6.3108,6.3108,0.0,0.0,6.3108,6.3108,6.3333,6.3422,0.0,0.0,6.4979,0.0,0.0,6.5757,6.5398,0.0,6.5697,6.5817,6.649,6.67,6.6819,6.7508,6.7717,6.7717,6.7717,6.7717,6.7717,6.7717,6.7717,0.0,0.0,6.7717,0.0,6.7717,0.0,0.0,0.0,0.0,0.0,0.0,0.0,0.0,0.0,0.0,0.0,0.0,6.7014,6.7014,6.7014,6.7373,6.7643,6.7643,6.863,6.9379,6.9618,7.0247,7.0679,0.0,0.0,7.1098,7.1534,7.2445,7.3116,7.3552,7.4437,7.4886,7.4886,7.4886,7.4886,7.4886,7.4886,7.4886,7.4886,7.4886,7.4886,7.4886,7.4886,7.4886,7.4886,7.4886,7.4886,7.4886,7.4886,7.4886,7.4886,0.0,0.0,0.0,0.0,5.0971,0.0,0.0,0.0,5.4796,0.0,5.7263,5.8775,5.9251,6.043,6.1211,6.1211,6.2351,0.0,6.3108,6.3108,0.0,0.0,6.3108,6.3108,6.3108,0.0,0.0,0.0,0.0,0.0,6.3108,6.3108,6.3108,6.3108,6.3123,6.3123,6.3197,6.3797,6.4066,6.4216,6.5533,6.6056,6.6251,6.7553,0.0,6.6236,6.6879,6.7104,6.7194,6.7822,6.8047,6.8167,6.8794,6.9004,6.9004,6.9004,6.9004,6.9004,6.9004,6.9004,6.9004,6.9004,0.0,0.0,0.0,0.0,6.8047,0.0,0.0,0.0,0.0,0.0,0.0,0.0,0.0,0.0,0.0,0.0,6.7014,6.7014,6.7014,6.7014,6.7014,6.7643,6.8301,6.8944,6.9648,7.0306,0.0,0.0,7.0889,7.0889,7.2189,7.2907,7.2907,7.4227,7.4886,7.4886,7.4886,7.4886,7.4886,7.4886,7.4886,7.4886,7.4886,7.4886,7.4886,7.4886,7.4886,7.4886,7.4886,7.4886,7.4886,7.4886,7.4886,7.4886,5.1289,5.1816,5.2253,0.0,5.2059,5.1984,0.0,0.0,0.0,0.0,5.902,6.0524,6.1924,6.2365,6.2599,6.2599,6.289,0.0,0.0,0.0,0.0,6.3108,6.3108,6.3108,6.3108,6.3108,0.0,6.3108,0.0,0.0,6.3108,6.3108,6.3108,6.3123,6.3572,6.3782,6.3797,6.447,6.5039,6.5562,6.64,6.7044,0.0,0.0,6.8525,6.8256,6.8405,6.8495,6.8495,6.869,6.8734,6.8764,6.8944,6.9004,6.9004,6.9004,6.9004,6.9004,6.9004,6.9004,6.9004,6.9004,6.9004,6.9004,0.0,0.0,0.0,0.0,0.0,0.0,0.0,0.0,0.0,0.0,0.0,0.0,0.0,0.0,0.0,6.7014,6.7014,6.7014,6.7014,6.8062,6.8794,6.9004,7.0051,7.0739,0.0,0.0,0.0,7.0889,7.2189,7.2907,7.2907,7.4227,7.4886,7.4886,7.4886,7.4886,7.4886,7.4886,7.4886,7.4886,7.4886,7.4886,7.4886,7.4886,7.4886,7.4886,7.4886,7.4886,7.4886,7.4886,7.4886,7.4886,5.2,0.0,0.0,5.4105,0.0,0.0,5.3817,0.0,0.0,5.9135,6.069,0.0,6.2977,6.3108,6.3108,6.3108,6.3108,0.0,0.0,0.0,0.0,6.3108,6.3108,6.3108,6.3108,6.3108,0.0,6.3108,0.0,0.0,6.3108,6.3363,6.3482,6.3512,6.4156,6.4441,6.45,6.5458,6.6251,6.6939,6.7597,0.0,0.0,6.9199,6.9439,6.9453,6.9752,6.9482,6.9034,6.9333,6.9439,6.9482,6.9752,6.9842,6.9842,6.9842,6.9842,6.9842,6.9842,6.9842,6.9842,6.9842,6.9842,6.9842,6.9842,6.9632,6.9439,0.0,0.0,0.0,0.0,0.0,0.0,0.0,0.0,0.0,0.0,0.0,0.0,0.0,6.7014,6.7014,6.7014,6.7942,6.8675,6.8974,6.9931,0.0,0.0,0.0,0.0,7.0889,7.2189,7.2907,7.2907,7.4227,7.4886,7.4886,7.4886,7.4886,7.4886,7.4886,7.4886,7.4886,7.4886,7.4886,7.4886,7.4886,7.4886,7.4886,7.4886,7.4886,7.4886,7.4886,7.4886,7.4886,5.305,0.0,0.0,0.0,0.0,0.0,0.0,5.7596,0.0,6.0404,0.0,6.3123,6.3213,6.3227,6.3243,6.3333,0.0,6.3333,6.3333,6.3333,6.3333,6.3333,6.3333,6.3333,6.3333,6.3333,0.0,0.0,0.0,0.0,6.3363,6.3887,6.4126,6.4156,6.4829,6.5233,6.5488,6.6729,6.7613,6.8197,6.8854,6.9123,6.9183,6.9858,7.0157,7.0306,7.0829,7.026,6.9333,6.9917,7.0127,7.0217,7.0739,7.0889,7.0889,7.0889,7.0889,7.0889,7.0889,7.0889,7.0889,7.0889,7.0889,7.0889,7.0889,7.05,7.0127,7.0127,6.9632,0.0,0.0,0.0,0.0,0.0,0.0,0.0,0.0,0.0,0.0,0.0,0.0,0.0,6.7014,6.7613,6.8271,6.8944,0.0,0.0,0.0,0.0,0.0,7.0889,7.2189,0.0,7.2907,0.0,7.4886,7.4886,7.4886,7.4886,7.4886,7.4886,7.4886,7.4886,7.4886,7.4886,7.4886,7.4886,7.4886,7.4886,7.4886,7.4886,7.4886,7.4886,7.4886,7.4886,5.3742,0.0,0.0,0.0,0.0,5.8803,5.949,5.9904,6.0357,6.0913,6.2233,6.3273,6.3782,6.3827,6.4066,6.462,6.468,0.0,0.0,0.0,0.0,6.468,6.468,6.468,6.468,6.468,6.468,0.0,0.0,0.0,0.0,6.48,6.4815,6.4845,6.5518,6.643,6.7523,6.8331,0.0,6.8884,6.9558,6.9828,6.9887,7.05,7.1085,7.1593,7.1683,7.1234,7.059,7.0709,7.0739,7.0769,7.0859,7.0889,7.0889,7.0889,7.0889,7.0889,7.0889,7.0889,7.0889,7.0889,7.0889,7.0889,7.0889,7.0829,7.0739,7.0739,7.0649,7.041,6.9917,0.0,0.0,0.0,0.0,0.0,0.0,0.0,0.0,0.0,0.0,6.7014,0.0,6.7613,6.8271,6.8944,0.0,0.0,0.0,0.0,0.0,0.0,7.2189,0.0,0.0,0.0,7.4886,7.4886,7.4886,7.4886,7.4886,7.4886,7.4886,7.4886,7.4886,7.4886,7.4886,7.4886,7.4886,7.4886,7.4886,7.4886,7.4886,7.4886,7.4886,7.4886,0.0,0.0,0.0,0.0,0.0,0.0,0.0,6.2615,0.0,6.2617,6.346,6.4216,6.45,6.453,6.465,6.4964,6.4994,6.4994,6.4994,6.4994,6.4994,6.4994,6.4994,0.0,6.4994,6.4994,6.4994,6.4994,0.0,0.0,0.0,0.0,6.5697,6.6086,6.7103,6.7897,6.8571,0.0,0.0,6.9588,7.0201,7.0696,7.1025,7.1308,7.1816,7.2415,7.2415,7.2206,7.1936,7.1936,7.1936,7.1936,7.1936,7.1936,7.1936,7.1936,7.1936,7.1936,7.1936,7.1936,7.183,7.1517,7.1414,7.1338,7.0979,7.0889,7.0889,7.0889,7.0889,7.0799,7.05,6.9931,0.0,0.0,0.0,0.0,0.0,0.0,0.0,0.0,0.0,0.0,0.0,0.0,0.0,0.0,0.0,0.0,0.0,0.0,0.0,0.0,0.0,0.0,0.0,0.0,0.0,7.4886,7.4886,7.4886,7.4886,7.4886,7.4886,7.4886,7.4886,7.4886,7.4886,7.4886,7.4886,7.4886,7.4886,7.4886,7.4886,7.4886,7.4886,7.4886,0.0,5.8986,0.0,0.0,6.2132,0.0,6.4054,6.4889,6.5129,6.4336,6.468,6.5114,6.5383,6.5428,6.5547,6.5847,6.5847,6.5847,6.5847,6.5847,6.5847,6.5847,6.5847,6.5847,6.5847,6.5847,6.5847,0.0,0.0,0.0,0.0,0.0,0.0,0.0,0.0,0.0,0.0,0.0,7.0277,7.0456,7.0919,7.1517,7.2132,7.2132,7.2535,7.3116,7.3116,7.3206,7.3343,7.3343,7.3146,7.2907,7.2907,7.2907,7.2907,7.2907,7.2907,7.2907,7.2907,7.2907,7.2757,7.2235,7.2132,7.1966,7.1457,7.1218,7.1098,7.1098,7.1009,7.0889,7.0889,7.05,0.0,0.0,0.0,0.0,0.0,0.0,0.0,0.0,0.0,0.0,6.8271,0.0,0.0,0.0,0.0,0.0,0.0,0.0,0.0,0.0,0.0,7.2907,7.2907,0.0,7.4886,0.0,7.4886,7.4886,7.4886,7.4886,7.4886,7.4886,7.4886,7.4886,7.4886,7.4886,7.4886,7.4886,7.4886,7.4886,7.4886,7.4886,7.4886,7.4886,0.0,0.0,0.0,0.0,0.0,0.0,0.0,6.5996,6.634,6.5054,6.4964,6.5458,6.667,6.6819,6.7298,6.8525,6.8645,6.8645,6.8645,6.8645,6.8645,6.8645,6.8645,6.8645,6.8645,6.8645,6.8645,0.0,0.0,0.0,0.0,0.0,0.0,0.0,0.0,0.0,0.0,7.056,7.1158,7.1713,7.1773,7.2206,7.2817,7.2817,7.3223,7.3821,7.3821,7.4197,7.4706,7.4706,7.3928,7.2907,7.2907,7.2907,7.2907,7.2907,7.2907,7.2907,7.2907,7.2907,7.2877,7.2817,7.2817,7.2787,7.2727,7.2235,7.1803,7.1803,7.1308,7.0889,7.0889,7.0859,7.0829,0.0,0.0,0.0,0.0,0.0,0.0,6.9004,0.0,0.0,0.0,6.8974,0.0,0.0,6.9947,0.0,0.0,0.0,0.0,7.0889,0.0,7.2907,7.2907,7.4227,0.0,7.4886,7.4886,7.4886,7.4886,7.4886,7.4886,7.4886,7.4886,7.4886,7.4886,7.4886,7.4886,7.4886,7.4886,7.4886,7.4886,7.4886,7.4886,7.4886,0.0,0.0,0.0,0.0,0.0,0.0,0.0,6.7597,6.8016,6.7462,6.7402,6.7582,6.8136,6.8196,6.8405,6.8944,6.9004,6.9004,6.9004,6.9004,6.9004,6.9004,6.9004,6.9004,6.9004,6.9004,6.9004,0.0,0.0,0.0,0.0,0.0,0.0,0.0,0.0,7.1145,7.1174,7.1846,7.2265,7.2505,7.2505,7.2894,7.3492,7.3492,7.3911,7.4497,7.4497,7.4676,7.4886,7.4886,7.4557,7.4108,7.4108,7.4108,7.4108,7.4108,7.4108,7.4108,7.4108,7.4108,7.4001,7.3612,7.3492,7.3386,7.2997,7.2684,7.2505,7.2505,7.1966,7.1368,7.0979,7.0889,7.0889,0.0,0.0,0.0,0.0,0.0,0.0,0.0,0.0,6.9991,0.0,0.0,0.0,0.0,0.0,0.0,0.0,0.0,0.0,7.0889,0.0,7.2907,7.2907,7.4227,7.4886,7.4886,7.4886,7.4886,7.4886,7.4886,7.4886,7.4886,7.4886,7.4886,7.4886,7.4886,7.4886,7.4886,7.4886,7.4886,7.4886,7.4886,7.4886,7.4886,6.5502,0.0,6.6086,0.0,6.7268,6.7762,6.8211,6.887,6.9303,6.9303,6.9602,6.9722,6.9333,6.9303,6.9363,6.9542,6.9572,6.9572,6.9572,6.9572,6.9572,6.9572,6.9572,0.0,6.9572,6.9572,6.9572,6.9572,6.9572,0.0,0.0,0.0,0.0,0.0,7.1787,7.2176,7.2252,7.2698,7.2997,7.3176,7.3176,7.3612,7.418,7.418,7.4497,7.4886,7.4886,7.4886,7.4886,7.4886,7.4886,7.4886,7.4886,7.4886,7.4886,7.4886,7.4886,7.4886,7.4886,7.4886,7.4796,7.4317,7.418,7.4061,7.3612,7.3343,7.3146,7.2937,7.2535,7.2013,7.1308,7.1188,7.1128,0.0,0.0,0.0,0.0,0.0,0.0,0.0,7.0889,7.0739,7.0306,7.0649,0.0,0.0,0.0,0.0,0.0,0.0,0.0,0.0,0.0,0.0,0.0,7.4317,7.4886,7.4886,7.4886,7.4886,7.4886,7.4886,7.4886,7.4886,7.4886,7.4886,7.4886,7.4886,7.4886,7.4886,7.4886,7.4886,7.4886,7.4886,7.4886,7.4886,6.6849,6.7493,6.8197,6.8854,6.8974,6.8974,6.9004,6.9558,6.9977,6.9977,7.1085,7.1384,7.0127,6.9977,7.0217,7.0829,7.0889,7.0889,7.0889,7.0889,7.0889,0.0,0.0,7.0889,7.0889,7.0889,7.0889,7.0889,0.0,0.0,6.9004,0.0,7.1009,7.2877,7.2877,7.2877,7.2877,7.2907,7.3266,7.3881,7.3881,7.4287,7.4886,7.4886,7.4886,7.4886,7.4886,7.4886,7.4886,7.4886,7.4886,7.4886,7.4886,7.4886,7.4886,7.4886,7.4886,7.4886,7.4886,7.4886,7.4886,7.4886,7.4886,7.4886,7.4886,7.4377,7.3702,7.3027,7.2877,7.2684,7.2013,7.1893,7.1683,7.1009,0.0,0.0,0.0,0.0,0.0,0.0,7.0889,7.0889,7.0889,7.0889,0.0,0.0,0.0,0.0,0.0,0.0,0.0,7.1863,7.2565,0.0,7.3881,7.4557,7.4886,7.4886,7.4886,7.4886,7.4886,7.4886,7.4886,7.4886,7.4886,7.4886,7.4886,7.4886,7.4886,7.4886,7.4886,7.4886,7.4886,7.4886,7.4886,7.4886,6.8315,6.8525,6.8884,6.9558,6.9678,6.9977,7.0845,7.1174,7.1474,7.1906,7.2325,7.2445,7.2026,7.1966,7.2056,0.0,7.2249,7.2249,0.0,7.2249,7.2249,7.2249,7.2249,7.2249,7.2249,7.2249,7.2249,7.2249,0.0,0.0,0.0,7.1876,7.2325,7.2907,7.3373,7.3582,7.3612,7.4061,7.4377,7.4587,7.4587,7.4706,7.4886,7.4886,7.4886,7.4886,7.4886,7.4886,7.4886,7.4886,7.4886,7.4886,7.4886,7.4886,7.4886,7.4886,7.4886,7.4886,7.4886,7.4886,7.4886,7.4886,7.4886,7.4886,7.4886,7.4736,7.4377,7.3732,7.3582,7.3373,7.2714,7.2595,7.2355,7.1697,0.0,0.0,0.0,0.0,0.0,0.0,7.0889,7.0889,0.0,7.0889,0.0,0.0,0.0,0.0,0.0,0.0,0.0,0.0,7.2984,0.0,7.3881,7.4557,7.4886,7.4886,7.4886,7.4886,7.4886,7.4886,7.4886,7.4886,7.4886,7.4886,7.4886,7.4886,7.4886,7.4886,7.4886,7.4886,7.4886,7.4886,7.4886,7.4886,6.9662,6.9901,7.029,7.0979,7.1098,7.1354,7.2146,7.2265,7.2415,7.2847,7.3116,7.3283,7.3283,7.3492,0.0,7.2937,7.2907,7.2907,7.2907,7.2907,7.2907,7.2907,7.2907,7.2907,7.2907,0.0,0.0,7.2907,7.2907,7.3027,7.3283,7.3283,7.3402,7.3672,7.4108,7.4287,7.4317,7.4706,7.4886,7.4886,7.4886,7.4886,7.4886,7.4886,7.4886,7.4886,7.4886,7.4886,7.4886,7.4886,7.4886,7.4886,7.4886,7.4886,7.4886,7.4886,7.4886,7.4886,7.4886,7.4886,7.4886,7.4886,7.4886,7.4886,7.4886,7.4886,7.4766,7.4377,7.4287,7.4061,7.3402,7.3283,7.3073,7.2385,0.0,7.2116,7.171,0.0,0.0,0.0,0.0,0.0,0.0,7.0889,0.0,0.0,0.0,0.0,0.0,0.0,0.0,7.2641,7.3462,0.0,7.4287,7.4676,7.4886,7.4886,7.4886,7.4886,7.4886,7.4886,7.4886,7.4886,7.4886,7.4886,7.4886,7.4886,7.4886,7.4886,7.4886,7.4886,7.4886,7.4886,7.4886,7.4886,7.0919,7.1547,0.0,0.0,7.2907,0.0,7.2967,7.2967,7.2997,7.3027,7.3582,7.3971,7.3971,7.4527,7.4407,7.3146,0.0,0.0,0.0,7.3027,7.3027,7.3027,7.3027,0.0,7.3027,7.3027,7.3027,7.3027,7.3027,7.3373,7.3971,7.3971,7.4317,7.4886,7.4886,7.4886,7.4886,7.4886,7.4886,7.4886,7.4886,7.4886,7.4886,7.4886,7.4886,7.4886,7.4886,7.4886,7.4886,7.4886,7.4886,7.4886,7.4886,7.4886,7.4886,7.4886,7.4886,7.4886,7.4886,7.4886,7.4886,7.4886,7.4886,7.4886,7.4886,7.4886,7.4886,7.4886,7.4886,7.4706,7.4061,7.3971,7.3762,7.3086,7.2967,7.2937,7.2907,0.0,0.0,0.0,0.0,0.0,0.0,7.1038,7.1308,0.0,0.0,0.0,0.0,0.0,7.2611,7.3851,7.3941,7.4287,7.4886,7.4886,7.4886,7.4886,7.4886,7.4886,7.4886,7.4886,7.4886,7.4886,7.4886,7.4886,7.4886,7.4886,7.4886,7.4886,7.4886,7.4886,7.4886,7.4886,7.4886,7.4886,0.0,0.0,7.2698,7.2877,7.2907,7.3057,7.3582,7.3672,7.3851,7.4377,7.4557,7.4646,7.4646,7.4796,7.4766,7.4437,7.4437,7.4437,7.4437,7.4437,7.4437,7.4437,7.4437,7.4437,7.4437,7.4437,7.4437,7.4437,7.4437,7.4497,7.4646,7.4646,7.4736,7.4886,7.4886,7.4886,7.4886,7.4886,7.4886,7.4886,7.4886,7.4886,7.4886,7.4886,7.4886,7.4886,7.4886,7.4886,7.4886,7.4886,7.4886,7.4886,7.4886,7.4886,7.4886,7.4886,7.4886,7.4886,7.4886,7.4886,7.4886,7.4886,7.4886,7.4886,7.4886,7.4886,7.4886,7.4886,7.4886,7.4856,7.4676,7.4646,7.4437,7.3762,7.3672,7.3492,7.2967,7.2757,0.0,0.0,7.2518,7.2428,7.2428,7.2428,7.2488,0.0,0.0,0.0,0.0,0.0,7.3552,7.3881,7.4407,7.4736,7.4886,7.4886,7.4886,7.4886,7.4886,7.4886,7.4886,7.4886,7.4886,7.4886,7.4886,7.4886,7.4886,7.4886,7.4886,7.4886,7.4886,7.4886,7.4886,7.4886,7.4886,7.4886,7.3313,7.3373,7.3462,7.3762,7.3821,7.3941,7.4317,7.4377,7.4497,7.4856,7.4886,7.4886,7.4886,7.4886,7.4886,7.4886,7.4886,7.4886,7.4886,7.4886,7.4886,7.4886,7.4886,7.4886,7.4886,7.4886,7.4886,7.4886,7.4886,7.4886,7.4886,7.4886,7.4886,7.4886,7.4886,7.4886,7.4886,7.4886,7.4886,7.4886,7.4886,7.4886,7.4886,7.4886,7.4886,7.4886,7.4886,7.4886,7.4886,7.4886,7.4886,7.4886,7.4886,7.4886,7.4886,7.4886,7.4886,7.4886,7.4886,7.4886,7.4886,7.4886,7.4886,7.4886,7.4886,7.4886,7.4886,7.4886,7.4886,7.4886,7.4886,7.4886,7.4766,7.4407,7.4377,7.4227,7.3851,7.3552,0.0,7.3373,7.3086,7.2907,7.2907,7.2907,7.3027,7.3326,0.0,0.0,7.4317,7.4377,7.4377,7.4377,7.4706,7.4886,7.4886,7.4886,7.4886,7.4886,7.4886,7.4886,7.4886,7.4886,7.4886,7.4886,7.4886,7.4886,7.4886,7.4886,7.4886,7.4886,7.4886,7.4886,7.4886,7.4886,7.4886,7.4886,7.3941,7.4031,7.4227,7.4796,7.4886,7.4886,7.4886,7.4886,7.4886,7.4886,7.4886,7.4886,7.4886,7.4886,7.4886,7.4886,7.4886,7.4886,7.4886,7.4886,7.4886,7.4886,7.4886,7.4886,7.4886,7.4886,7.4886,7.4886,7.4886,7.4886,7.4886,7.4886,7.4886,7.4886,7.4886,7.4886,7.4886,7.4886,7.4886,7.4886,7.4886,7.4886,7.4886,7.4886,7.4886,7.4886,7.4886,7.4886,7.4886,7.4886,7.4886,7.4886,7.4886,7.4886,7.4886,7.4886,7.4886,7.4886,7.4886,7.4886,7.4886,7.4886,7.4886,7.4886,7.4886,7.4886,7.4886,7.4886,7.4886,7.4886,7.4886,7.4886,7.4886,7.4886,7.4886,7.4886,7.4886,0.0,7.4031,7.4031,7.3552,7.3206,7.3206,7.3206,7.3432,7.4001,7.4031,0.0,0.0,7.4886,7.4886,7.4886,7.4886,7.4886,7.4886,7.4886,7.4886,7.4886,7.4886,7.4886,7.4886,7.4886,7.4886,7.4886,7.4886,7.4886,7.4886,7.4886,7.4886,7.4886,7.4886,7.4886,7.4886,7.4886,7.4886,7.4886,7.4706,7.4736,7.4766,7.4886,7.4886,7.4886,7.4886,7.4886,7.4886,7.4886,7.4886,7.4886,7.4886,7.4886,7.4886,7.4886,7.4886,7.4886,7.4886,7.4886,7.4886,7.4886,7.4886,7.4886,7.4886,7.4886,7.4886,7.4886,7.4886,7.4886,7.4886,7.4886,7.4886,7.4886,7.4886,7.4886,7.4886,7.4886,7.4886,7.4886,7.4886,7.4886,7.4886,7.4886,7.4886,7.4886,7.4886,7.4886,7.4886,7.4886,7.4886,7.4886,7.4886,7.4886,7.4886,7.4886,7.4886,7.4886,7.4886,7.4886,7.4886,7.4886,7.4886,7.4886,7.4886,7.4886,7.4886,7.4886,7.4886,7.4886,7.4886,7.4886,7.4886,7.4886,7.4886,7.4886,7.4886,0.0,7.4736,7.4736,7.4646,7.4587,7.4587,7.4587,7.4616,7.4736,7.4736,7.4796,7.4886,7.4886,7.4886,7.4886,7.4886,7.4886,7.4886,7.4886,7.4886,7.4886,7.4886,7.4886,7.4886,7.4886,7.4886,7.4886,7.4886,7.4886,7.4886,7.4886,7.4886,7.4886,7.4886,7.4886,7.4886,7.4886,7.4886,7.4886,7.4886,7.4886,7.4886,7.4886,7.4886,7.4886,7.4886,7.4886,7.4886,7.4886,7.4886,7.4886,7.4886,7.4886,7.4886,7.4886,7.4886,7.4886,7.4886,7.4886,7.4886,7.4886,7.4886,7.4886,7.4886,7.4886,7.4886,7.4886,7.4886,7.4886,7.4886,7.4886,7.4886,7.4886,7.4886,7.4886,7.4886,7.4886,7.4886,7.4886,7.4886,7.4886,7.4886,7.4886,7.4886,7.4886,7.4886,7.4886,7.4886,7.4886,7.4886,7.4886,7.4886,7.4886,7.4886,7.4886,7.4886,7.4886,7.4886,7.4886,7.4886,7.4886,7.4886,7.4886,7.4886,7.4886,7.4886,7.4886,7.4886,7.4886,7.4886,7.4886,7.4886,7.4886,7.4886,0.0,0.0,7.4886,7.4886,7.4886,7.4886,7.4886,7.4886,7.4886,7.4886,7.4886,7.4886,7.4886,7.4886,7.4886,7.4886,7.4886,7.4886,7.4886,7.4886,7.4886,7.4886,7.4886,7.4886,7.4886,7.4886,7.4886,7.4886,7.4886,7.4886,7.4886,7.4886,7.4886,7.4886,7.4886,7.4886,7.4886,7.4886,7.4886,7.4886,7.4886,7.4886,7.4886,7.4886,7.4886,7.4886,7.4886,7.4886,7.4886,7.4886,7.4886,7.4886,7.4886,7.4886,7.4886,7.4886,7.4886,7.4886,7.4886,7.4886,7.4886,7.4886,7.4886,7.4886,7.4886,7.4886,7.4886,7.4886,7.4886,7.4886,7.4886,7.4886,7.4886,7.4886,7.4886,7.4886,7.4886,7.4886,7.4886,7.4886,7.4886,7.4886,7.4886,7.4886,7.4886,7.4886,7.4886,7.4886,7.4886,7.4886,7.4886,7.4886,7.4886,7.4886,7.4886,7.4886,7.4886,7.4886,7.4886,7.4886,7.4886,7.4886,7.4886,7.4886,7.4886,7.4886,7.4886,7.4886,7.4886,7.4886,7.4886,7.4886,7.4886,7.4886,7.4886,0.0,0.0,0.0,7.4886,7.4886,7.4886,7.4886,7.4886,7.4886,7.4886,7.4886,7.4886,7.4886,7.4886,7.4886,7.4886,7.4886,7.4886,7.4886,7.4886,7.4886,7.4886,7.4886,7.4886,7.4886,7.4886,7.4886,7.4886,7.4886,7.4886,7.4886,7.4886,7.4886,7.4886,7.4886,7.4886,7.4886,7.4886,7.4886,7.4886,7.4886,7.4886,7.4886,7.4886,7.4886,7.4886,7.4886,7.4886,7.4886,7.4886,7.4886,7.4886,7.4886,7.4886,7.4886,7.4886,7.4886,7.4886,7.4886,7.4886,7.4886,7.4886,7.4886,7.4886,7.4886,7.4886,7.4886,7.4886,7.4886,7.4886,7.4886,7.4886,7.4886,7.4886,7.4886,7.4886,7.4886,7.4886,7.4886,7.4886,7.4886,7.4886,7.4886,7.4886,7.4886,7.4886,7.4886,7.4886,7.4886,7.4886,7.4886,7.4886,7.4886,7.4886,7.4886,7.4886,7.4886,7.4886,7.4886,7.4886,7.4886,7.4886,7.4886,7.4886,7.4886,7.4886,7.4886,7.4886,7.4886,7.4886,7.4886,7.4886,7.4886,7.4886,7.4886,7.4886,0.0,0.0,7.4886,7.4886,7.4886,7.4886,7.4886,7.4886,7.4886,7.4886,7.4886,7.4886,7.4886,7.4886,7.4886,7.4886,7.4886,7.4886,7.4886,7.4886,7.4886,7.4886,7.4886,7.4886,7.4886,7.4886,7.4886,7.4886,7.4886,7.4886,7.4886,7.4886,7.4886,7.4886,7.4886,7.4886,7.4886,7.4886,7.4886,7.4886,7.4886,7.4886,7.4886,7.4886,7.4886,7.4886,7.4886,7.4886,7.4886,7.4886,7.4886,7.4886,7.4886,7.4886,7.4886,7.4886,7.4886,7.4886,7.4886,7.4886,7.4886,7.4886,7.4886,7.4886,7.4886,7.4886,7.4886,7.4886,7.4886,7.4886,7.4886,7.4886,7.4886,7.4886,7.4886,7.4886,7.4886,7.4886,7.4886,7.4886,7.4886,7.4886,7.4886,7.4886,7.4886,7.4886,7.4886,7.4886,7.4886,7.4886,7.4886,7.4886,7.4886,7.4886,7.4886,7.4886,7.4886,7.4886,7.4886,7.4886,7.4886,7.4886,7.4886,7.4886,7.4886,7.4886,7.4886,7.4886,7.4886,7.4886,7.4886,7.4886,7.4886,7.4886,7.4886,7.4886,0.0,7.4886,7.4886,7.4886,7.4886,7.4886,7.4886,7.4886,7.4886,7.4886,7.4886,7.4886,7.4886,7.4886,7.4886,7.4886,7.4886,7.4886,7.4886,7.4886,7.4886,7.4886,7.4886,7.4886,7.4886,7.4886,7.4886,7.4886,7.4886,7.4886,7.4886,7.4886,7.4886,7.4886,7.4886,7.4886,7.4886,7.4886,7.4886,7.4886,7.4886,7.4886,7.4886,7.4886,7.4886,7.4886,7.4886,7.4886,7.4886,7.4886,7.4886,7.4886,7.4886,7.4886,7.4886,7.4886,7.4886,7.4886,7.5095,7.5215,7.5215,7.5395,7.5335,7.4916,7.4886,7.4886,7.4886,7.5095,7.5215,7.5215,7.5395,7.5514,7.5514,7.5514,7.5514,7.5514,7.5514,7.5514,7.5514,7.5514,7.5514,7.5514,7.5514,7.5514,7.5514,7.5514,7.5514,7.5467,7.5275,7.5215,7.5185,7.4976,7.4886,7.4886,7.4886,7.4886,7.4886,7.4886,7.4886,7.4886,7.4886,7.4886,7.4886,7.4886,7.4886,7.4886,7.4886,7.4886,7.4886,7.4886,7.4886,7.4886,7.4886,7.4886,7.4886,7.4886,7.4886,7.4886,7.4886,7.4886,7.4886,7.4886,7.4886,7.4886,7.4886,7.4886,7.4886,7.4886,7.4886,7.4886,7.4886,7.4886,7.4886,7.4886,7.4886,7.4886,7.4886,7.4886,7.4886,7.4886,7.4886,7.4886,7.4886,7.4886,7.4886,7.4886,7.4886,7.4886,7.4886,7.4886,7.4886,7.4886,7.4886,7.4886,7.4886,7.4886,7.4886,7.4886,7.4886,7.4886,7.4886,7.4886,7.4886,7.4886,7.4886,7.4886,7.4886,7.4916,7.4916,7.4916,7.4916,7.4916,7.4916,7.4916,7.5527,7.5916,7.5916,7.6467,7.6228,7.4976,7.4916,7.4916,7.4916,7.5557,7.5916,7.5916,7.6527,7.6779,7.6779,7.6779,7.6779,7.6779,7.6779,7.6779,7.6779,7.6779,7.6779,7.6779,7.6779,7.6779,7.6779,7.6779,7.6779,7.6719,7.6108,7.5916,7.5796,7.5125,7.4886,7.4886,7.4886,7.4886,7.4886,7.4886,7.4886,7.4886,7.4886,7.4886,7.4886,7.4886,7.4886,7.4886,7.4886,7.4886,7.4886,7.4886,7.4886,7.4886,7.4886,7.4886,7.4886,7.4886,7.4886,7.4886,7.4886,7.4886,7.4886,7.4886,7.4886,7.4886,7.4886,7.4886,7.4886,7.4886,7.4886,7.4886,7.4886,7.4886,7.4886,7.4886,7.4886,7.4886,7.4886,7.4886,7.4886,7.4886,7.4886,7.4886,7.4886,7.4886,7.4886,7.4886,7.4886,7.4886,7.4886,7.4886,7.4886,7.4886,7.4886,7.4886,7.4886,7.4886,7.4886,7.4886,7.4886,7.4886,7.4886,7.4886,7.4886,7.4886,7.4886,7.4886,7.5065,7.5527,7.5587,7.5766,7.6168,7.6228,7.6228,7.6228,7.6407,7.6527,7.6527,7.6706,7.6647,7.6258,7.6228,7.6228,7.6228,7.6437,7.6527,7.6527,7.6706,7.6779,7.6779,7.6779,7.6779,7.6779,7.6779,7.6779,7.6779,7.6779,7.6779,7.6779,7.6779,7.6779,7.6779,7.6779,7.6779,7.6779,7.6617,7.6258,7.5886,7.5677,7.5305,7.4886,7.4886,7.4886,7.4886,7.4886,7.4886,7.4886,7.4886,7.4886,7.4886,7.4886,7.4886,7.4886,7.4886,7.4886,7.4886,7.4886,7.4886,7.4886,7.4886,7.4886,7.4886,7.4886,7.4886,7.4886,7.4886,7.4886,7.4886,7.4886,7.4886,7.4886,7.4886,7.4886,7.4886,7.4886,7.4886,7.4886,7.4886,7.4886,7.4886,7.4886,7.4886,7.4886,7.4886,7.4886,7.4886,7.4886,7.4886,7.4886,7.4886,7.4886,7.4886,7.4886,7.4886,7.4886,7.4886,7.4886,7.4886,7.4886,7.4886,7.4886,7.4886,7.4886,7.4886,7.4886,7.4886,7.4886,7.4976,7.5245,7.5305,7.5395,7.5617,7.5647,7.5796,7.6198,7.6258,7.6407,7.6766,7.6779,7.6779,7.6779,7.7035,7.7305,7.7574,7.7574,7.7574,7.7574,7.7574,7.7335,7.6808,7.7065,7.7215,7.7215,7.7454,7.7574,7.7574,7.7574,7.7574,7.7574,7.7574,7.7574,7.7574,7.7574,7.7574,7.7574,7.7574,7.7574,7.7574,7.7574,7.7574,7.7544,7.7305,7.6946,7.6557,7.6066,7.5437,7.4886,7.4886,7.4886,7.4886,7.4886,7.4886,7.4886,7.4886,7.4886,7.4886,7.4886,7.4886,7.4886,7.4886,7.4886,7.4886,7.4886,7.4886,7.4886,7.4886,7.4886,7.4886,7.4886,7.4886,7.4886,7.4886,7.4886,7.4886,7.4886,7.4886,7.4886,7.4886,7.4886,7.4886,7.4886,7.4886,7.4886,7.4886,7.4886,7.4886,7.4886,7.4886,7.4886,7.4886,7.4886,7.4886,7.4886,7.4886,7.4886,7.4886,7.4886,7.4886,7.4886,7.4886,7.4886,7.4886,7.4886,7.4886,7.4886,7.4886,7.4886,7.4886,7.4886,7.4886,7.4886,7.4976,7.5035,7.5275,7.5886,7.5976,7.6168,7.6719,7.6779,7.6808,7.6868,7.6886,7.6898,7.6958,7.6976,7.6976,7.6976,7.7544,7.816,7.8759,7.8807,7.8807,7.8807,7.8807,7.822,7.7006,7.7574,7.7891,7.7891,7.8489,7.8807,7.8807,7.8807,7.8807,7.8807,7.8807,7.8807,7.8807,7.8807,7.8807,7.8807,7.8807,7.8807,7.8807,7.8807,7.8807,7.8699,7.81,7.7861,7.7622,7.6335,7.5497,7.4976,7.4916,7.4886,7.4886,7.4886,7.4886,7.4886,7.4886,7.4886,7.4886,7.4886,7.4886,7.4886,7.4886,7.4886,7.4886,7.4886,7.4886,7.4886,7.4886,7.4886,7.4886,7.4886,7.4886,7.4886,7.4886,7.4886,7.4886,7.4886,7.4886,7.4886,7.4886,7.4886,7.4886,7.4886,7.4886,7.4886,7.4886,7.4886,7.4886,7.4886,7.4886,7.4886,7.4886,7.4886,7.4886,7.4886,7.4886,7.4886,7.4886,7.4886,7.4886,7.4886,7.4886,7.4886,7.4886,7.4886,7.4886,7.4886,7.4886,7.4886,7.4886,7.4886,7.4886,7.4886,7.5677,7.6048,7.6437,7.6587,7.6599,7.6647,7.6779,7.6779,7.7006,7.7514,7.7574,7.7783,7.831,7.837,7.837,7.837,7.8489,7.8639,7.8807,7.8807,7.8807,7.8807,7.8807,7.8639,7.837,7.8519,7.8579,7.8579,7.8747,7.8807,7.8807,7.8807,7.8807,7.8807,7.8807,7.8807,7.8807,7.8807,7.8807,7.8807,7.8807,7.8807,7.8807,7.8807,7.8807,7.8777,7.8639,7.825,7.7622,7.6335,7.5796,7.5587,7.5065,7.4886,7.4886,7.4886,7.4886,7.4886,7.4886,7.4886,7.4886,7.4886,7.4886,7.4886,7.4886,7.4886,7.4886,7.4886,7.4886,7.4886,7.4886,7.4886,7.4886,7.4886,7.4886,7.4886,7.4886,7.4886,7.4886,7.4886,7.4886,7.4886,7.4886,7.4886,7.4886,7.4886,7.4886,7.4886,7.4886,7.4886,7.4886,7.4886,7.4886,7.4886,7.4886,7.4886,7.4886,7.4886,7.4886,7.4886,7.4886,7.4886,7.4886,7.4886,7.4886,7.4886,7.4886,7.4886,7.4886,7.4886,7.4886,7.4886,7.4886,7.4886,7.4886,7.4886,7.6317,7.6587,7.6916,7.7215,7.7275,7.7394,7.7711,7.7753,7.7891,7.822,7.828,7.84,7.8759,7.8807,7.8807,7.8807,7.8807,7.8807,7.8807,7.8807,7.8807,7.8807,7.8807,7.8807,7.8807,7.8807,7.8807,7.8807,7.8807,7.8807,7.8807,7.8807,7.8807,7.8807,7.8807,7.8807,7.8807,7.8807,7.8807,7.8807,7.8807,7.8807,7.8807,7.8807,7.8807,7.8807,7.8807,7.837,7.7711,7.7023,7.6395,7.5826,7.5497,7.5155,7.4886,7.4886,7.4886,7.4886,7.4886,7.4886,7.4886,7.4886,7.4886,7.4886,7.4886,7.4886,7.4886,7.4886,7.4886,7.4886,7.4886,7.4886,7.4886,7.4886,7.4886,7.4886,7.4886,7.4886,7.4886,7.4886,7.4886,7.4886,7.4886,7.4886,7.4886,7.4886,7.4886,7.4886,7.4886,7.4886,7.4886,7.4886,7.4886,7.4886,7.4886,7.4886,7.4886,7.4886,7.4886,7.4886,7.4886,7.4886,7.4886,7.4886,7.4886,7.4886,7.4886,7.4886,7.4886,7.4886,7.4886,7.4886,7.4886,7.4886,7.4886,7.4886,7.6958,7.7065,7.7305,7.7873,7.7981,7.816,7.8717,7.8807,7.8807,7.8807,7.8807,7.8807,7.8807,7.8807,7.8807,7.8807,7.8807,7.8807,7.8807,7.8807,7.8807,7.8807,7.8807,7.8807,7.8807,7.8807,7.8807,7.8807,7.8807,7.8807,7.8807,7.8807,7.8807,7.8807,7.8807,7.8807,7.8807,7.8807,7.8807,7.8807,7.8807,7.8807,7.8807,7.8807,7.8807,7.8807,7.8807,7.843,7.7951,7.7861,7.7113,7.6185,7.5976,7.5527,7.5035,7.4916,7.4886,7.4886,7.4886,7.4886,7.4886,7.4886,7.4886,7.4886,7.4886,7.4886,7.4886,7.4886,7.4886,7.4886,7.4886,7.4886,7.4886,7.4886,7.4886,7.4886,7.4886,7.4886,7.4886,7.4886,7.4886,7.4886,7.4886,7.4886,7.4886,7.4886,7.4886,7.4886,7.4886,7.4886,7.4886,7.4886,7.4886,7.4886,7.4886,7.4886,7.4886,7.4886,7.4886,7.4886,7.4886,7.4886,7.4886,7.4886,7.4886,7.4886,7.4886,7.4886,7.4886,7.4886,7.4886,7.4886,7.4886,7.4886,7.4886,7.4886,7.7664,7.813,7.8549,7.8639,7.8639,7.8699,7.8807,7.8807,7.8807,7.8807,7.8807,7.8807,7.8807,7.8807,7.8807,7.8807,7.8807,7.8807,7.8807,7.8807,7.8807,7.8807,7.8807,7.8807,7.8807,7.8807,7.8807,7.8807,7.8807,7.8807,7.8807,7.8807,7.8807,7.8807,7.8807,7.8807,7.8807,7.8807,7.8807,7.8807,7.8807,7.8807,7.8807,7.8807,7.8807,7.8807,7.8807,7.8747,7.8579,7.8011,7.7682,7.7352,7.6245,7.5826,7.5647,7.5065,7.4886,7.4886,7.4886,7.4886,7.4886,7.4886,7.4886,7.4886,7.4886,7.4886,7.4886,7.4886,7.4886,7.4886,7.4886,7.4886,7.4886,7.4886,7.4886,7.4886,7.4886,7.4886,7.4886,7.4886,7.4886,7.4886,7.4886,7.4886,7.4886,7.4886,7.4886,7.4886,7.4886,7.4886,7.4886,7.4886,7.4886,7.4886,7.4886,7.4886,7.4886,7.4886,7.4886,7.4886,7.4886,7.4886,7.4886,7.4886,7.4886,7.4886,7.4886,7.4886,7.4886,7.4886,7.4886,7.4886,7.4886,7.4886,7.4886,7.4886,7.837,7.8579,7.8807,7.8807,7.8807,7.8807,7.8807,7.8807,7.8807,7.8807,7.8807,7.8807,7.8807,7.8807,7.8807,7.8807,7.8807,7.8807,7.8807,7.8807,7.8807,7.8807,7.8807,7.8807,7.8807,7.8807,7.8807,7.8807,7.8807,7.8807,7.8807,7.8807,7.8807,7.8807,7.8807,7.8807,7.8807,7.8807,7.8807,7.8807,7.8807,7.8807,7.8807,7.8807,7.8807,7.8807,7.8807,7.8807,7.8747,7.846,7.81,7.7694,7.7143,7.6485,7.5856,7.5557,7.5185,7.4886,7.4886,7.4886,7.4886,7.4886,7.4886,7.4886,7.4886,7.4886,7.4886,7.4886,7.4886,7.4886,7.4886,7.4886,7.4886,7.4886,7.4886,7.4886,7.4886,7.4886,7.4886,7.4886,7.4886,7.4886,7.4886,7.4886,7.4886,7.4886,7.4886,7.4886,7.4886,7.4886,7.4886,7.4886,7.4886,7.4886,7.4886,7.4886,7.4886,7.4886,7.4886,7.4886,7.4886,7.4886,7.4886,7.4886,7.4886,7.4886,7.4886,7.4886,7.4886,7.4886,7.4886,7.4886,7.4886,7.4886,7.4886,7.4886]}]]